[[{"header":{"parameterUnit":"m.s-1","parameterCategory":1,"la1":30.6,"la2":29.2853,"lo1":-89.7004,"lo2":-87.6739,"dy":0.0162,"dx":0.0183,"nx":112,"ny":82,"refTime":"2026-04-30T12:00:00:Z","depth":0,"parameterNumber":2,"parameterNumberName":"U-component_of_WINDS"},"data":[0.0,0.0,0.0,0.0,0.0,0.0,0.0,0.0,0.0,0.0,0.0,0.0,0.0,0.0,0.0,0.0,0.0,0.0,0.0,0.0,0.0,0.0,0.0,0.0,0.0,0.0,0.0,0.0,0.0,0.0,0.0,0.0,0.0,0.0,0.0,0.0,0.0,0.0,0.0,0.0,0.0,0.0,0.0,0.0,0.0,0.0,0.0,0.0,0.0,0.0,0.0,0.0,0.0,0.0,0.0,0.0,0.0,0.0,0.0,0.0,0.0,0.0,0.0,0.0,0.0,0.0,0.0,0.0,0.0,0.0,0.0,0.0,0.0,0.0,0.0,0.0,0.0,0.0,0.0,0.0,0.0,0.0,0.0,0.0,0.0,0.0,0.0,0.0,0.0,0.0,0.0,-6.4359,-7.513,-8.0554,-7.7707,-7.3899,-6.8321,-6.0396,0.0,0.0,0.0,0.0,0.0,0.0,0.0,0.0,0.0,0.0,0.0,0.0,0.0,0.0,0.0,0.0,0.0,0.0,0.0,0.0,0.0,0.0,0.0,0.0,0.0,0.0,0.0,0.0,0.0,0.0,0.0,0.0,0.0,0.0,0.0,0.0,0.0,0.0,0.0,0.0,0.0,0.0,0.0,0.0,0.0,0.0,0.0,0.0,0.0,0.0,0.0,0.0,0.0,0.0,0.0,0.0,0.0,0.0,0.0,0.0,0.0,0.0,0.0,0.0,0.0,0.0,0.0,0.0,0.0,0.0,0.0,0.0,0.0,0.0,0.0,0.0,0.0,0.0,0.0,0.0,0.0,0.0,0.0,0.0,0.0,0.0,0.0,0.0,0.0,0.0,0.0,0.0,0.0,0.0,0.0,0.0,0.0,0.0,0.0,0.0,0.0,0.0,0.0,0.0,-5.9973,-7.2706,-8.0208,-8.2708,-7.8669,-7.6399,-7.136,-6.2293,0.0,0.0,0.0,0.0,0.0,0.0,0.0,0.0,0.0,0.0,0.0,0.0,0.0,0.0,0.0,0.0,0.0,0.0,0.0,0.0,0.0,0.0,0.0,0.0,0.0,0.0,0.0,0.0,0.0,0.0,0.0,0.0,0.0,0.0,0.0,0.0,0.0,0.0,0.0,0.0,0.0,0.0,0.0,0.0,0.0,0.0,0.0,0.0,0.0,0.0,0.0,0.0,0.0,0.0,0.0,0.0,0.0,0.0,0.0,0.0,0.0,0.0,0.0,0.0,0.0,0.0,0.0,0.0,0.0,0.0,0.0,0.0,0.0,0.0,0.0,0.0,0.0,0.0,0.0,0.0,0.0,0.0,0.0,0.0,0.0,0.0,0.0,0.0,0.0,0.0,0.0,0.0,0.0,0.0,0.0,0.0,0.0,0.0,0.0,0.0,0.0,0.0,0.0,-5.9127,-6.7744,-7.5822,-8.1208,-8.2631,-7.8823,-7.613,-7.086,-6.1947,-5.3126,0.0,0.0,0.0,0.0,0.0,0.0,0.0,0.0,0.0,0.0,0.0,0.0,0.0,0.0,0.0,0.0,0.0,0.0,0.0,0.0,0.0,0.0,0.0,0.0,0.0,0.0,0.0,0.0,0.0,0.0,0.0,0.0,0.0,0.0,0.0,0.0,0.0,0.0,0.0,0.0,0.0,0.0,0.0,0.0,0.0,0.0,0.0,0.0,0.0,0.0,0.0,0.0,0.0,0.0,0.0,0.0,0.0,0.0,0.0,0.0,0.0,0.0,0.0,0.0,0.0,0.0,0.0,0.0,0.0,0.0,0.0,0.0,0.0,0.0,0.0,0.0,0.0,0.0,0.0,0.0,0.0,0.0,0.0,0.0,0.0,0.0,0.0,0.0,0.0,0.0,0.0,0.0,0.0,0.0,0.0,0.0,0.0,0.0,0.0,0.0,0.0,0.0,-6.7436,-7.4322,-7.7553,-8.1323,-8.2131,-7.8515,-7.4938,-6.9244,-6.0742,-5.3049,0.0,0.0,0.0,0.0,0.0,0.0,0.0,0.0,0.0,0.0,0.0,0.0,0.0,0.0,0.0,0.0,0.0,0.0,0.0,0.0,0.0,0.0,0.0,0.0,0.0,0.0,0.0,0.0,0.0,0.0,0.0,0.0,0.0,0.0,0.0,0.0,0.0,0.0,0.0,0.0,0.0,0.0,0.0,0.0,0.0,0.0,0.0,0.0,0.0,0.0,0.0,0.0,0.0,0.0,0.0,0.0,0.0,0.0,0.0,0.0,0.0,0.0,0.0,0.0,0.0,0.0,0.0,0.0,0.0,0.0,0.0,0.0,0.0,0.0,0.0,0.0,0.0,0.0,0.0,0.0,0.0,0.0,0.0,0.0,0.0,0.0,0.0,0.0,0.0,0.0,0.0,0.0,0.0,0.0,0.0,0.0,0.0,0.0,0.0,0.0,0.0,0.0,-7.0437,-7.6746,-7.9361,-8.2016,-8.19,-7.7746,-7.3514,-6.7475,-5.9011,-5.1318,0.0,0.0,0.0,0.0,0.0,0.0,0.0,0.0,0.0,0.0,0.0,0.0,0.0,0.0,0.0,0.0,0.0,0.0,0.0,0.0,0.0,0.0,0.0,0.0,0.0,0.0,0.0,0.0,0.0,0.0,0.0,0.0,0.0,0.0,0.0,0.0,0.0,0.0,0.0,0.0,0.0,0.0,0.0,0.0,0.0,0.0,0.0,0.0,0.0,0.0,0.0,0.0,0.0,0.0,0.0,0.0,0.0,0.0,0.0,0.0,0.0,0.0,0.0,0.0,0.0,0.0,0.0,0.0,0.0,0.0,0.0,0.0,0.0,0.0,0.0,0.0,0.0,0.0,0.0,0.0,0.0,0.0,0.0,0.0,0.0,0.0,0.0,0.0,0.0,0.0,0.0,0.0,0.0,0.0,0.0,0.0,0.0,0.0,0.0,0.0,0.0,0.0,-7.0744,-7.6784,0.0,-8.1285,-8.0862,-7.6092,-7.2283,-6.6513,-5.8011,0.0,0.0,0.0,0.0,0.0,0.0,0.0,0.0,0.0,0.0,0.0,0.0,0.0,0.0,0.0,0.0,0.0,0.0,0.0,0.0,0.0,0.0,0.0,0.0,0.0,0.0,0.0,0.0,0.0,0.0,0.0,0.0,0.0,0.0,0.0,0.0,0.0,0.0,0.0,0.0,0.0,0.0,0.0,0.0,0.0,0.0,0.0,0.0,0.0,0.0,0.0,0.0,0.0,0.0,0.0,0.0,0.0,0.0,0.0,0.0,0.0,0.0,0.0,0.0,0.0,0.0,0.0,0.0,0.0,0.0,0.0,0.0,0.0,0.0,0.0,0.0,0.0,0.0,0.0,0.0,0.0,0.0,0.0,0.0,0.0,0.0,0.0,0.0,0.0,0.0,0.0,0.0,0.0,0.0,0.0,0.0,0.0,0.0,0.0,0.0,0.0,0.0,-6.2243,-7.0744,-7.6553,0.0,-8.0131,-7.9554,-7.4745,-7.0744,-6.5089,-5.7099,0.0,0.0,0.0,0.0,0.0,0.0,0.0,0.0,0.0,0.0,0.0,0.0,0.0,0.0,0.0,0.0,0.0,0.0,0.0,0.0,0.0,0.0,0.0,0.0,0.0,0.0,0.0,0.0,0.0,0.0,0.0,0.0,0.0,0.0,0.0,0.0,0.0,0.0,0.0,0.0,0.0,0.0,0.0,0.0,0.0,0.0,0.0,0.0,0.0,0.0,0.0,0.0,0.0,0.0,0.0,0.0,0.0,0.0,0.0,0.0,0.0,0.0,0.0,0.0,0.0,0.0,0.0,0.0,0.0,0.0,0.0,0.0,0.0,0.0,0.0,0.0,0.0,0.0,0.0,0.0,0.0,0.0,0.0,0.0,0.0,0.0,0.0,0.0,0.0,0.0,0.0,0.0,0.0,0.0,0.0,0.0,0.0,0.0,0.0,0.0,0.0,0.0,-6.232,-7.0706,-7.6322,-7.7169,-7.8784,-7.8092,-7.386,-6.8859,-6.3012,0.0,0.0,0.0,0.0,0.0,0.0,0.0,0.0,0.0,0.0,0.0,0.0,0.0,0.0,0.0,0.0,0.0,0.0,0.0,0.0,0.0,0.0,0.0,0.0,0.0,0.0,0.0,0.0,0.0,0.0,0.0,0.0,0.0,0.0,0.0,0.0,0.0,0.0,0.0,0.0,0.0,0.0,0.0,0.0,0.0,0.0,0.0,0.0,0.0,0.0,0.0,0.0,0.0,0.0,0.0,0.0,0.0,0.0,0.0,0.0,0.0,0.0,0.0,0.0,0.0,0.0,0.0,0.0,0.0,0.0,0.0,0.0,0.0,0.0,0.0,0.0,0.0,0.0,0.0,0.0,0.0,0.0,0.0,0.0,0.0,0.0,0.0,0.0,0.0,0.0,0.0,0.0,0.0,0.0,0.0,0.0,0.0,0.0,0.0,0.0,0.0,0.0,0.0,-6.1396,-6.936,-7.4784,-7.6245,-7.7861,-7.7438,-7.3822,-7.0475,-6.5166,-5.7137,0.0,0.0,0.0,0.0,0.0,0.0,0.0,0.0,0.0,0.0,0.0,0.0,0.0,0.0,0.0,0.0,0.0,0.0,0.0,0.0,0.0,0.0,0.0,0.0,0.0,0.0,0.0,0.0,0.0,0.0,0.0,0.0,0.0,0.0,0.0,0.0,0.0,0.0,0.0,0.0,0.0,0.0,0.0,0.0,0.0,0.0,0.0,0.0,0.0,0.0,0.0,0.0,0.0,0.0,0.0,0.0,0.0,0.0,0.0,0.0,0.0,0.0,0.0,0.0,0.0,0.0,0.0,0.0,0.0,0.0,0.0,0.0,0.0,0.0,0.0,0.0,0.0,0.0,0.0,0.0,0.0,0.0,0.0,0.0,0.0,0.0,0.0,0.0,0.0,0.0,0.0,0.0,0.0,0.0,0.0,0.0,0.0,0.0,0.0,0.0,0.0,0.0,-6.0985,-6.8783,-7.4014,-7.5361,-7.7015,-7.6784,-7.3783,-7.1168,-6.6205,-5.8011,0.0,0.0,0.0,0.0,0.0,0.0,0.0,0.0,0.0,0.0,0.0,0.0,0.0,0.0,0.0,0.0,0.0,0.0,0.0,0.0,0.0,0.0,0.0,0.0,0.0,0.0,0.0,0.0,0.0,0.0,0.0,0.0,0.0,0.0,0.0,0.0,0.0,0.0,0.0,0.0,0.0,0.0,0.0,0.0,0.0,0.0,0.0,0.0,0.0,0.0,0.0,0.0,0.0,0.0,0.0,0.0,0.0,0.0,0.0,0.0,0.0,0.0,0.0,0.0,0.0,0.0,0.0,0.0,0.0,0.0,0.0,0.0,0.0,0.0,0.0,0.0,0.0,0.0,0.0,0.0,0.0,0.0,0.0,0.0,0.0,0.0,0.0,0.0,0.0,0.0,0.0,0.0,0.0,0.0,0.0,0.0,0.0,0.0,0.0,0.0,0.0,0.0,-6.087,-6.859,-7.3591,-7.4399,-7.6015,-7.6015,-7.3476,-7.1091,-6.6436,-5.8781,0.0,0.0,0.0,0.0,0.0,0.0,0.0,0.0,0.0,0.0,0.0,0.0,0.0,0.0,0.0,0.0,0.0,0.0,0.0,0.0,0.0,0.0,0.0,0.0,0.0,0.0,0.0,0.0,0.0,0.0,0.0,0.0,0.0,0.0,0.0,0.0,0.0,0.0,0.0,0.0,0.0,0.0,0.0,0.0,0.0,0.0,0.0,0.0,0.0,0.0,0.0,0.0,0.0,0.0,0.0,0.0,0.0,0.0,0.0,0.0,-5.7152,0.0,0.0,0.0,0.0,0.0,0.0,0.0,0.0,0.0,0.0,0.0,0.0,0.0,0.0,0.0,0.0,0.0,0.0,0.0,0.0,0.0,0.0,0.0,0.0,0.0,0.0,0.0,0.0,0.0,0.0,0.0,0.0,0.0,0.0,0.0,0.0,0.0,0.0,0.0,0.0,0.0,-5.9973,-6.7167,-7.1783,-7.2629,-7.4245,-7.4207,-7.1668,-7.0398,-6.6436,-5.8781,-5.301,0.0,0.0,0.0,0.0,0.0,0.0,0.0,0.0,0.0,0.0,0.0,0.0,0.0,0.0,0.0,0.0,0.0,0.0,0.0,0.0,0.0,0.0,0.0,0.0,0.0,0.0,0.0,0.0,0.0,0.0,0.0,0.0,0.0,0.0,0.0,0.0,0.0,0.0,0.0,0.0,0.0,0.0,0.0,0.0,0.0,0.0,0.0,0.0,0.0,0.0,0.0,0.0,0.0,0.0,0.0,0.0,0.0,0.0,0.0,0.0,-6.0419,0.0,0.0,0.0,0.0,0.0,0.0,0.0,0.0,0.0,0.0,0.0,0.0,0.0,0.0,0.0,0.0,0.0,0.0,0.0,0.0,0.0,0.0,0.0,0.0,0.0,0.0,0.0,0.0,0.0,0.0,0.0,0.0,0.0,0.0,0.0,0.0,0.0,0.0,0.0,0.0,-5.9204,-6.6128,-7.0629,-7.1475,-7.3091,-7.3245,-7.1091,-7.0167,-6.659,-5.9358,-5.4472,0.0,0.0,0.0,0.0,0.0,0.0,0.0,0.0,0.0,0.0,0.0,0.0,0.0,0.0,0.0,0.0,0.0,0.0,0.0,0.0,0.0,0.0,0.0,0.0,0.0,0.0,0.0,0.0,0.0,0.0,0.0,0.0,0.0,0.0,0.0,0.0,0.0,0.0,0.0,0.0,0.0,0.0,0.0,0.0,0.0,0.0,0.0,0.0,0.0,0.0,0.0,0.0,0.0,-6.8519,-6.9155,-6.9192,-7.0844,-7.1578,-7.1431,-6.9082,-6.7026,-6.5154,0.0,0.0,0.0,0.0,0.0,0.0,0.0,0.0,0.0,0.0,0.0,0.0,0.0,0.0,0.0,0.0,0.0,0.0,0.0,0.0,0.0,0.0,0.0,0.0,0.0,-5.905,-5.7165,0.0,0.0,0.0,0.0,0.0,0.0,0.0,0.0,0.0,0.0,0.0,0.0,-5.8665,-6.5474,-6.9937,-7.0629,-7.2091,-7.236,-7.0629,-6.9706,-6.6513,-6.0127,-5.6049,-5.0971,0.0,0.0,0.0,0.0,0.0,0.0,0.0,0.0,0.0,0.0,0.0,0.0,0.0,0.0,0.0,0.0,0.0,0.0,0.0,0.0,0.0,0.0,0.0,0.0,0.0,0.0,0.0,0.0,0.0,0.0,0.0,0.0,-4.397,-4.5855,0.0,0.0,0.0,0.0,0.0,0.0,0.0,0.0,0.0,0.0,0.0,0.0,0.0,0.0,-6.8271,-7.1272,-7.2788,-7.2834,-7.4309,-7.4992,-7.5065,-7.6717,-7.7488,-7.7524,-7.8516,0.0,-7.022,-6.8495,0.0,0.0,0.0,0.0,0.0,0.0,0.0,0.0,0.0,0.0,0.0,0.0,0.0,0.0,0.0,0.0,0.0,0.0,0.0,0.0,0.0,0.0,-6.5051,-6.5782,-6.4743,-6.3397,0.0,-5.8357,-5.3356,-4.9356,-4.7124,0.0,0.0,0.0,0.0,0.0,0.0,0.0,-5.8742,-6.5474,-6.9744,-6.986,-7.0706,-7.0552,-6.8859,-6.7936,-6.5474,-6.0935,-5.805,-5.4126,-4.8779,-4.4624,0.0,0.0,0.0,0.0,0.0,0.0,0.0,0.0,0.0,0.0,0.0,0.0,0.0,0.0,0.0,0.0,0.0,0.0,0.0,0.0,0.0,0.0,0.0,0.0,0.0,0.0,0.0,0.0,0.0,-4.4893,-4.9048,-5.0279,-5.0856,-5.1164,0.0,0.0,0.0,0.0,0.0,0.0,0.0,0.0,0.0,-6.584,-6.9628,-7.2364,-7.3876,-7.6656,-7.8407,-7.9239,-8.0346,-8.0865,-8.0938,-8.2113,-8.2406,-8.2003,-8.2737,-8.1158,-7.7818,-7.3891,-7.0146,-6.6512,0.0,0.0,0.0,0.0,-5.9942,-6.0529,-6.1704,-6.2034,0.0,0.0,0.0,0.0,0.0,0.0,0.0,0.0,0.0,0.0,0.0,0.0,0.0,-6.7744,-6.7282,-6.6474,-6.5513,-6.3281,-5.9896,0.0,-5.1548,-4.8654,-4.5355,0.0,0.0,0.0,0.0,0.0,-5.8858,-6.4205,-6.7744,-6.8205,-6.8975,-6.9013,-6.7782,-6.7321,-6.5513,-6.1793,-6.0012,-5.6857,-5.1741,-4.8394,-4.4586,0.0,0.0,0.0,0.0,0.0,0.0,0.0,0.0,0.0,0.0,0.0,0.0,0.0,0.0,0.0,0.0,0.0,0.0,0.0,0.0,0.0,0.0,0.0,0.0,0.0,0.0,0.0,0.0,-5.0048,-5.4,-5.5318,-5.6242,-5.6742,0.0,0.0,0.0,0.0,0.0,0.0,-6.4236,-6.6269,-6.8506,-7.0998,-7.4404,-7.6937,-7.8552,-8.0791,-8.2517,-8.3728,-8.4535,-8.4903,-8.4939,-8.5747,-8.5783,-8.5233,-8.5233,-8.4646,-8.3324,-7.8259,-7.4478,-7.1541,-6.7504,-6.5925,-6.5852,-6.4971,-6.5228,-6.6072,-6.71,-6.7652,-6.7961,-6.8504,0.0,-6.4249,-6.2109,0.0,0.0,0.0,0.0,-6.2627,-6.4974,-6.7321,-6.9052,-6.9052,-6.9052,-6.8629,-6.7205,-6.6513,-6.4512,0.0,-5.5434,-5.2577,-4.9577,0.0,0.0,0.0,0.0,-5.528,-5.9319,-6.3397,-6.6205,-6.7013,-6.7667,-6.7705,-6.6859,-6.659,-6.5205,-6.2293,-6.105,-5.8588,-5.4357,-5.1318,-4.7625,-4.3192,0.0,0.0,0.0,0.0,0.0,0.0,0.0,0.0,0.0,0.0,0.0,0.0,0.0,0.0,0.0,0.0,0.0,0.0,0.0,0.0,0.0,0.0,0.0,0.0,0.0,0.0,0.0,0.0,0.0,-6.137,-6.2358,0.0,0.0,0.0,0.0,-6.4752,-6.6112,-6.8016,-7.0848,-7.133,-7.2871,-7.586,-7.8315,-8.0314,-8.1929,-8.3581,-8.4462,-8.4535,-8.5343,-8.5747,-8.5747,-8.6591,-8.6921,-8.6885,-8.6885,-8.6004,-8.4278,-8.0938,-7.8516,-7.654,-7.2504,-7.0954,-7.0844,-7.0036,-7.0257,-7.1174,-7.2716,-7.3468,-7.3951,-7.5038,-7.2294,-6.8117,-6.5894,-6.2963,0.0,0.0,-6.4897,-6.6051,-6.7782,-6.9475,-7.0783,-7.0783,-7.0783,-7.0552,-6.9706,-6.8205,-6.5513,0.0,-5.8627,-5.6626,-5.2423,0.0,-5.0664,-5.1615,-5.3933,-5.6819,-6.0281,-6.3743,-6.6205,-6.7013,-6.7128,-6.6821,-6.6013,-6.5205,-6.3974,-6.2216,-6.0512,-5.8742,-5.6885,-5.2818,-4.9394,-4.6692,-4.1662,0.0,0.0,0.0,0.0,0.0,0.0,0.0,0.0,0.0,0.0,0.0,0.0,0.0,0.0,0.0,0.0,0.0,0.0,0.0,0.0,0.0,0.0,0.0,0.0,0.0,0.0,0.0,0.0,-6.6705,-6.9167,0.0,0.0,-6.8821,-6.9159,-7.1691,-7.2756,-7.435,-7.6718,-7.7402,-7.8707,-8.0819,-8.2696,-8.3911,-8.4499,-8.56,-8.6151,-8.6151,-8.6444,-8.6591,-8.6591,-8.6885,-8.6995,-8.6995,-8.6444,-8.5894,-8.5196,-8.303,-8.0865,-7.8662,-7.6136,-7.5145,-7.4999,-7.3707,-7.3707,-7.4404,-7.4441,-7.4683,-7.4968,-7.4934,-7.3292,-7.101,-6.936,-6.7379,-6.6013,-6.7475,-6.8475,-6.9244,-6.986,-7.086,-7.1591,-7.1014,-7.0898,-7.0667,-6.986,-6.8783,-6.709,-6.4166,-6.1627,-5.9242,-5.7165,-5.5665,-5.5049,-5.5895,-5.678,-5.8204,-6.0512,-6.2358,-6.3743,-6.4589,-6.4666,-6.4551,-6.4243,-6.3474,-6.2512,-6.1331,-6.0165,-5.8742,-5.7049,-5.4511,-5.1933,-4.9394,-4.5402,-4.1554,0.0,0.0,0.0,0.0,0.0,0.0,0.0,0.0,0.0,0.0,0.0,0.0,0.0,0.0,0.0,0.0,0.0,0.0,0.0,0.0,0.0,0.0,0.0,0.0,0.0,0.0,-6.8629,-7.1475,-7.4553,-7.6207,-7.5668,-7.4822,-7.5111,-7.697,-7.7889,-7.9139,-8.096,-8.1514,-8.2553,-8.4168,-8.5233,-8.593,-8.6187,-8.6738,-8.6995,-8.6995,-8.6995,-8.6995,-8.6995,-8.6995,-8.6848,-8.6591,-8.604,-8.549,-8.4903,-8.3838,-8.2296,-8.0461,-7.9103,-7.8521,-7.8405,-7.7047,-7.6717,-7.6827,-7.6139,-7.6072,-7.6263,-7.5737,-7.5026,-7.4155,-7.3073,-7.1703,-7.0667,-7.1206,-7.1783,-7.2052,-7.1475,-7.1975,-7.2322,-7.1168,-7.0898,-7.0667,-6.986,-6.9013,-6.7975,-6.659,-6.4012,-6.1627,-6.0204,-5.9011,-5.8357,-5.8665,-5.8704,-5.9319,-6.1012,-6.1755,-6.2397,-6.3205,-6.3308,-6.3089,-6.2512,-6.1973,-6.1062,-5.9588,-5.8704,-5.7588,-5.6214,-5.4511,-5.2702,-5.075,-4.6787,-4.2662,-3.8392,0.0,0.0,0.0,0.0,0.0,0.0,0.0,0.0,0.0,0.0,0.0,0.0,0.0,0.0,0.0,0.0,0.0,0.0,0.0,0.0,0.0,0.0,0.0,-5.9358,-6.6244,-7.2322,-7.5707,-7.84,-7.9977,-7.9977,-7.9246,-7.9259,-8.0544,-8.1338,-8.2297,-8.3536,-8.3508,-8.4205,-8.5783,-8.582,-8.6224,-8.6995,-8.6995,-8.6995,-8.6995,-8.6995,-8.6958,-8.6958,-8.6958,-8.6518,-8.5747,-8.5747,-8.4829,-8.3398,-8.3398,-8.292,-8.2113,-8.1342,-8.1048,-8.0938,-8.0094,-7.925,-7.8504,-7.7961,-7.7997,-7.824,-7.799,-7.7787,-7.7512,-7.6985,-7.5855,-7.4745,-7.4745,-7.4707,-7.4322,-7.2668,-7.286,-7.3053,-7.1321,-7.0898,-7.0667,-6.986,-6.9013,-6.8129,-6.7282,-6.5782,-6.3858,-6.1358,-6.0858,-6.055,-5.9704,-5.955,0.0,-6.1831,-6.2062,-6.2358,-6.3089,-6.3192,-6.2512,-6.0858,-6.0666,-5.9588,-5.7137,-5.6088,-5.5241,-5.4472,-5.2779,-5.1471,-5.0673,-4.574,-4.1085,-3.6846,0.0,0.0,0.0,0.0,0.0,0.0,0.0,0.0,0.0,0.0,0.0,0.0,0.0,0.0,0.0,0.0,0.0,0.0,0.0,0.0,0.0,0.0,-6.1897,-6.3858,-7.0167,-7.563,-7.8438,-8.1554,-8.3747,-8.4324,-8.417,-8.4558,-8.5799,-8.5478,-8.5508,-8.6142,-8.5498,-8.56,-8.6628,-8.6664,-8.6775,-8.6995,-8.6995,-8.6995,-8.6995,-8.6407,-8.6114,-8.6114,-8.5527,-8.5159,-8.4903,-8.4315,-8.3838,-8.3361,-8.2774,-8.2406,-8.2186,-8.1966,-8.1856,-8.1709,-8.0314,-7.8883,-7.7665,-7.7777,-7.8034,-7.8341,-7.811,-7.7889,-7.7588,-7.7109,-7.6325,-7.563,-7.563,-7.5207,-7.4476,-7.3399,-7.286,-7.2283,-7.1168,-7.0898,-7.0667,-6.986,-6.9013,-6.8129,-6.7282,-6.6244,-6.5128,-6.3782,-6.2551,-6.1678,-6.1396,-6.0858,0.0,-6.1089,-6.1166,-6.1012,-6.0589,-6.055,-6.0127,-5.9088,-5.7819,-5.678,-5.6088,-5.4087,-5.3126,-5.3549,-5.1933,-5.0625,-4.9779,-4.6556,-4.3431,0.0,0.0,0.0,0.0,0.0,0.0,0.0,0.0,0.0,0.0,0.0,0.0,0.0,0.0,0.0,0.0,0.0,0.0,0.0,0.0,0.0,0.0,-6.2627,-6.7359,-6.9783,-7.4437,-7.84,-8.0592,-8.3555,-8.5593,-8.6055,-8.644,-8.688,-8.7484,-8.7376,-8.7347,-8.7351,-8.6831,-8.6722,-8.7098,-8.7029,-8.7029,-8.7098,-8.6835,-8.6685,-8.6719,-8.5909,-8.5471,-8.5371,-8.4826,-8.4425,0.0,-8.3618,-8.3214,-8.2847,-8.2039,-8.1709,0.0,0.0,0.0,0.0,0.0,-7.8956,-7.7849,-7.7813,-7.8034,-7.8304,-7.8087,-7.7868,-7.755,-7.7092,-7.6501,-7.6015,-7.6015,-7.5361,-7.4514,-7.3707,-7.286,-7.1975,-7.1091,-7.0898,-7.0591,-6.9398,-6.8783,-6.8052,-6.6821,-6.6205,0.0,-6.5243,-6.3743,-6.2474,-6.2139,-6.1358,-6.0781,-6.0781,-6.0781,-6.0589,-6.0089,-5.9704,-5.9165,-5.8357,-5.7049,0.0,0.0,0.0,-5.25,-5.2654,-5.1395,0.0,0.0,0.0,0.0,0.0,0.0,0.0,0.0,-3.7969,-3.9238,0.0,0.0,0.0,0.0,0.0,0.0,0.0,0.0,0.0,0.0,0.0,0.0,0.0,0.0,0.0,0.0,-6.7475,-7.2476,-7.5707,-7.8515,-8.0785,-8.2285,-8.4593,-8.6132,-8.6247,-8.694,-8.7376,-8.7198,-8.7921,-8.8217,-8.7834,0.0,0.0,0.0,0.0,-8.7061,-8.7191,-8.6652,-8.6306,-8.6227,-8.5414,-8.4917,-8.4723,-8.4452,-8.3948,-8.3287,-8.3287,-8.281,-8.2003,-8.1305,-8.0938,-8.0938,-8.1668,-8.1888,-8.1663,-8.0262,-7.9233,-7.8486,-7.8071,0.0,0.0,-7.8087,-7.7851,-7.7549,-7.702,-7.6447,-7.5976,-7.5861,-7.5245,-7.4399,-7.3553,-7.2706,-7.186,-7.1091,-7.0898,-7.0437,-6.8783,-6.8385,-6.7898,-6.6244,-6.5897,-6.5897,-6.5897,-6.4436,-6.3051,-6.232,-6.1396,-6.0781,-6.0781,-6.0781,-6.0742,-6.0666,0.0,0.0,-5.8204,-5.728,-5.5742,-5.351,-5.3241,-5.2818,-5.1923,-5.1318,-5.0943,-5.0827,-4.9317,-4.774,-4.6172,-4.6287,-4.6326,-4.6249,-4.3701,-4.3816,0.0,0.0,0.0,0.0,0.0,0.0,0.0,0.0,0.0,0.0,0.0,0.0,0.0,0.0,0.0,-6.4397,-7.0129,-7.4707,-7.6746,-8.04,-8.2978,-8.3324,-8.4978,-8.6363,-8.7094,-8.7286,-8.7854,-8.8979,-8.8888,-8.8866,-8.9137,-8.8417,0.0,-8.7623,-8.7234,-8.6838,-8.6509,-8.6629,-8.6399,-8.5804,0.0,0.0,-8.4188,-8.3116,-8.259,-8.2443,-8.2443,-8.1966,-8.1232,-8.1048,-8.0608,-8.0052,-8.0294,-8.0118,-7.9577,-7.9394,-7.8883,-7.8313,-7.8538,-7.8803,-7.9,-7.8701,-7.8294,-7.7785,-7.7204,-7.654,0.0,-7.5168,-7.4361,-7.3553,-7.2668,-7.1783,-7.1091,-7.0937,-7.0898,-7.0437,-6.8783,-6.8385,-6.7898,-6.6244,-6.5897,-6.5897,-6.5897,-6.4436,-6.3231,-6.3089,-6.1781,-6.0781,-6.0781,-6.0781,-6.0512,-5.9819,-5.9011,-5.8165,-5.733,-5.5857,-5.478,-5.428,-5.3587,-5.2818,-5.1923,-5.2433,-5.2395,-5.1692,-5.1346,-5.0702,-4.9711,-5.0356,-5.0692,-5.0615,-4.8086,-4.7894,0.0,0.0,0.0,0.0,0.0,0.0,0.0,0.0,0.0,0.0,0.0,-5.1741,-5.5088,0.0,-6.4436,-6.7859,-7.2668,-7.6438,-7.7707,-8.0823,-8.3093,-8.3555,-8.5093,-8.6286,-8.6709,-8.7132,-8.7697,-8.8344,-8.8862,-8.9141,-8.9152,-8.8797,-8.8284,-8.7585,-8.7127,-8.6693,-8.6243,-8.6105,-8.5919,-8.5664,-8.471,-8.4143,-8.3868,-8.3022,-8.2659,-8.2622,-8.2216,-8.1846,-8.1372,-8.056,-7.9741,-7.9032,-7.9286,-7.9334,-7.9269,-7.9465,-7.9178,-7.8741,-7.9061,-7.9426,-7.9507,-7.8656,-7.8321,-7.8036,-7.6886,-7.6293,-7.5822,-7.4938,-7.413,-7.3322,-7.2437,-7.1552,-7.0898,-7.0898,-7.0898,-7.0437,-6.8783,-6.8385,-6.7898,-6.6244,-6.5897,-6.5897,-6.5897,-6.4436,-6.3308,-6.3308,-6.1858,-6.0781,-6.0781,-6.0781,-6.0627,-6.0204,-5.9396,-5.855,-5.7703,-5.5703,-5.4511,-5.4511,-5.3664,-5.3203,-5.3203,-5.3203,-5.3203,-5.3203,-5.2779,-5.2356,-5.1933,-5.2356,-5.2769,-5.3164,-5.2318,-5.2356,0.0,0.0,0.0,0.0,0.0,0.0,0.0,0.0,-4.6163,-5.0087,-5.3587,-5.6896,-5.9935,-6.4512,-6.8552,-7.0783,-7.4745,-7.7746,-7.8415,-8.0669,-8.2554,-8.3247,-8.4824,-8.5863,-8.5863,-8.6632,-8.7175,-8.7222,-8.8327,-8.8919,-8.87,-8.8756,-8.8376,-8.7404,-8.6955,-8.6553,-8.6148,-8.5687,-8.5511,-8.5521,-8.4668,-8.4155,-8.3911,-8.3517,-8.3292,-8.3255,-8.2286,-8.1774,-8.1476,-7.9985,-7.8969,-7.8427,-7.8816,-7.9241,-7.9664,-7.9792,-7.9674,-7.9418,-7.9675,-7.9832,-7.9743,-7.8491,-7.8151,-7.7977,-7.6476,-7.5861,-7.5553,-7.4707,-7.3899,-7.3053,-7.2168,-7.1437,-7.0898,-7.0898,-7.0783,-7.0244,-6.8744,-6.8282,-6.7705,-6.6205,-6.5897,-6.5897,-6.5897,-6.4436,-6.3308,-6.3308,-6.1858,-6.0781,-6.0781,-6.0781,-6.0781,-6.0781,-6.0012,-5.9127,-5.8127,-5.6011,-5.4741,-5.4741,-5.4087,-5.4087,-5.4934,-5.4318,-5.428,-5.4972,-5.4318,-5.3857,-5.3703,-5.3857,-5.4318,-5.5011,-5.5818,-5.6088,-4.0785,-4.2362,-4.4979,-4.5932,-4.7317,-4.8663,0.0,0.0,-5.2856,-5.5577,-5.8858,-6.182,-6.3705,-6.7552,-7.0821,-7.186,-7.5592,-7.84,-7.8477,-8.0669,-8.2324,-8.2439,-8.3978,-8.5016,-8.5016,-8.5786,-8.6555,-8.7308,-8.7521,-8.784,-8.8328,-8.7968,-8.7626,-8.7336,-8.6845,-8.6354,-8.5858,-8.6054,-8.5909,-8.5321,-8.5093,-8.4888,-8.4681,-8.4265,-8.4092,-8.3979,-8.2434,-8.128,-8.0502,-7.9585,-7.9194,-7.9105,-7.9396,-7.9735,-8.002,-7.9822,-7.9827,-8.004,-8.0258,-7.9895,-7.9295,-7.8563,-7.7923,-7.7246,-7.6284,-7.5476,-7.4668,-7.386,-7.3014,-7.2129,-7.1283,-7.0975,-7.0898,-7.0898,-7.036,-6.959,-6.8629,-6.7782,-6.6974,-6.609,-6.5897,-6.5897,-6.5897,-6.4436,-6.3308,-6.3308,-6.1858,-6.0781,-6.0781,-6.0781,-6.0781,-6.0781,-6.0012,-5.8858,-5.7291,-5.6165,-5.5549,-5.5549,-5.5472,-5.5818,-5.6676,-5.6637,-5.6637,-5.6714,-5.6637,-5.6214,-5.5434,-5.6214,-5.6637,-5.6753,-5.7627,-5.7588,-4.4509,-4.6701,-4.9586,0.0,-5.2587,-5.4164,-5.5511,-5.6742,-5.8357,-6.0896,-6.3743,-6.6128,-6.7359,-7.0206,-7.2552,0.0,-7.5668,-7.7784,-7.7784,-7.9131,-8.0092,-8.0092,-8.1631,-8.3285,-8.4747,-8.5209,-8.5747,-8.6594,-8.7094,-8.7504,-8.7671,-8.781,-8.759,-8.6985,-8.6601,-8.6161,-8.5643,-8.5813,-8.578,-8.559,-8.5456,-8.5337,-8.5211,-8.4876,-8.4211,-8.3202,-8.1989,-8.1003,-8.0206,-7.9865,-7.9735,-7.9756,-7.9964,-8.0201,-8.0391,-8.0278,-8.043,-8.0626,-8.0196,-7.9862,-7.9396,-7.8169,-7.7562,-7.713,-7.6245,-7.5399,-7.4553,-7.3745,-7.286,-7.2014,-7.1129,-7.0898,-7.0898,-7.0898,-7.0283,-6.9475,-6.859,-6.7705,-6.6859,-6.6051,-6.5897,-6.5897,-6.5897,-6.4436,-6.3308,-6.3308,-6.1858,-6.0781,-6.0781,-6.0781,-6.0781,-6.0781,-5.9588,-5.8511,-5.7819,-5.6472,-5.5703,-5.5703,-5.6175,-5.6637,-5.6983,-5.7473,-5.7742,-5.7742,-5.7742,-5.7588,-5.7203,-5.7588,-5.7742,-5.778,-5.8627,-5.8819,-4.7778,-5.0394,0.0,-5.4818,-5.683,-5.8715,-5.9935,-6.0896,-6.2089,-6.4166,-6.6436,-6.8244,-6.8859,-7.1091,-7.286,-7.3091,-7.5284,-7.7015,-7.7246,-7.7977,-7.8477,-7.8477,-7.9592,-8.1285,-8.3632,-8.4478,-8.5132,-8.5747,-8.6555,-8.6983,-8.6915,-8.7309,-8.7236,-8.6566,-8.6334,-8.6046,-8.5686,-8.5722,-8.5795,-8.5887,-8.5777,-8.5722,-8.5628,-8.5225,-8.423,-8.2817,-8.1939,-8.1137,-8.0373,-8.0373,-8.0373,-8.0392,-8.054,-8.0629,-8.0698,-8.0451,-8.0548,-8.0669,-8.0015,-7.9515,-7.89,-7.7669,-7.713,-7.6823,-7.6207,-7.5245,-7.4245,-7.3654,-7.2706,-7.1706,-7.1052,-7.0898,-7.0898,-7.0898,-7.009,-6.9167,-6.8552,-6.7552,-6.659,-6.6013,-6.5897,-6.582,-6.559,-6.432,-6.3243,-6.3012,-6.1743,-6.0781,-6.0781,-6.0781,-6.0704,-6.0473,-5.9165,-5.8204,-5.7973,-5.6549,-5.5703,-5.5703,-5.6522,-5.7099,-5.7368,-5.8165,-5.8627,-5.8627,-5.8627,-5.8511,-5.8319,-5.8511,-5.8627,-5.8665,-5.9473,-5.9858,-4.9894,0.0,-5.578,-5.6714,-5.9446,-6.1947,-6.2024,-6.2666,-6.3512,-6.4397,-6.5936,-6.7128,-6.7167,-6.9244,-7.1245,-7.2091,-7.4361,-7.6322,-7.7169,-7.7977,-7.8477,-7.8477,-7.8554,-7.9246,0.0,-8.3439,-8.4901,-8.4939,-8.567,-8.6132,-8.6132,-8.6154,-8.6154,-8.6115,-8.6099,-8.6099,-8.6077,-8.6077,-8.6077,-8.6077,-8.6077,-8.6077,-8.6077,-8.5253,-8.4407,-8.3538,-8.2654,-8.1808,-8.1077,-8.1077,-8.1077,-8.1077,-8.1077,-8.1077,-8.0962,-8.0154,-7.9808,-7.9862,-7.9823,-7.8746,-7.7361,-7.7323,-7.6746,-7.6015,-7.6015,-7.4861,-7.3538,-7.3514,-7.2245,-7.0937,-7.0898,-7.0898,-7.0898,-7.0898,-6.9629,-6.8436,-6.8398,-6.709,-6.5936,-6.5897,-6.5897,-6.5628,-6.4782,-6.3897,-6.3051,-6.2255,-6.1358,-6.0781,-6.0781,-6.0781,-6.0473,-5.9627,-5.8819,-5.7973,-5.7099,-5.6214,-5.5703,-5.5703,-5.6522,-5.7357,-5.8242,-5.905,-5.9473,-5.9473,-5.9473,-5.9088,-5.8319,-5.9088,-5.9473,-5.9473,-6.0358,-6.0742,-5.1664,0.0,-5.7896,-5.9908,-6.2524,-6.4628,-6.4628,-6.5705,-6.6474,-6.5628,-6.5897,-6.6282,-6.6282,-6.7436,-6.8859,-7.0321,-7.2668,-7.463,-7.5476,-7.6322,-7.6823,-7.6823,-7.7361,0.0,0.0,0.0,0.0,-8.3939,-8.4824,-8.5286,-8.5286,-8.5824,-8.6094,-8.6094,-8.6094,-8.6094,-8.6094,-8.6094,-8.6094,-8.6094,-8.5555,-8.5016,-8.4401,-8.3555,-8.3016,-8.267,-8.1862,-8.1362,-8.1093,-8.1093,-8.1093,-8.1093,-8.1093,-8.0746,-8.0208,-7.99,-7.9092,-7.813,-7.813,-7.7784,-7.7207,-7.663,-7.6245,-7.5899,-7.5322,-7.4361,-7.3399,-7.2783,-7.1783,-7.0898,-7.0898,-7.0898,-7.0783,-7.0244,-6.9244,-6.8244,-6.7667,-6.6667,-6.5897,-6.5897,-6.5897,-6.5628,-6.4743,-6.3897,-6.282,-6.1435,-6.0973,-6.0781,-6.0781,-6.0781,-6.0704,-6.0396,-5.9127,-5.8165,-5.7896,-5.6511,-5.5934,-5.6522,-5.7396,-5.8242,-5.905,-5.9896,-6.0358,-6.0358,-6.0358,-6.0242,-5.9973,-6.0242,-6.0358,-6.0358,-6.0666,-6.0781,-5.3857,-5.7049,-6.0127,-6.205,-6.4243,-6.5897,-6.5897,-6.6474,-6.6667,-6.5243,-6.4474,-6.4089,-6.4089,-6.4974,-6.6397,-6.8436,-7.1168,-7.3437,-7.4553,-7.5438,-7.6015,-7.6015,-7.6476,0.0,0.0,0.0,0.0,-8.2554,-8.4055,-8.4901,-8.4901,-8.567,-8.6094,-8.6094,-8.6094,-8.6094,-8.6094,-8.6094,-8.5978,-8.567,-8.4824,-8.4132,-8.3555,-8.2708,-8.2285,-8.2247,-8.1439,-8.1093,-8.1093,-8.1093,-8.1093,-8.1054,-8.0746,-8.0285,-7.9746,-7.9131,-7.8207,-7.7284,-7.7284,-7.7092,-7.6746,-7.6169,-7.5784,-7.5438,-7.4861,-7.3937,-7.2937,-7.236,-7.1552,-7.0898,-7.0898,-7.0898,-7.0706,-6.9898,-6.9052,-6.8167,-6.7282,-6.6474,-6.5897,-6.5897,-6.5897,-6.5628,-6.4743,-6.3628,-6.2397,-6.1012,-6.0781,-6.0781,-6.0781,-6.0781,-6.0666,-6.0358,-5.9358,-5.8473,-5.7896,-5.7088,-5.6742,-5.6983,-5.8088,-5.8973,-5.9473,-6.0319,-6.0781,-6.0781,-6.0781,-6.0781,-6.0781,-6.0781,-6.0781,-6.0781,-6.0781,-6.0781,-5.6483,-5.9677,-6.2409,-6.3243,-6.4705,-6.5936,-6.5859,-6.5205,-6.432,-6.3308,-6.1704,-6.0473,0.0,0.0,-6.3782,-6.6474,-6.9821,-7.2668,-7.4399,-7.5438,-7.6015,0.0,0.0,0.0,0.0,0.0,0.0,-8.0785,0.0,-8.4709,-8.4747,-8.5517,-8.5978,-8.5978,-8.5978,-8.5978,-8.5978,-8.5978,-8.5555,-8.4747,-8.3939,-8.3516,-8.3439,-8.2631,-8.2247,-8.2208,-8.1439,-8.1093,-8.1093,-8.1093,-8.1054,-8.0939,-8.0131,-7.9746,-7.9477,-7.79,-7.7284,-7.7207,-7.7207,-7.6669,-7.5976,-7.5938,-7.5361,-7.4668,-7.4591,-7.3476,-7.2168,-7.2129,-7.1552,-7.0898,-7.0898,-7.0898,-7.0706,-6.986,-6.9013,-6.8167,-6.7244,-6.6436,-6.5897,-6.5897,-6.5859,-6.5551,-6.4743,-6.3205,-6.1831,-6.0973,-6.0819,-6.0781,-6.0781,-6.0781,-6.0473,-5.9665,-5.9511,-5.8858,-5.7253,-5.7857,-5.7973,-5.7176,-5.8627,-5.9511,-5.955,-6.0358,-6.0781,-6.0781,-6.0781,-6.0781,-6.0781,-6.0781,-6.0781,-6.0781,-6.0781,-6.0781,-5.8973,-6.1858,-6.4166,-6.5013,-6.6013,-6.6474,-6.5205,-6.4743,-6.382,-6.105,-5.8127,-5.628,0.0,0.0,0.0,-6.3551,-6.7667,0.0,-7.3476,-7.5053,0.0,-7.6015,0.0,-7.6092,-7.6322,-7.6899,0.0,0.0,-8.0977,-8.2324,-8.2939,-8.3785,-8.4247,-8.4247,-8.4247,-8.4247,-8.4247,-8.4247,-8.3824,-8.2978,-8.2747,-8.2324,-8.1747,-8.1516,-8.14,-8.14,-8.1208,-8.1093,-8.1093,-8.1093,-8.0708,-8.0131,-7.99,-7.9054,-7.79,-7.7438,-7.6899,-7.6322,-7.6322,-7.6207,-7.5899,-7.5245,-7.4899,-7.4476,-7.3206,-7.2552,-7.2052,-7.1398,-7.1052,-7.0898,-7.0898,-7.0898,-7.0514,-6.909,-6.8552,-6.8013,-6.6513,-6.6051,-6.5897,-6.5897,-6.5397,-6.4859,-6.4628,-6.3205,-6.2024,-6.1793,-6.1216,-6.0781,-6.0781,-6.0781,-6.0704,-6.0473,-5.9896,-5.9319,-5.8896,-5.8511,-5.8473,-5.8858,-5.9242,-5.9781,-6.0435,-6.0666,-6.0781,-6.0781,-6.0781,-6.0781,-6.0781,-6.0781,-6.0781,-6.0781,-6.0781,-6.0781,-6.1166,-6.3512,-6.5282,-6.5782,-6.5936,-6.5667,-6.432,-6.2897,-6.0973,-5.7934,-5.4626,0.0,-5.2856,0.0,0.0,0.0,0.0,0.0,-7.2514,-7.4361,-7.5553,0.0,-7.6015,0.0,-7.6515,-7.7015,-7.7784,0.0,-8.0323,-8.1439,-8.2247,-8.3131,-8.3593,-8.3593,-8.3593,-8.3593,-8.3593,-8.3208,-8.2785,-8.2285,-8.1939,-8.1554,-8.1093,-8.1093,-8.1093,-8.1093,0.0,-8.1093,-8.1093,-8.1093,-8.0592,-7.9746,-7.9361,-7.8438,-7.7246,-7.6861,-7.6399,-7.6015,-7.6015,-7.6015,-7.5861,-7.4976,-7.4476,-7.3937,-7.2591,-7.1937,-7.1514,-7.1052,-7.0898,-7.0898,-7.0898,-7.0898,-7.0475,-6.8821,-6.8385,-6.7936,-6.6244,-6.5897,-6.5897,-6.5897,-6.5513,-6.5051,-6.4666,-6.382,-6.2935,-6.2216,-6.1678,-6.1243,-6.0858,-6.0781,-6.0781,-6.0781,-6.0358,-5.9935,-5.955,-5.9435,-5.9435,-5.9511,-5.9858,-6.0281,-6.0781,-6.0781,-6.0781,-6.0781,-6.0781,-6.0781,-6.0781,-6.0781,-6.0781,-6.0781,-6.0781,-6.0781,-6.3012,-6.4743,-6.6013,-6.5936,-6.5243,-6.4282,-6.3089,-6.0127,-5.6857,-5.4203,0.0,-4.8471,-4.8663,-5.0702,-5.3818,-5.828,0.0,-6.7975,-7.1398,-7.3514,-7.4976,-7.5745,-7.6015,-7.6476,-7.7207,-7.74,-7.8092,-7.9669,-8.0516,-8.1285,-8.2093,-8.2862,-8.3247,-8.3247,-8.3247,-8.3247,-8.3247,-8.2516,-8.2131,-8.2131,-8.1439,-8.1093,-8.1093,-8.1093,-8.1093,-8.1093,0.0,0.0,-8.1093,-8.0977,-8.04,-7.9554,-7.8669,-7.7823,-7.7053,-7.6284,-7.6015,-7.6015,-7.6015,-7.6015,-7.5822,-7.4861,-7.4091,-7.3322,-7.2322,-7.1514,-7.0898,-7.0898,-7.0898,-7.0898,-7.0898,-7.0898,-7.0475,-6.8821,-6.8385,-6.7936,-6.6244,-6.5897,-6.5897,-6.5897,-6.5897,-6.5667,-6.4897,-6.4666,-6.4128,-6.2639,-6.2332,-6.1935,-6.1089,-6.0858,-6.0781,-6.0781,-6.0781,-6.0473,-5.9742,-6.0358,-6.0473,-5.9704,-6.0396,-6.0781,-6.0781,-6.0781,-6.0781,-6.0781,-6.0781,-6.0781,-6.0781,-6.0781,-6.0781,-6.0781,-6.0781,-6.0781,-6.3935,-6.559,-6.6744,-6.6051,-6.5243,-6.382,-6.0858,-5.7011,0.0,0.0,-4.597,-4.3547,-4.4932,-4.674,-4.9817,-5.5434,0.0,0.0,0.0,0.0,-7.4784,0.0,0.0,0.0,0.0,0.0,0.0,0.0,0.0,0.0,-8.1246,-8.1439,-8.1516,-8.1516,-8.1516,-8.1516,-8.1516,-8.1362,-8.1323,-8.1323,-8.117,-8.1093,-8.1093,-8.1093,-8.1093,-8.1093,0.0,0.0,-8.1054,-8.0323,-7.9515,-7.8631,-7.7823,-7.6976,-7.6207,-7.6053,-7.6015,-7.6015,-7.6015,-7.6015,-7.5745,-7.4207,-7.363,-7.3206,-7.1629,-7.1014,-7.0898,-7.0898,-7.0898,-7.0898,-7.0898,-7.0898,-7.0475,-6.8821,-6.8385,-6.7936,-6.6244,-6.5897,-6.5897,-6.5897,-6.5897,-6.5859,-6.5705,-6.5089,-6.4512,-6.4205,-6.3551,-6.282,-6.1985,-6.1243,-6.0781,-6.0781,-6.0781,-6.0742,-6.0589,-6.0704,-6.0742,-6.0589,-6.0704,-6.0781,-6.0781,-6.0781,-6.0781,-6.0781,-6.0781,-6.0781,-6.0781,-6.0781,-6.0781,-6.0781,-6.0781,-6.0781,-6.532,-6.6474,-6.6898,-6.609,-6.4897,-6.2935,-5.905,0.0,0.0,0.0,-4.3124,-4.0854,-4.2093,0.0,0.0,0.0,0.0,0.0,0.0,0.0,0.0,0.0,0.0,0.0,0.0,0.0,0.0,0.0,0.0,0.0,-8.1093,-8.1093,-8.1093,-8.1093,-8.1093,-8.1093,-8.1093,-8.1093,-8.1093,-8.1093,-8.1093,-8.1093,-8.1093,-8.1093,-8.1093,-8.1093,-8.1093,0.0,-8.1016,-8.0169,-7.9285,-7.84,-7.7592,-7.6784,-7.6015,-7.6015,-7.6015,-7.6015,-7.6015,-7.6015,-7.5707,-7.4053,-7.3514,-7.3168,-7.1437,-7.0898,-7.0898,-7.0898,-7.0898,-7.0898,-7.0898,-7.0898,-7.0591,-6.936,-6.8398,-6.7398,-6.6167,-6.5897,-6.5897,-6.5897,-6.5897,-6.5897,-6.5897,-6.5551,-6.5128,-6.4666,-6.4243,-6.3512,-6.2255,-6.1755,-6.1281,-6.0858,-6.0781,-6.0781,-6.0781,-6.0781,-6.0781,-6.0781,-6.0781,-6.0781,-6.0781,-6.0781,-6.0781,-6.0781,-6.0781,-6.0781,-6.0781,-6.0781,-6.0781,-6.0819,-6.1281,-6.1485,-6.6474,-6.7359,-6.7359,-6.6205,-6.4474,-6.1897,-5.7484,-5.2241,0.0,0.0,-4.0816,-3.8738,-3.9554,0.0,-4.3893,0.0,0.0,0.0,0.0,0.0,0.0,0.0,0.0,0.0,0.0,0.0,0.0,0.0,0.0,0.0,-8.1093,-8.1093,-8.1093,-8.1093,-8.1093,-8.1093,-8.1093,-8.1093,-8.1093,-8.1093,-8.1093,-8.1093,-8.1093,-8.1093,-8.1093,-8.1093,-8.1093,0.0,0.0,-7.99,-7.9015,-7.8169,-7.7323,-7.6592,-7.6015,-7.6015,-7.6015,-7.6015,-7.6015,-7.6015,-7.5707,-7.4053,-7.3514,-7.3168,-7.1437,-7.0898,-7.0898,-7.0898,-7.0898,-7.0898,-7.0898,-7.0898,-7.0667,-6.9667,-6.8244,-6.6859,-6.6051,-6.5897,-6.5897,-6.5897,-6.5897,-6.5897,-6.5897,-6.5897,-6.5667,-6.4974,-6.4897,-6.4282,-6.2551,-6.237,-6.1973,-6.0896,-6.0781,-6.0781,-6.0781,-6.0781,-6.0781,-6.0781,-6.0781,-6.0781,-6.0781,-6.0781,-6.0896,-6.105,-6.1089,-6.1166,-6.1358,-6.1358,-6.1358,-6.1358,-6.205,-6.237,-6.6628,-6.8244,-6.8898,-6.6513,-6.4051,-6.0908,-5.5857,0.0,0.0,-4.1401,-3.8161,-3.6115,-3.6885,-3.8469,-4.1054,-4.5364,-5.0279,-5.5357,0.0,0.0,0.0,0.0,0.0,0.0,0.0,0.0,0.0,0.0,0.0,0.0,0.0,-8.1093,-8.1093,-8.1093,-8.1093,-8.1093,-8.1093,-8.1093,-8.1093,-8.1093,-8.1093,-8.1093,-8.1093,-8.1093,-8.1093,-8.1093,-8.1093,0.0,0.0,-7.8977,-7.813,-7.7323,-7.6476,-7.6053,-7.6015,-7.6015,-7.6015,-7.6015,-7.6015,-7.6015,-7.5707,-7.4053,-7.3514,-7.3168,-7.1437,-7.0898,-7.0898,-7.0898,-7.0898,-7.0898,-7.0898,-7.0898,-7.0514,-6.8898,-6.7782,-6.6859,-6.6051,-6.5897,-6.5897,-6.5897,-6.5897,-6.5897,-6.5897,-6.5897,-6.5859,-6.5782,-6.5782,-6.5166,-6.3397,-6.3205,-6.2589,-6.0973,-6.0781,-6.0781,-6.0781,-6.0781,-6.0781,-6.0781,-6.0781,-6.0781,-6.0781,-6.0781,-6.1166,-6.1985,-6.1985,-6.232,-6.3089,-6.3089,-6.3089,-6.3089,-6.3166,-6.3205,-6.5628,-6.7244,-6.7667,-6.5628,-6.3205,-5.9973,-5.4895,0.0,-4.3585,-4.1016,-3.7815,-3.5731,-3.6538,-3.77,-3.9738,-4.347,-4.7509,-5.2087,-5.7742,0.0,0.0,0.0,0.0,0.0,0.0,0.0,0.0,0.0,0.0,0.0,0.0,-8.1093,-8.1093,-8.1093,-8.1093,-8.1093,-8.1093,-8.1093,-8.1093,-8.1093,-8.1093,-8.1093,-8.1093,-8.0554,-8.0323,-8.0285,-7.9746,0.0,0.0,-7.813,-7.7592,-7.7207,-7.6322,-7.6015,-7.6015,-7.6015,-7.6015,-7.6015,-7.6015,-7.6015,-7.5707,-7.4053,-7.3514,-7.3168,-7.1437,-7.0898,-7.0898,-7.0898,-7.0898,-7.0898,-7.0898,-7.0898,-7.0475,-6.8821,-6.8129,-6.7513,-6.6205,-6.5897,-6.5897,-6.5897,-6.5897,-6.5897,-6.5897,-6.5897,-6.5897,-6.5897,-6.5897,-6.5282,-6.3512,-6.3308,-6.2666,-6.0973,-6.0781,-6.0781,-6.0781,-6.0781,-6.0781,-6.0781,-6.0781,-6.0781,-6.0781,-6.1281,-6.1755,-6.2101,-6.2589,-6.2974,-6.3308,-6.3308,-6.3308,-6.3308,-6.3858,-6.4089,-6.4282,-6.609,-6.6628,-6.4705,-6.2127,-5.8742,0.0,-4.7855,-4.2893,-4.0631,-3.7661,-3.5654,-3.6231,-3.7046,-3.8584,-4.1508,-4.4778,-4.8894,-5.4357,0.0,0.0,0.0,0.0,0.0,0.0,0.0,0.0,0.0,0.0,0.0,0.0,-8.0477,-8.0554,-8.1093,-8.1093,-8.1093,-8.1093,-8.1093,-8.0977,-8.0708,-8.0708,-8.0592,-8.0323,-7.9708,-7.9438,-7.9361,0.0,0.0,0.0,-7.7515,-7.713,-7.6861,-7.6245,-7.6015,-7.6015,-7.6015,-7.6015,-7.6015,-7.6015,-7.5822,-7.5399,-7.3976,-7.3322,-7.286,-7.136,-7.0898,-7.0898,-7.0898,-7.0898,-7.0898,-7.0898,-7.0706,-7.0167,-6.8744,-6.8205,-6.7628,-6.6205,-6.5897,-6.5897,-6.5897,-6.5897,-6.5897,-6.5897,-6.5897,-6.5897,-6.5897,-6.5897,-6.5282,-6.3512,-6.3308,-6.2666,-6.0973,-6.0781,-6.0781,-6.0781,-6.0781,-6.0781,-6.0781,-6.105,-6.1166,-6.1166,-6.2012,-6.2589,-6.282,-6.3397,-6.382,-6.4089,-6.4089,-6.4089,-6.4089,-6.4705,-6.4974,-6.2615,-6.5166,-6.6474,-6.3935,-6.0819,-5.7011,0.0,-4.6124,-4.1354,-3.9662,-3.7276,-3.55,-3.55,-3.6154,-3.7276,-3.9053,-4.2162,-4.5855,-5.0173,0.0,0.0,0.0,0.0,0.0,0.0,0.0,0.0,0.0,0.0,0.0,0.0,-7.9015,-7.9323,-8.1054,-8.1093,-8.1093,-8.1093,-8.1093,-8.0669,-7.9823,-7.9823,-7.9361,-7.8515,-7.853,-7.8515,0.0,0.0,0.0,0.0,-7.7284,-7.6784,-7.6015,-7.6015,-7.6015,-7.6015,-7.6015,-7.6015,-7.6015,-7.6015,-7.5438,-7.4591,-7.3783,-7.2937,-7.2052,-7.1168,-7.0898,-7.0898,-7.0898,-7.0898,-7.0898,-7.0898,-7.0321,-6.9475,-6.8629,-6.7744,-6.6898,-6.609,-6.5897,-6.5897,-6.5897,-6.5897,-6.5897,-6.5897,-6.5897,-6.5897,-6.5897,-6.5897,-6.5282,-6.3512,-6.3308,-6.2666,-6.0973,-6.0781,-6.0781,-6.0781,-6.0781,-6.0781,-6.0781,-6.1601,-6.2101,-6.2101,-6.2858,-6.3705,-6.4551,-6.4589,-6.5013,-6.5859,-6.5859,-6.5859,-6.5859,-6.5859,-6.5897,-5.8127,-6.0435,-6.1589,-6.0242,-5.778,-5.4664,-5.0702,-4.5663,-4.1316,-3.9669,-3.7276,-3.55,-3.55,-3.6654,-3.7969,-3.913,-4.2124,-4.5778,0.0,0.0,0.0,0.0,0.0,0.0,0.0,0.0,0.0,0.0,0.0,0.0,0.0,-7.8631,-7.8746,-7.9323,-7.9323,-7.9323,-7.9323,-7.9323,-7.9169,-7.89,-7.89,-7.8746,-7.8477,-7.7938,0.0,0.0,0.0,0.0,0.0,-7.6399,-7.6245,-7.6015,-7.6015,-7.6015,-7.6015,-7.6015,-7.6015,-7.5899,-7.5322,-7.4938,-7.4476,-7.3053,-7.2399,-7.2052,-7.1168,-7.0898,-7.0898,-7.0898,-7.0898,-7.0898,-7.0898,-7.0283,-6.9475,-6.8629,-6.7744,-6.6859,-6.6051,-6.5897,-6.5897,-6.5897,-6.5897,-6.5897,-6.5897,-6.5897,-6.5897,-6.5897,-6.5897,-6.5474,-6.4359,-6.4205,-6.3782,-6.2627,-6.2512,-6.205,-6.0896,-6.137,-6.1678,-6.1678,-6.2474,-6.2935,-6.2935,-6.3743,-6.432,-6.4589,-6.5205,-6.5628,-6.5897,-6.5897,-6.5897,-6.5897,-6.5897,-6.5897,-5.3444,-5.6088,-5.7357,-5.6165,-5.4203,-5.1664,-4.824,-4.4047,-4.0469,-3.9084,-3.7046,-3.55,-3.55,-3.6615,-3.7777,-3.8661,-4.1354,-4.4855,0.0,0.0,0.0,0.0,0.0,0.0,0.0,0.0,0.0,0.0,0.0,0.0,0.0,0.0,-7.7553,-7.7553,-7.8169,-7.8477,-7.8477,-7.8477,-7.8376,-7.8054,-7.8054,-7.7861,-7.7553,-7.7053,0.0,0.0,0.0,0.0,0.0,-7.6015,-7.6015,-7.6015,-7.6015,-7.6015,-7.6015,-7.6015,-7.6015,-7.5861,-7.5014,-7.4514,-7.4014,-7.2629,-7.1975,-7.1591,-7.1052,-7.0898,-7.0898,-7.0898,-7.0898,-7.0898,-7.0898,-7.0052,-6.909,-6.8552,-6.7513,-6.6513,-6.6013,-6.5897,-6.5897,-6.5897,-6.5897,-6.5897,-6.5897,-6.5897,-6.5897,-6.5897,-6.5897,-6.559,-6.4705,-6.4589,-6.4282,-6.3397,-6.3308,-6.2897,-6.182,-6.2243,-6.2551,-6.2551,-6.332,-6.3782,-6.3782,-6.4628,-6.5089,-6.5089,-6.5628,-6.5897,-6.5897,-6.5897,-6.5897,-6.5897,-6.5897,-6.5897,0.0,-5.1972,-5.3664,-5.2038,-5.0433,-4.8317,-4.4893,-4.1623,0.0,-3.8084,-3.6615,-3.5538,-3.5577,-3.6231,-3.7084,-3.8046,-4.0315,0.0,0.0,0.0,0.0,0.0,0.0,0.0,0.0,0.0,0.0,0.0,0.0,0.0,0.0,0.0,-7.6015,-7.6015,-7.7515,-7.8323,-7.8323,-7.8323,-7.7938,-7.7207,-7.7207,-7.6784,-7.6015,-7.6015,0.0,0.0,0.0,0.0,0.0,-7.6015,-7.6015,-7.6015,-7.6015,-7.6015,-7.6015,-7.6015,-7.6015,-7.5861,-7.4938,-7.413,-7.336,-7.2399,-7.1552,-7.0898,-7.0898,-7.0898,-7.0898,-7.0898,-7.0898,-7.0898,-7.0898,-6.9706,-6.8475,-6.8398,-6.7167,-6.5974,-6.5897,-6.5897,-6.5897,-6.5897,-6.5897,-6.5897,-6.5897,-6.5897,-6.5897,-6.5897,-6.5897,-6.559,-6.4782,-6.4705,-6.4397,-6.3589,-6.3462,-6.3462,-6.3462,-6.3435,-6.3397,-6.3397,-6.4205,-6.4705,-6.4705,-6.5474,-6.5897,-6.5897,-6.5897,-6.5897,-6.5897,-6.5897,-6.5897,-6.5897,-6.5897,-6.5897,-4.217,0.0,-4.951,-4.9086,-4.824,-4.6586,0.0,-4.0777,-3.8854,-3.7315,-3.6192,-3.5692,-3.6308,-3.7123,-3.8161,-3.9669,-4.2047,0.0,0.0,0.0,0.0,0.0,0.0,0.0,0.0,0.0,0.0,0.0,0.0,0.0,0.0,0.0,-7.6015,-7.6015,-7.6361,-7.6592,-7.6592,-7.6592,-7.6476,-7.6322,-7.6322,-7.6207,-7.6015,-7.6015,0.0,0.0,0.0,0.0,-7.6015,-7.6015,-7.6015,-7.6015,-7.6015,-7.6015,-7.6015,-7.6015,-7.6015,-7.5784,-7.4322,-7.3654,-7.3245,-7.1706,-7.1052,-7.0898,-7.0898,-7.0898,-7.0898,-7.0898,-7.0898,-7.0898,-7.0898,-7.0167,-6.9244,-6.8552,-6.759,-6.6628,-6.6013,-6.5897,-6.5897,-6.5897,-6.5897,-6.5897,-6.5897,-6.5897,-6.5897,-6.5897,-6.5897,-6.582,-6.5628,-6.559,-6.5513,-6.532,-6.5282,-6.5282,-6.5282,-6.4666,-6.4282,-6.4282,-6.5128,-6.559,-6.559,-6.5782,-6.5897,-6.5897,-6.5897,-6.5897,-6.5897,-6.5897,-6.5897,-6.5897,-6.5897,-6.5897,-3.9477,-4.2816,-4.5701,-4.5316,-4.4885,-4.3885,-4.1239,-3.9315,-3.7853,-3.6885,-3.6077,-3.5731,-3.6538,-3.7738,-3.9277,-4.1354,-4.3816,0.0,0.0,0.0,0.0,0.0,0.0,0.0,0.0,0.0,0.0,0.0,0.0,0.0,0.0,0.0,-7.6015,-7.6015,-7.6015,-7.6015,-7.6015,-7.6015,-7.6015,-7.6015,-7.6015,-7.6015,-7.6015,-7.6015,-7.6015,0.0,0.0,0.0,-7.6015,-7.6015,-7.6015,-7.6015,-7.6015,-7.6015,-7.6015,-7.6015,-7.5745,-7.5207,-7.3937,-7.2976,-7.2168,-7.1206,-7.0898,-7.0898,-7.0898,-7.0898,-7.0898,-7.0898,-7.0898,-7.0898,-7.0898,-7.0283,-6.959,-6.9129,-6.8013,-6.6974,-6.6551,-6.6167,-6.5897,-6.5897,-6.5897,-6.5897,-6.5897,-6.5897,-6.5897,-6.5897,-6.5897,-6.5897,-6.5897,-6.5897,-6.5897,-6.5897,-6.5897,-6.5897,-6.5897,-6.5474,-6.5205,-6.5205,-6.5628,-6.5897,-6.5897,-6.5897,-6.5897,-6.5897,-6.5897,-6.5897,-6.5897,-6.5897,-6.5923,-6.5947,-6.5933,-6.597,-3.8777,-4.1162,-4.2931,-4.22,-4.22,-4.1854,-3.9938,-3.8354,-3.7199,0.0,0.0,-3.6192,-3.7269,-3.8777,0.0,0.0,0.0,0.0,0.0,0.0,0.0,0.0,0.0,0.0,0.0,0.0,0.0,0.0,0.0,0.0,0.0,0.0,0.0,-7.6015,-7.6015,-7.6015,-7.6015,-7.6015,-7.6015,-7.6015,-7.6015,-7.6015,-7.6015,-7.6015,-7.6015,0.0,0.0,0.0,-7.6015,-7.6015,-7.6015,-7.6015,-7.6015,-7.6015,-7.5976,-7.5861,-7.5322,-7.4591,-7.363,-7.2245,-7.0898,-7.0898,-7.0898,-7.0898,-7.0898,-7.0898,-7.0898,-7.0898,-7.0898,-7.0898,-7.0898,-7.0398,-6.986,-6.9744,-6.8552,-6.7475,-6.7321,-6.6667,-6.609,-6.609,-6.5974,-6.5897,-6.5897,-6.5897,-6.5897,-6.5897,-6.5897,-6.5897,-6.5897,-6.5897,-6.5897,-6.5897,-6.5897,-6.5897,-6.5897,-6.5897,-6.5897,-6.5897,-6.5897,-6.5897,-6.5897,-6.5897,-6.5897,-6.5897,-6.5897,-6.5897,-6.5897,-6.5897,-6.5935,-6.602,-6.6013,-6.6052,-3.8623,-4.1162,-4.3085,-4.2931,-4.397,-4.4209,-4.1016,-4.0092,-3.9515,0.0,0.0,0.0,0.0,-4.1854,0.0,0.0,0.0,0.0,0.0,0.0,0.0,0.0,0.0,0.0,0.0,0.0,0.0,0.0,0.0,0.0,0.0,0.0,0.0,-7.6015,-7.6015,-7.6015,-7.6015,-7.6015,-7.6015,-7.6015,-7.6015,-7.6015,-7.6015,-7.6015,-7.6015,0.0,0.0,-7.6015,-7.6015,-7.6015,-7.6015,-7.6015,-7.6015,-7.6015,-7.5899,-7.5168,-7.4822,-7.4476,-7.2937,-7.1745,-7.0898,-7.0898,-7.0898,-7.0898,-7.0898,-7.0898,-7.0898,-7.0898,-7.0898,-7.0898,-7.0898,-7.0821,-7.0552,-6.986,-6.9513,-6.909,-6.8359,-6.7513,-6.6898,-6.6898,-6.6359,-6.5897,-6.5897,-6.5897,-6.5897,-6.5897,-6.5897,-6.5897,-6.5897,-6.5897,-6.5897,-6.5897,-6.5897,-6.5897,-6.5897,-6.5897,-6.5897,-6.5897,-6.5897,-6.5897,-6.5897,-6.5897,-6.5897,-6.5897,-6.5897,-6.5897,-6.5897,-6.5897,-6.5921,-6.6001,-6.6039,-6.6157,-3.8161,-4.0469,-4.2624,-4.3508,-4.5047,-4.5624,-4.3124,-4.22,-4.17,0.0,0.0,0.0,0.0,0.0,0.0,0.0,0.0,0.0,0.0,0.0,0.0,0.0,0.0,0.0,0.0,0.0,0.0,0.0,0.0,0.0,0.0,0.0,0.0,0.0,-7.4899,-7.4861,-7.5284,-7.4861,-7.4861,-7.5284,-7.5784,-7.5745,-7.5322,-7.5784,-7.6015,-7.6015,0.0,-7.6015,-7.6015,-7.6015,-7.5707,-7.5284,-7.5284,-7.5014,-7.4553,-7.3668,-7.336,-7.3168,-7.1937,-7.1245,-7.0898,-7.0898,-7.0898,-7.0898,-7.0898,-7.0898,-7.0898,-7.0898,-7.0898,-7.0898,-7.0898,-7.0898,-7.0821,-7.0437,-7.0014,-6.959,-6.9206,-6.8436,-6.7667,-6.7167,-6.6782,-6.6397,-6.5974,-6.5897,-6.5897,-6.5897,-6.5897,-6.5897,-6.5897,-6.5897,-6.5897,-6.5897,-6.5897,-6.5897,-6.5897,-6.5897,-6.5897,-6.5897,-6.5897,-6.5897,-6.5897,-6.5897,-6.5923,-6.596,-6.5946,-6.5982,-6.6017,-6.6052,-6.6102,-6.6235,-6.6248,-6.6314,-3.8007,-4.0008,-4.22,-4.3893,-4.574,-4.6817,-4.5509,-4.4855,-4.4509,-4.4316,0.0,0.0,0.0,0.0,0.0,0.0,0.0,0.0,0.0,0.0,0.0,0.0,0.0,0.0,0.0,0.0,0.0,0.0,0.0,0.0,0.0,0.0,0.0,0.0,-7.3822,-7.3822,-7.4399,-7.3822,-7.3899,-7.4707,-7.5207,-7.5053,-7.4437,-7.513,-7.5515,-7.5707,-7.5707,-7.5822,-7.5976,-7.5784,-7.5284,-7.4668,-7.4514,-7.3937,-7.3129,-7.2437,-7.2052,-7.1783,-7.1129,-7.0898,-7.0898,-7.0898,-7.0898,-7.0898,-7.0898,-7.0898,-7.0898,-7.0898,-7.0898,-7.0898,-7.0898,-7.0898,-7.0898,-7.0898,-7.0437,-6.9975,-6.9975,-6.9321,-6.8513,-6.7821,-6.7359,-6.6898,-6.6282,-6.6013,-6.5897,-6.5897,-6.5897,-6.5897,-6.5897,-6.591,-6.5935,-6.5909,-6.5921,-6.5933,-6.5933,-6.5921,-6.5909,-6.5909,-6.5923,-6.5897,-6.5897,-6.5897,-6.5935,-6.5982,-6.6024,-6.6063,-6.6136,-6.6216,-6.6325,-6.64,-6.6445,-6.653,-3.8738,-4.0469,-4.22,-4.3893,-4.6163,-4.7971,-4.7855,-4.8394,-4.8702,-4.7894,-4.8317,0.0,0.0,0.0,0.0,0.0,0.0,0.0,0.0,0.0,0.0,0.0,0.0,0.0,0.0,0.0,0.0,0.0,0.0,0.0,0.0,0.0,0.0,0.0,0.0,-7.3553,-7.3591,-7.3553,-7.3899,-7.4707,-7.4014,-7.3668,-7.3591,-7.3668,-7.4091,-7.4784,-7.4784,-7.5245,-7.5938,-7.513,-7.4784,-7.463,-7.3899,-7.3053,-7.2283,-7.2206,-7.1668,-7.0975,-7.0937,-7.0898,-7.0898,-7.0898,-7.0898,-7.0898,-7.0898,-7.0898,-7.0898,-7.0898,-7.0898,-7.0898,-7.0898,-7.0898,-7.0898,-7.0898,-7.086,-7.0821,-7.0821,-7.0167,-6.959,-6.9513,-6.8205,-6.709,-6.7013,-6.6397,-6.5897,-6.5897,-6.5897,-6.5897,-6.5897,-6.596,-6.5982,-6.599,-6.6047,-6.608,-6.608,-6.6024,-6.599,-6.599,-6.5921,-6.5897,-6.5897,-6.5897,-6.5921,-6.6001,-6.6049,-6.6176,-6.6303,-6.6351,-6.6438,-6.6502,-6.6576,-6.6664,-3.913,-4.0131,-4.1508,-4.3739,-4.6201,-4.8509,-5.0115,-5.1548,-5.2779,-5.35,-5.3895,-5.4329,0.0,0.0,0.0,0.0,0.0,0.0,0.0,0.0,0.0,0.0,0.0,0.0,0.0,0.0,0.0,0.0,0.0,0.0,0.0,0.0,0.0,0.0,0.0,-7.2129,-7.2706,-7.2168,-7.2322,-7.3129,-7.3399,-7.3206,-7.2706,-7.3245,-7.3668,-7.3976,-7.3976,-7.413,-7.4437,-7.4091,-7.363,-7.3053,-7.2206,-7.1668,-7.1398,-7.1398,-7.1168,-7.0898,-7.0898,-7.0898,-7.0898,-7.0898,-7.0898,-7.0898,-7.0898,-7.0898,-7.0898,-7.0898,-7.0898,-7.0898,-7.0898,-7.0898,-7.0898,-7.0898,-7.0898,-7.0898,-7.0898,-7.0667,-7.0283,-6.9821,-6.9167,-6.8359,-6.7282,-6.6859,-6.6474,-6.5974,-6.5897,-6.5897,-6.5897,-6.5958,-6.6024,-6.6039,-6.6221,-6.6251,-6.623,-6.6129,-6.6098,-6.6136,-6.6024,-6.5993,-6.604,-6.6074,-6.6123,-6.6264,-6.6265,-6.6337,-6.6504,-6.6546,-6.6599,-6.6681,-6.6712,-6.6774,-4.0008,-4.0285,-4.1093,-4.3662,-4.6201,-4.8971,-5.2356,-5.4434,-5.6088,-5.7511,-5.8242,-5.8523,-5.8253,0.0,0.0,0.0,0.0,0.0,0.0,0.0,0.0,0.0,0.0,0.0,0.0,0.0,0.0,0.0,0.0,0.0,0.0,0.0,0.0,0.0,0.0,-7.1206,-7.1783,-7.1206,-7.1206,-7.1783,-7.2399,-7.236,-7.1822,-7.2399,-7.2822,-7.3091,-7.3091,-7.3245,-7.3462,-7.3206,-7.2591,-7.1745,-7.1129,-7.0898,-7.0898,-7.0898,-7.0898,-7.0898,-7.0898,-7.0898,-7.0898,-7.0898,-7.0898,-7.0898,-7.0898,-7.0898,-7.0898,-7.0898,-7.0898,-7.0898,-7.0898,-7.0898,-7.0898,-7.0898,-7.0898,-7.0898,-7.0898,-7.0898,-7.0744,-7.0206,-6.986,-6.9244,-6.7744,-6.7282,-6.6821,-6.6013,-6.5923,-6.5935,-6.5921,-6.6024,-6.6128,-6.6243,-6.6406,-6.6462,-6.6393,-6.6275,-6.6209,-6.6303,-6.6187,-6.6118,-6.6167,-6.6244,-6.6312,-6.6422,-6.6471,-6.6546,-6.665,-6.6736,-6.6802,-6.6818,-6.6823,-6.6869,-4.1546,-4.1162,-4.117,-4.3701,0.0,-4.9471,-5.4549,-5.7088,-5.855,-5.9396,-6.0935,-6.187,-6.1012,0.0,0.0,0.0,0.0,0.0,0.0,0.0,0.0,0.0,0.0,0.0,0.0,0.0,0.0,0.0,0.0,0.0,0.0,0.0,0.0,0.0,0.0,0.0,-7.0898,-7.0898,-7.0898,-7.0898,-7.0898,-7.0898,-7.0898,-7.0898,-7.136,-7.2168,-7.2168,-7.2668,-7.3399,-7.2552,-7.1668,-7.0898,-7.0898,-7.0898,-7.0898,-7.0898,-7.0898,-7.0898,-7.0898,-7.0898,-7.0898,-7.0898,-7.0898,-7.0898,-7.0898,-7.0898,-7.0898,-7.0898,-7.0898,-7.0898,-7.0898,-7.0898,-7.0898,-7.0898,-7.0898,-7.0898,-7.0898,-7.0898,-7.0898,-7.0898,-7.0244,-6.9436,-6.8552,-6.7667,-6.6821,-6.6013,-6.596,-6.602,-6.6001,-6.6177,-6.6369,-6.6574,-6.6642,-6.6689,-6.66,-6.6471,-6.6432,-6.6504,-6.6432,-6.6376,-6.629,-6.6373,-6.6418,-6.6512,-6.6588,-6.6673,-6.6815,-6.6872,-6.6914,-6.6914,-6.6914,-6.6914,-4.1632,-4.2494,0.0,-4.5624,0.0,0.0,0.0,-5.8396,0.0,0.0,-6.432,-6.3782,-6.3512,0.0,0.0,0.0,0.0,0.0,0.0,0.0,0.0,0.0,0.0,0.0,0.0,0.0,0.0,0.0,0.0,0.0,0.0,0.0,0.0,0.0,0.0,0.0,-7.0898,-7.0898,-7.0898,-7.0898,-7.0898,-7.0898,-7.0898,-7.0898,-7.1052,-7.1283,-7.1283,-7.1437,-7.1668,-7.1398,-7.1129,-7.0898,-7.0898,-7.0898,-7.0898,-7.0898,-7.0898,-7.0898,-7.0898,-7.0898,-7.0898,-7.0898,-7.0898,-7.0898,-7.0898,-7.0898,-7.0898,-7.0898,-7.0898,-7.0898,-7.0898,-7.0898,-7.0898,-7.0898,-7.0898,-7.0898,-7.0898,-7.0898,-7.0898,-7.0898,-7.0706,-7.009,-6.8667,-6.8205,-6.7744,-6.6859,-6.6844,-6.699,-6.7187,-6.7327,-6.7266,-6.6781,-6.6815,-6.6821,-6.6761,-6.6638,-6.6568,-6.665,-6.6568,-6.6532,-6.6489,-6.6595,-6.665,-6.6727,-6.6714,-6.6776,-6.6868,-6.6874,-6.6914,-6.6914,-6.6914,-6.6914,-4.2895,-4.4336,0.0,-4.8269,-5.1548,-5.5318,-5.9561,0.0,0.0,0.0,0.0,-6.5897,0.0,0.0,0.0,0.0,0.0,0.0,0.0,0.0,0.0,0.0,0.0,0.0,0.0,0.0,0.0,0.0,0.0,0.0,0.0,0.0,0.0,0.0,0.0,0.0,-7.0898,-7.0898,-7.0898,-7.0898,-7.0898,-7.0898,-7.0898,-7.0898,-7.0898,-7.0898,-7.0898,-7.0898,-7.0898,-7.0898,-7.0898,-7.0898,-7.0898,-7.0898,-7.0898,-7.0898,-7.0898,-7.0898,-7.0898,-7.0898,-7.0898,-7.0898,-7.0898,-7.0898,-7.0898,-7.0898,-7.0898,-7.0898,-7.0898,-7.0898,-7.0898,-7.0898,-7.0898,-7.0898,-7.0898,-7.0898,-7.0898,-7.0898,-7.0898,-7.0898,-7.0925,-7.0413,-6.8771,-6.877,-6.8602,-6.7444,-6.7652,-6.8079,-6.8286,-6.8145,-6.7817,-6.7409,-6.7068,-6.6874,-6.683,-6.6731,-6.6714,-6.6798,-6.6717,-6.6706,-6.6727,-6.6751,-6.6809,-6.6821,-6.6826,-6.687,-6.6913,-6.6914,-6.6914,-6.6914,-6.7265,-6.7422,-4.4576,0.0,0.0,-5.1308,-5.428,0.0,-6.4436,-6.6013,-6.6359,-6.7167,0.0,0.0,0.0,0.0,0.0,0.0,0.0,0.0,0.0,0.0,0.0,0.0,0.0,0.0,0.0,0.0,0.0,0.0,0.0,0.0,0.0,0.0,0.0,0.0,0.0,0.0,-7.0898,-7.0898,-7.0898,0.0,-7.0898,-7.0898,-7.0898,-7.0898,-7.0898,-7.0898,-7.0898,-7.0898,-7.0898,-7.0898,-7.0898,-7.0898,-7.0898,-7.0898,-7.0898,-7.0898,-7.0898,-7.0898,-7.0898,-7.0898,-7.0898,-7.0898,-7.0898,-7.0898,-7.0898,-7.0898,-7.0898,-7.0898,-7.0898,-7.0898,-7.0898,-7.0898,-7.0912,-7.0912,-7.0912,-7.0898,-7.0898,-7.0898,-7.0898,-7.0898,-7.0965,-7.0529,-6.8996,-6.9374,-6.9413,-6.7987,-6.8629,-6.9272,-6.9401,-6.8789,-6.8347,-6.8318,-6.7617,-6.7148,-6.7146,-6.7099,-6.7056,-6.7022,-6.6978,-6.6902,-6.6911,-6.6914,-6.6914,-6.6914,-6.6914,-6.6914,-6.6914,-6.6914,-6.6914,-6.6914,-6.7773,-6.8203,-4.3027,-4.6736,0.0,0.0,-5.7819,-6.2397,-6.5243,-6.6936,-6.8129,0.0,0.0,0.0,0.0,0.0,0.0,0.0,0.0,0.0,0.0,0.0,0.0,0.0,0.0,0.0,0.0,0.0,0.0,0.0,0.0,0.0,0.0,0.0,0.0,0.0,0.0,-7.0898,-7.0898,-7.0898,-7.0898,0.0,-7.0898,-7.0898,-7.0898,-7.0898,-7.0898,-7.0898,-7.0898,-7.0898,-7.0898,-7.0898,-7.0898,-7.0898,-7.0898,-7.0898,-7.0898,-7.0898,-7.0898,-7.0898,-7.0898,-7.0898,-7.0898,-7.0898,-7.0898,-7.0898,-7.0898,-7.0898,-7.0898,-7.0898,-7.0898,-7.0898,-7.0898,-7.0939,-7.0992,-7.1043,-7.0979,-7.0898,-7.0898,-7.0898,-7.0898,-7.0898,-7.1005,-7.0783,-6.9783,-6.9857,-6.9994,-6.9818,-7.0546,-7.093,-7.0389,-7.0225,-6.9882,-6.9218,-6.8984,-6.8867,-6.8867,-6.8905,-6.8632,-6.7968,-6.7929,-6.7616,-6.6914,-6.6914,-6.6914,-6.6914,-6.6914,-6.6914,-6.6914,-6.6914,-6.6914,-6.6914,-6.7773,-6.8203,-4.3318,0.0,0.0,-5.7473,0.0,-6.4359,-6.609,-6.7167,0.0,0.0,0.0,0.0,0.0,0.0,0.0,0.0,0.0,0.0,0.0,0.0,0.0,0.0,0.0,0.0,0.0,0.0,0.0,0.0,0.0,0.0,0.0,0.0,0.0,0.0,-7.0706,-7.0706,-7.0321,-7.0321,-7.0129,-6.9706,-7.0129,-7.0514,-7.0898,-7.0898,-7.0898,-7.0898,-7.0898,-7.0898,-7.0898,-7.0898,-7.0898,-7.0898,-7.0898,-7.0898,-7.0898,-7.0898,-7.0898,-7.0898,-7.0898,-7.0898,-7.0898,-7.0898,-7.0898,-7.0898,-7.0898,-7.0898,-7.0898,-7.0898,-7.0898,-7.0898,-7.0898,-7.0979,-7.1042,-7.1136,-7.1104,-7.1056,-7.1093,-7.1093,-7.1093,-7.1093,-7.1186,-7.1017,-7.0222,-7.0215,-7.0458,-7.1027,-7.1498,-7.1685,-7.1314,-7.0935,-7.0547,-7.0078,-6.9687,-6.9453,-6.9453,-6.9453,-6.9258,-6.8867,-6.8789,-6.8555,-6.8125,-6.7734,-6.7344,-6.6914,-6.6914,-6.6914,-6.6914,-6.6914,-6.6914,-6.6914,-6.8203,-6.8789,-4.3775,0.0,-5.4654,-6.1577,-6.4089,0.0,0.0,0.0,0.0,0.0,0.0,0.0,0.0,0.0,0.0,0.0,0.0,0.0,0.0,0.0,0.0,0.0,0.0,0.0,0.0,0.0,0.0,0.0,0.0,0.0,0.0,0.0,-7.0167,-6.9513,-7.0129,-7.0167,-6.9475,-6.9475,-6.9129,-6.8398,-6.9283,-7.0052,-7.0706,-7.0821,-7.0898,-7.0898,-7.0898,-7.0898,-7.0898,-7.0898,-7.0898,-7.0898,-7.0898,-7.0898,-7.0898,-7.0898,-7.0898,-7.0898,-7.0898,-7.0898,-7.0898,-7.0898,-7.0898,-7.0898,-7.0898,-7.0912,-7.0925,-7.0925,-7.0939,-7.0952,-7.0965,-7.1081,-7.1186,-7.1241,-7.127,-7.1317,-7.1337,-7.1337,-7.1337,-7.1337,-7.1443,-7.1342,-7.0674,-7.0688,-7.1,-7.1802,-7.193,-7.1941,-7.1989,-7.1367,-7.0937,-7.0937,-7.0312,-6.9922,-6.9922,-6.9883,-6.9805,-6.9726,-6.9648,-6.957,-6.9414,-6.875,-6.8008,-6.7148,-6.6992,-6.6914,-6.6914,-6.6914,-6.6992,-6.7148,-6.8672,-6.9492,0.0,0.0,-5.8396,0.0,-6.4512,0.0,0.0,0.0,0.0,0.0,0.0,0.0,0.0,0.0,0.0,0.0,0.0,0.0,0.0,0.0,0.0,0.0,0.0,0.0,0.0,0.0,0.0,0.0,0.0,0.0,0.0,-6.8667,-6.8692,-6.859,-6.8667,-6.8667,-6.8577,-6.8577,-6.8513,-6.8398,-6.9283,-6.9744,-6.9898,-7.0591,-7.0898,-7.0898,-7.0898,-7.0898,-7.0898,-7.0898,-7.0898,-7.0898,-7.0898,-7.0898,-7.0898,-7.0898,-7.0898,-7.0898,-7.0898,-7.0898,-7.0898,-7.0898,-7.0898,-7.0898,-7.0898,-7.0939,-7.1005,-7.1056,-7.1118,-7.1178,-7.1236,-7.1327,-7.1472,-7.1528,-7.158,-7.1589,-7.1488,-7.1474,-7.1474,-7.1474,-7.1572,-7.1671,-7.1669,-7.1744,-7.1834,-7.1952,-7.1991,-7.1992,-7.1992,-7.1914,-7.1836,-7.1836,-7.1719,-7.168,-7.168,-7.164,-7.1328,-7.0586,-7.0547,-7.0195,-6.9414,-6.9297,-6.8867,-6.8047,-6.7265,-6.6914,-6.6914,-6.6914,-6.7305,-6.8047,-6.8984,-6.9805,-4.4407,-5.2367,-5.9204,0.0,0.0,0.0,0.0,0.0,0.0,0.0,0.0,0.0,0.0,0.0,0.0,0.0,0.0,0.0,0.0,0.0,0.0,0.0,0.0,0.0,0.0,0.0,0.0,0.0,0.0,0.0,-6.7667,-6.8155,-6.8232,-6.7807,-6.8268,-6.8304,-6.7877,-6.7841,-6.7793,-6.7718,-6.8065,-6.8513,-6.8975,-6.936,-7.0014,-7.0898,-7.0898,-7.0898,-7.0898,-7.0898,-7.0898,-7.0898,-7.0898,-7.0898,-7.0898,-7.0898,-7.0898,-7.0898,-7.0898,-7.0898,-7.0898,-7.0898,-7.0898,-7.0898,-7.0898,-7.0979,-7.1081,-7.1147,-7.1208,-7.1349,-7.1374,-7.1482,-7.1576,-7.1622,-7.1725,-7.1806,-7.178,-7.1729,-7.1677,-7.1711,-7.1764,-7.1841,-7.1941,-7.199,-7.1992,-7.1992,-7.1992,-7.1992,-7.1992,-7.1992,-7.1992,-7.1992,-7.1992,-7.1992,-7.1992,-7.1992,-7.1836,-7.1445,-7.1445,-7.125,-7.0859,-7.039,-6.9961,-6.9609,-6.8281,-6.7383,-6.6914,-6.7383,-6.7812,-6.8242,-6.9531,-7.0312,-4.5415,-5.2145,-5.7676,-6.1666,0.0,0.0,0.0,0.0,0.0,0.0,0.0,0.0,0.0,0.0,0.0,0.0,0.0,0.0,0.0,0.0,0.0,0.0,0.0,0.0,0.0,0.0,0.0,0.0,0.0,0.0,-6.6782,-6.7474,-6.7598,-6.6996,-6.7652,-6.7763,-6.7231,-6.7124,-6.7007,-6.6919,-6.7025,-6.7436,-6.809,-6.8321,-6.909,-7.0283,-7.0514,-7.0706,-7.0898,-7.0898,-7.0898,-7.0898,-7.0898,-7.0898,-7.0898,-7.0898,-7.0898,-7.0898,-7.0898,-7.0912,-7.0925,-7.0952,-7.0965,-7.0979,-7.1005,-7.1118,-7.122,-7.13,-7.1383,-7.149,-7.155,-7.1622,-7.1681,-7.1732,-7.1841,-7.1942,-7.1992,-7.1938,-7.1864,-7.1926,-7.1934,-7.1943,-7.199,-7.1992,-7.1992,-7.1992,-7.1992,-7.1992,-7.1992,-7.1992,-7.1992,-7.1992,-7.1992,-7.1992,-7.1992,-7.1992,-7.1992,-7.1992,-7.1992,-7.1992,-7.1992,-7.1367,-7.0937,-7.0703,-6.9453,-6.8398,-6.7578,-6.8008,-6.8437,-6.8867,-7.0117,-7.082,-4.2641,-4.7773,0.0,-5.6571,0.0,0.0,0.0,0.0,0.0,0.0,0.0,0.0,0.0,0.0,0.0,0.0,0.0,0.0,0.0,0.0,0.0,0.0,0.0,0.0,0.0,0.0,0.0,0.0,0.0,0.0,-6.5974,-6.6059,-6.6119,-6.6167,-6.6338,-6.6446,-6.6445,-6.6256,-6.6167,-6.6168,-6.6805,-6.7128,-6.7205,-6.8013,-6.8462,-6.859,-6.9398,-7.0206,-7.0898,-7.0898,-7.0898,-7.0898,-7.0898,-7.0898,-7.0898,-7.0898,-7.0898,-7.0898,-7.0898,-7.0939,-7.1005,-7.1068,-7.1142,-7.1201,-7.1258,-7.1358,-7.1499,-7.1544,-7.1615,-7.1705,-7.1755,-7.1838,-7.1909,-7.1885,-7.1941,-7.199,-7.1992,-7.1992,-7.1992,-7.1992,-7.1992,-7.1992,-7.1992,-7.1992,-7.1992,-7.1992,-7.1992,-7.1992,-7.1992,-7.1992,-7.1992,-7.1992,-7.1992,-7.1992,-7.1992,-7.1992,-7.1992,-7.1992,-7.1992,-7.1992,-7.1992,-7.1953,-7.1523,-7.0703,-7.0625,-7.0156,-6.9375,-6.8594,-6.9023,-7.0586,-7.0664,-7.1133,-3.9213,-4.3836,0.0,0.0,0.0,0.0,0.0,0.0,0.0,0.0,0.0,0.0,0.0,0.0,0.0,0.0,0.0,0.0,0.0,0.0,0.0,0.0,0.0,0.0,0.0,0.0,0.0,0.0,0.0,0.0,-6.6108,-6.6205,-6.6251,-6.6283,-6.6425,-6.6489,-6.6524,-6.6358,-6.6281,-6.6301,-6.6453,-6.651,-6.6464,-6.6726,-6.7152,-6.768,-6.8526,-6.936,-7.0167,-7.0706,-7.0898,-7.0898,-7.0898,-7.0898,-7.0898,-7.0898,-7.0898,-7.0898,-7.0898,-7.0979,-7.1093,-7.1158,-7.1229,-7.1329,-7.14,-7.1505,-7.1634,-7.1677,-7.1737,-7.1822,-7.1895,-7.1945,-7.1948,-7.1949,-7.199,-7.1992,-7.1992,-7.1992,-7.1992,-7.1992,-7.1992,-7.1992,-7.1992,-7.1992,-7.1992,-7.1992,-7.1992,-7.1992,-7.1992,-7.1992,-7.1992,-7.1992,-7.1992,-7.1992,-7.1992,-7.1992,-7.1992,-7.1992,-7.1992,-7.1992,-7.1992,-7.1992,-7.1836,-7.1523,-7.0976,-7.0273,-6.9453,-6.9687,-7.0117,-7.0703,-7.1289,-7.1719,-3.6691,-4.039,0.0,0.0,0.0,0.0,0.0,0.0,0.0,0.0,0.0,0.0,0.0,0.0,0.0,0.0,0.0,0.0,0.0,0.0,0.0,0.0,0.0,0.0,0.0,0.0,0.0,0.0,0.0,0.0,-6.626,-6.6369,-6.6439,-6.654,-6.6654,-6.6677,-6.6666,-6.6517,-6.6483,-6.6482,-6.6329,-6.6224,-6.6158,-6.6067,-6.6328,-6.6892,-6.7937,-6.8898,-6.9744,-7.0552,-7.0898,-7.0898,-7.0898,-7.0898,-7.0898,-7.0898,-7.0912,-7.0939,-7.0965,-7.1081,-7.122,-7.131,-7.14,-7.1505,-7.1563,-7.1672,-7.1768,-7.1774,-7.1844,-7.1942,-7.1992,-7.1992,-7.1992,-7.1992,-7.1992,-7.1992,-7.1992,-7.1992,-7.1992,-7.1992,-7.1992,-7.1992,-7.1992,-7.1992,-7.1992,-7.1992,-7.1992,-7.1992,-7.1992,-7.1992,-7.1992,-7.1992,-7.1992,-7.1992,-7.1992,-7.1992,-7.1992,-7.1992,-7.1992,-7.1992,-7.1992,-7.1992,-7.1992,-7.1992,-7.1445,-7.0859,-7.0273,-7.0547,-7.0859,-7.1133,-7.1719,-7.1992,0.0,0.0,0.0,0.0,0.0,0.0,0.0,0.0,0.0,0.0,0.0,0.0,0.0,0.0,0.0,0.0,0.0,0.0,0.0,0.0,0.0,0.0,0.0,0.0,0.0,0.0,0.0,0.0,0.0,-6.6393,-6.6393,-6.6452,-6.6615,-6.6813,-6.6872,-6.6874,-6.6787,-6.6678,-6.6599,-6.6594,-6.648,-6.6354,-6.6314,-6.6183,-6.6099,-6.6179,-6.7718,-6.8873,-6.9719,-7.0552,-7.0898,-7.0898,-7.0898,-7.0898,-7.0898,-7.0898,-7.0939,-7.1018,-7.1081,-7.1231,-7.1445,-7.1552,-7.1667,-7.1716,-7.1807,-7.1849,-7.1914,-7.1887,-7.1942,-7.199,-7.1992,-7.1992,-7.1992,-7.1992,-7.1992,-7.1992,-7.1992,-7.1992,-7.1992,-7.1992,-7.1992,-7.1992,-7.1992,-7.1992,-7.1992,-7.1992,-7.1992,-7.1992,-7.1992,-7.1992,-7.1992,-7.1992,-7.1992,-7.1992,-7.1992,-7.1992,-7.1992,-7.1992,-7.1992,-7.1992,-7.1992,-7.1992,-7.1992,-7.1992,-7.1992,-7.1992,-7.1992,-7.1133,-7.1172,-7.1992,-7.1992,-7.1992,-3.3106,0.0,0.0,0.0,0.0,0.0,0.0,0.0,0.0,0.0,0.0,0.0,0.0,0.0,0.0,0.0,0.0,0.0,0.0,0.0,0.0,0.0,0.0,0.0,0.0,0.0,0.0,0.0,-6.6629,-6.6629,-6.6629,-6.6684,-6.6766,-6.6868,-6.6874,-6.6874,-6.6871,-6.6777,-6.6759,-6.6736,-6.6654,-6.6561,-6.6501,-6.6358,-6.6337,-6.6358,-6.7325,-6.8215,-6.9081,-7.0362,-7.0898,-7.0898,-7.0898,-7.0898,-7.0898,-7.0898,-7.0979,-7.1093,-7.1131,-7.1329,-7.1568,-7.1633,-7.1749,-7.187,-7.19,-7.1948,-7.1989,-7.1951,-7.1991,-7.1992,-7.1992,-7.1992,-7.1992,-7.1992,-7.1992,-7.1992,-7.1992,-7.1992,-7.1992,-7.1992,-7.1992,-7.1992,-7.1992,-7.1992,-7.1992,-7.1992,-7.1992,-7.1992,-7.1992,-7.1992,-7.1992,-7.1992,-7.1992,-7.1992,-7.1992,-7.1992,-7.1992,-7.1992,-7.1992,-7.1992,-7.1992,-7.1992,-7.1992,-7.1992,-7.1992,-7.1992,-7.1992,-7.1758,-7.1758,-7.1992,-7.1992,-7.1992,-3.4239,-3.5243,-3.6469,0.0,0.0,0.0,0.0,0.0,0.0,0.0,0.0,0.0,0.0,0.0,0.0,0.0,0.0,0.0,0.0,0.0,0.0,0.0,0.0,0.0,0.0,0.0,0.0,0.0,-6.5711,-6.5868,-6.6219,-6.6275,-6.6479,-6.6874,-6.6914,-6.6914,-6.6913,-6.687,-6.6827,-6.6823,-6.6811,-6.6751,-6.6677,-6.6532,-6.6462,-6.651,-6.7238,-6.7799,-6.8372,-6.9951,-7.0788,-7.1068,-7.1068,-7.1068,-7.1068,-7.1068,-7.1139,-7.1285,-7.1339,-7.1521,-7.1683,-7.176,-7.1846,-7.1943,-7.1991,-7.1992,-7.1992,-7.1992,-7.1992,-7.1992,-7.1992,-7.1992,-7.1992,-7.1992,-7.1992,-7.1992,-7.1992,-7.1992,-7.1992,-7.1992,-7.1992,-7.1992,-7.1992,-7.1992,-7.1992,-7.1992,-7.1992,-7.1992,-7.1992,-7.1992,-7.1992,-7.1992,-7.1992,-7.1992,-7.1992,-7.1992,-7.1992,-7.1992,-7.1992,-7.1992,-7.1992,-7.1992,-7.1992,-7.1992,-7.1992,-7.1992,-7.1992,-7.1992,-7.1992,-7.1992,-7.1992,-7.1992,-3.7336,-3.7488,-3.7637,-3.8206,0.0,0.0,-4.0179,-4.2988,0.0,0.0,0.0,0.0,0.0,0.0,0.0,0.0,0.0,0.0,0.0,0.0,0.0,0.0,0.0,0.0,0.0,0.0,-6.5068,-6.4336,-6.4297,-6.4648,-6.539,-6.5547,-6.5976,-6.6719,-6.6836,-6.6914,-6.6914,-6.6914,-6.6914,-6.6914,-6.6914,-6.6874,-6.6826,-6.668,-6.6603,-6.6677,-6.722,-6.7528,-6.7762,-6.9435,-7.0549,-7.119,-7.1268,-7.1306,-7.1306,-7.1306,-7.1407,-7.1551,-7.1598,-7.1689,-7.1835,-7.1883,-7.1943,-7.199,-7.1992,-7.1992,-7.1992,-7.1992,-7.1992,-7.1992,-7.1992,-7.1992,-7.1992,-7.1992,-7.1992,-7.1992,-7.1992,-7.1992,-7.1992,-7.1992,-7.1992,-7.1992,-7.1992,-7.1992,-7.1992,-7.1992,-7.1992,-7.1992,-7.1992,-7.1992,-7.1992,-7.1992,-7.1992,-7.1992,-7.1992,-7.1992,-7.1992,-7.1992,-7.1992,-7.1992,-7.1992,-7.1992,-7.1992,-7.1992,-7.1992,-7.1992,-7.1992,-7.1992,-7.1992,-7.1992,-7.1992,-7.1992,-3.9531,-3.9374,-3.9062,-3.785,0.0,0.0,0.0,-3.8629,0.0,0.0,0.0,0.0,0.0,0.0,0.0,0.0,0.0,0.0,0.0,0.0,0.0,0.0,0.0,0.0,0.0,0.0,-6.449,-6.4297,-6.4297,-6.4375,-6.4531,-6.5234,-6.5664,-6.5859,-6.6523,-6.6914,-6.6914,-6.6914,-6.6914,-6.6914,-6.6914,-6.6874,-6.6871,-6.6818,-6.6761,-6.6781,-6.6857,-6.7261,-6.8002,-6.9055,-6.9841,-7.0472,-7.1179,-7.1451,-7.1451,-7.1451,-7.1549,-7.1671,-7.1672,-7.1767,-7.1885,-7.1949,-7.1992,-7.1992,-7.1992,-7.1992,-7.1992,-7.1992,-7.1992,-7.1992,-7.1992,-7.1992,-7.1992,-7.1992,-7.1992,-7.1992,-7.1992,-7.1992,-7.1992,-7.1992,-7.1992,-7.1992,-7.1992,-7.1992,-7.1992,-7.1992,-7.1992,-7.1992,-7.1992,-7.1992,-7.1992,-7.1992,-7.1992,-7.1992,-7.1992,-7.1992,-7.1992,-7.1992,-7.1992,-7.1992,-7.1992,-7.1992,-7.1992,-7.1992,-7.1992,-7.1992,-7.1992,-7.1992,-7.1992,-7.1992,-7.1992,-7.1992,-4.3203,-4.2773,-4.1914,-3.9766,0.0,0.0,0.0,0.0,0.0,0.0,0.0,0.0,0.0,0.0,0.0,0.0,0.0,0.0,0.0,0.0,0.0,0.0,0.0,0.0,0.0,0.0,-6.3476,-6.3047,-6.3008,-6.3203,-6.3633,-6.4062,-6.4492,-6.4922,-6.539,-6.582,-6.625,-6.625,-6.6484,-6.6914,-6.6914,-6.6914,-6.6913,-6.6872,-6.6868,-6.6865,-6.6817,-6.7047,-6.7555,-6.8804,-6.953,-6.9962,-7.118,-7.1655,-7.1655,-7.1655,-7.1697,-7.1784,-7.178,-7.1887,-7.1945,-7.1992,-7.1992,-7.1992,-7.1992,-7.1992,-7.1992,-7.1992,-7.1992,-7.1992,-7.1992,-7.1992,-7.1992,-7.1992,-7.1992,-7.1992,-7.1992,-7.1992,-7.1992,-7.1992,-7.1992,-7.1992,-7.1992,-7.1992,-7.1992,-7.1992,-7.1992,-7.1992,-7.1992,-7.1992,-7.1992,-7.1992,-7.1992,-7.1992,-7.1992,-7.1992,-7.1992,-7.1992,-7.1992,-7.1992,-7.1992,-7.1992,-7.1992,-7.1992,-7.1992,-7.1992,-7.1992,-7.1992,-7.1992,-7.1992,-7.1992,-7.1992,0.0,0.0,0.0,0.0,0.0,-3.918,0.0,0.0,0.0,-4.0156,0.0,0.0,0.0,0.0,0.0,0.0,0.0,0.0,0.0,0.0,0.0,0.0,0.0,0.0,0.0,0.0,-6.1797,-6.125,-6.1211,-6.1601,-6.2461,-6.2812,-6.332,-6.4023,-6.4219,-6.4726,-6.5586,-6.5586,-6.6055,-6.6914,-6.6914,-6.6914,-6.6914,-6.6914,-6.6914,-6.6914,-6.6914,-6.6914,-6.7031,-6.8555,-6.9297,-6.9648,-7.1214,-7.1849,-7.1849,-7.1849,-7.1867,-7.1926,-7.1934,-7.1945,-7.1991,-7.1992,-7.1992,-7.1992,-7.1992,-7.1992,-7.1992,-7.1992,-7.1992,-7.1992,-7.1992,-7.1992,-7.1992,-7.1992,-7.1992,-7.1992,-7.1992,-7.1992,-7.1992,-7.1992,-7.1992,-7.1992,-7.1992,-7.1992,-7.1992,-7.1992,-7.1992,-7.1992,-7.1992,-7.1992,-7.1992,-7.1992,-7.1992,-7.1992,-7.1992,-7.1992,-7.1992,-7.1992,-7.1992,-7.1992,-7.1992,-7.1992,-7.1992,-7.1992,-7.1992,-7.1992,-7.1992,-7.1992,-7.1992,-7.1992,-7.1992,-7.1992,0.0,0.0,0.0,0.0,-4.1641,0.0,0.0,0.0,-3.75,-3.7695,0.0,0.0,0.0,0.0,0.0,0.0,0.0,0.0,0.0,0.0,0.0,0.0,0.0,0.0,0.0,0.0,0.0,-5.9414,-5.9492,-5.9844,-6.0664,-6.2148,-6.3047,-6.3125,-6.3906,-6.4726,-6.5586,-6.5586,-6.6055,-6.6914,-6.6914,-6.6914,-6.6914,-6.6914,-6.6914,-6.6914,-6.6914,-6.6914,-6.6953,-6.793,-6.8789,-6.9687,-7.1327,-7.1991,-7.1991,-7.1991,-7.1991,-7.1991,-7.1992,-7.1992,-7.1992,-7.1992,-7.1992,-7.1992,-7.1992,-7.1992,-7.1992,-7.1992,-7.1992,-7.1992,-7.1992,-7.1992,-7.1992,-7.1992,-7.1992,-7.1992,-7.1992,-7.1992,-7.1992,-7.1992,-7.1992,-7.1992,-7.1992,-7.1992,-7.1992,-7.1992,-7.1992,-7.1992,-7.1992,-7.1992,-7.1992,-7.1992,-7.1992,-7.1992,-7.1992,-7.1992,-7.1992,-7.1992,-7.1992,-7.1992,-7.1992,-7.1992,-7.1992,-7.1992,-7.1992,-7.1992,-7.1992,-7.1992,-7.1992,-7.1992,-7.1992,-7.1992,0.0,0.0,0.0,0.0,0.0,0.0,-3.6992,0.0,-3.8359,0.0,0.0,0.0,0.0,0.0,0.0,0.0,0.0,0.0,0.0,0.0,0.0,0.0,0.0,0.0,0.0,0.0,0.0,0.0,0.0,-5.7734,-5.9609,-6.0859,-6.1719,-6.2226,-6.2617,-6.3437,-6.4844,-6.4844,-6.5547,-6.6914,-6.6914,-6.6914,-6.6914,-6.6914,-6.6914,-6.6914,-6.6914,-6.6914,-6.6953,-6.7851,-6.8437,-6.8906,-7.0586,-7.1562,-7.1992,-7.1992,-7.1992,-7.1992,-7.1992,-7.1992,-7.1992,-7.1992,-7.1992,-7.1992,-7.1992,-7.1992,-7.1992,-7.1992,-7.1992,-7.1992,-7.1992,-7.1992,-7.1992,-7.1992,-7.1992,-7.1992,-7.1992,-7.1992,-7.1992,-7.1992,-7.1992,-7.1992,-7.1992,-7.1992,-7.1992,-7.1992,-7.1992,-7.1992,-7.1992,-7.1992,-7.1992,-7.1992,-7.1992,-7.1992,-7.1992,-7.1992,-7.1992,-7.1992,-7.1992,-7.1992,-7.1992,-7.1992,-7.1992,-7.1992,-7.1992,-7.1992,-7.1992,-7.1992,-7.1992,-7.1992,-7.1992,-7.1992,-5.6445,0.0,0.0,0.0,0.0,0.0,0.0,0.0,0.0,0.0,0.0,0.0,0.0,0.0,0.0,0.0,0.0,0.0,0.0,0.0,0.0,0.0,0.0,0.0,0.0,0.0,0.0,0.0,0.0,0.0,-5.8359,-5.9687,-6.0703,-6.1328,-6.1797,-6.2773,-6.4297,-6.4531,-6.539,-6.6914,-6.6914,-6.6914,-6.6914,-6.6914,-6.6914,-6.6914,-6.6914,-6.6914,-6.6953,-6.7578,-6.8125,-6.8672,-6.9883,-7.1015,-7.1992,-7.1992,-7.1992,-7.1992,-7.1992,-7.1992,-7.1992,-7.1992,-7.1992,-7.1992,-7.1992,-7.1992,-7.1992,-7.1992,-7.1992,-7.1992,-7.1992,-7.1992,-7.1992,-7.1992,-7.1992,-7.1992,-7.1992,-7.1992,-7.1992,-7.1992,-7.1992,-7.1992,-7.1992,-7.1992,-7.1992,-7.1992,-7.1992,-7.1992,-7.1992,-7.1992,-7.1992,-7.1992,-7.1992,-7.1992,-7.1992,-7.1992,-7.1992,-7.1992,-7.1992,-7.1992,-7.1992,-7.1992,-7.1992,-7.1992,-7.1992,-7.1992,-7.1992,-7.1992,-7.1992,-7.1992,-7.1992,-7.1992,0.0,0.0,0.0,-4.7305,0.0,0.0,0.0,0.0,-4.1367,0.0,0.0,0.0,0.0,0.0,-4.4375,-4.2656,0.0,0.0,0.0,0.0,0.0,0.0,0.0,0.0,0.0,0.0,0.0,0.0,0.0,0.0,-5.6523,-5.9062,-6.039,-6.043,-6.207,-6.3398,-6.4297,-6.5156,-6.6015,-6.6914,-6.6914,-6.6914,-6.6914,-6.6914,-6.6914,-6.6914,-6.6914,-6.6914,-6.6914,-6.6914,-6.793,-6.9453,-6.9453,-7.0508,-7.1992,-7.1992,-7.1992,-7.1992,-7.1992,-7.1992,-7.1992,-7.1992,-7.1992,-7.1992,-7.1992,-7.1992,-7.1992,-7.1992,-7.1992,-7.1992,-7.1992,-7.1992,-7.1992,-7.1992,-7.1992,-7.1992,-7.1992,-7.1992,-7.1992,-7.1992,-7.1992,-7.1992,-7.1992,-7.1992,-7.1992,-7.1992,-7.1992,-7.1992,-7.1992,-7.1992,-7.1992,-7.1992,-7.1992,-7.1992,-7.1992,-7.1992,-7.1992,-7.1992,-7.1992,-7.1992,-7.1992,-7.1992,-7.1992,-7.1992,-7.1992,-7.1992,-7.1992,-7.1992,-7.1992,-7.1992,-7.1992,-7.1992,0.0,0.0,-5.4531,-5.1328,0.0,0.0,0.0,0.0,0.0,0.0,0.0,0.0,0.0,0.0,-4.6133,-4.4414,-4.2461,0.0,0.0,0.0,0.0,0.0,0.0,0.0,0.0,0.0,0.0,0.0,0.0,0.0,0.0,-5.7656,-5.9258,-6.0351,-6.2109,-6.3437,-6.4297,-6.5156,-6.6055,-6.6914,-6.6914,-6.6914,-6.6914,-6.6914,-6.6914,-6.6914,-6.6914,-6.6914,-6.6953,-6.7539,-6.8125,-6.875,-6.9844,-7.0625,-7.1211,-7.1797,-7.1992,-7.1992,-7.1992,-7.1992,-7.1992,-7.1992,-7.1992,-7.1992,-7.1992,-7.1992,-7.1992,-7.1992,-7.1992,-7.1992,-7.1992,-7.1992,-7.1992,-7.1992,-7.1992,-7.1992,-7.1992,-7.1992,-7.1992,-7.1992,-7.1992,-7.1992,-7.1992,-7.1992,-7.1992,-7.1992,-7.1992,-7.1992,-7.1992,-7.1992,-7.1992,-7.1992,-7.1992,-7.1992,-7.1992,-7.1992,-7.1992,-7.1992,-7.1992,-7.1992,-7.1992,-7.1992,-7.1992,-7.1992,-7.1992,-7.1992,-7.1992,-7.1992,-7.1992,-7.1992,-7.1992,-7.1992,-6.3789,-6.125,0.0,-5.5664,-5.3086,0.0,-4.75,0.0,0.0,0.0,0.0,0.0,0.0,0.0,-4.9101,-4.6758,-4.3711,-4.0703,0.0,0.0,0.0,0.0,0.0,0.0,0.0,0.0,-4.7031,-4.7891,0.0,0.0,0.0,0.0,-5.8086,-5.9453,-6.207,-6.3711,-6.4297,-6.5469,-6.6328,-6.6914,-6.6914,-6.6914,-6.6914,-6.6914,-6.6914,-6.6914,-6.6914,-6.6914,-6.6953,-6.7851,-6.8359,-6.875,-7.0156,-7.0898,-7.1211,-7.1797,-7.1992,-7.1992,-7.1992,-7.1992,-7.1992,-7.1992,-7.1992,-7.1992,-7.1992,-7.1992,-7.1992,-7.1992,-7.1992,-7.1992,-7.1992,-7.1992,-7.1992,-7.1992,-7.1992,-7.1992,-7.1992,-7.1992,-7.1992,-7.1992,-7.1992,-7.1992,-7.1992,-7.1992,-7.1992,-7.1992,-7.1992,-7.1992,-7.1992,-7.1992,-7.1992,-7.1992,-7.1992,-7.1992,-7.1992,-7.1992,-7.1992,-7.1992,-7.1992,-7.1992,-7.1992,-7.1992,-7.1992,-7.1992,-7.1992,-7.1992,-7.1992,-7.1992,-7.1992,-7.1992,-7.1992,-7.1992]},{"header":{"parameterUnit":"m.s-1","parameterCategory":1,"la1":30.6,"la2":29.2853,"lo1":-89.7004,"lo2":-87.6739,"dy":0.0162,"dx":0.0183,"nx":112,"ny":82,"refTime":"2026-04-30T12:00:00:Z","depth":0,"parameterNumber":3,"parameterNumberName":"V-component_of_WINDS"},"data":[0.0,0.0,0.0,0.0,0.0,0.0,0.0,0.0,0.0,0.0,0.0,0.0,0.0,0.0,0.0,0.0,0.0,0.0,0.0,0.0,0.0,0.0,0.0,0.0,0.0,0.0,0.0,0.0,0.0,0.0,0.0,0.0,0.0,0.0,0.0,0.0,0.0,0.0,0.0,0.0,0.0,0.0,0.0,0.0,0.0,0.0,0.0,0.0,0.0,0.0,0.0,0.0,0.0,0.0,0.0,0.0,0.0,0.0,0.0,0.0,0.0,0.0,0.0,0.0,0.0,0.0,0.0,0.0,0.0,0.0,0.0,0.0,0.0,0.0,0.0,0.0,0.0,0.0,0.0,0.0,0.0,0.0,0.0,0.0,0.0,0.0,0.0,0.0,0.0,0.0,0.0,-1.1348,-1.3247,-1.4204,-1.3702,-1.303,-1.2047,-1.0649,0.0,0.0,0.0,0.0,0.0,0.0,0.0,0.0,0.0,0.0,0.0,0.0,0.0,0.0,0.0,0.0,0.0,0.0,0.0,0.0,0.0,0.0,0.0,0.0,0.0,0.0,0.0,0.0,0.0,0.0,0.0,0.0,0.0,0.0,0.0,0.0,0.0,0.0,0.0,0.0,0.0,0.0,0.0,0.0,0.0,0.0,0.0,0.0,0.0,0.0,0.0,0.0,0.0,0.0,0.0,0.0,0.0,0.0,0.0,0.0,0.0,0.0,0.0,0.0,0.0,0.0,0.0,0.0,0.0,0.0,0.0,0.0,0.0,0.0,0.0,0.0,0.0,0.0,0.0,0.0,0.0,0.0,0.0,0.0,0.0,0.0,0.0,0.0,0.0,0.0,0.0,0.0,0.0,0.0,0.0,0.0,0.0,0.0,0.0,0.0,0.0,0.0,0.0,0.0,-1.0575,-1.282,-1.4143,-1.4584,-1.3871,-1.3471,-1.2583,-1.0914,0.0,0.0,0.0,0.0,0.0,0.0,0.0,0.0,0.0,0.0,0.0,0.0,0.0,0.0,0.0,0.0,0.0,0.0,0.0,0.0,0.0,0.0,0.0,0.0,0.0,0.0,0.0,0.0,0.0,0.0,0.0,0.0,0.0,0.0,0.0,0.0,0.0,0.0,0.0,0.0,0.0,0.0,0.0,0.0,0.0,0.0,0.0,0.0,0.0,0.0,0.0,0.0,0.0,0.0,0.0,0.0,0.0,0.0,0.0,0.0,0.0,0.0,0.0,0.0,0.0,0.0,0.0,0.0,0.0,0.0,0.0,0.0,0.0,0.0,0.0,0.0,0.0,0.0,0.0,0.0,0.0,0.0,0.0,0.0,0.0,0.0,0.0,0.0,0.0,0.0,0.0,0.0,0.0,0.0,0.0,0.0,0.0,0.0,0.0,0.0,0.0,0.0,0.0,-1.0426,-1.1945,-1.337,-1.4319,-1.457,-1.3899,-1.3424,-1.2494,-1.0853,-0.9367,0.0,0.0,0.0,0.0,0.0,0.0,0.0,0.0,0.0,0.0,0.0,0.0,0.0,0.0,0.0,0.0,0.0,0.0,0.0,0.0,0.0,0.0,0.0,0.0,0.0,0.0,0.0,0.0,0.0,0.0,0.0,0.0,0.0,0.0,0.0,0.0,0.0,0.0,0.0,0.0,0.0,0.0,0.0,0.0,0.0,0.0,0.0,0.0,0.0,0.0,0.0,0.0,0.0,0.0,0.0,0.0,0.0,0.0,0.0,0.0,0.0,0.0,0.0,0.0,0.0,0.0,0.0,0.0,0.0,0.0,0.0,0.0,0.0,0.0,0.0,0.0,0.0,0.0,0.0,0.0,0.0,0.0,0.0,0.0,0.0,0.0,0.0,0.0,0.0,0.0,0.0,0.0,0.0,0.0,0.0,0.0,0.0,0.0,0.0,0.0,0.0,0.0,-1.1891,-1.3105,-1.3675,-1.434,-1.4482,-1.3844,-1.3214,-1.221,-1.0711,-0.9354,0.0,0.0,0.0,0.0,0.0,0.0,0.0,0.0,0.0,0.0,0.0,0.0,0.0,0.0,0.0,0.0,0.0,0.0,0.0,0.0,0.0,0.0,0.0,0.0,0.0,0.0,0.0,0.0,0.0,0.0,0.0,0.0,0.0,0.0,0.0,0.0,0.0,0.0,0.0,0.0,0.0,0.0,0.0,0.0,0.0,0.0,0.0,0.0,0.0,0.0,0.0,0.0,0.0,0.0,0.0,0.0,0.0,0.0,0.0,0.0,0.0,0.0,0.0,0.0,0.0,0.0,0.0,0.0,0.0,0.0,0.0,0.0,0.0,0.0,0.0,0.0,0.0,0.0,0.0,0.0,0.0,0.0,0.0,0.0,0.0,0.0,0.0,0.0,0.0,0.0,0.0,0.0,0.0,0.0,0.0,0.0,0.0,0.0,0.0,0.0,0.0,0.0,-1.242,-1.3532,-1.3994,-1.4462,-1.4441,-1.3709,-1.2963,-1.1898,-1.0405,-0.9049,0.0,0.0,0.0,0.0,0.0,0.0,0.0,0.0,0.0,0.0,0.0,0.0,0.0,0.0,0.0,0.0,0.0,0.0,0.0,0.0,0.0,0.0,0.0,0.0,0.0,0.0,0.0,0.0,0.0,0.0,0.0,0.0,0.0,0.0,0.0,0.0,0.0,0.0,0.0,0.0,0.0,0.0,0.0,0.0,0.0,0.0,0.0,0.0,0.0,0.0,0.0,0.0,0.0,0.0,0.0,0.0,0.0,0.0,0.0,0.0,0.0,0.0,0.0,0.0,0.0,0.0,0.0,0.0,0.0,0.0,0.0,0.0,0.0,0.0,0.0,0.0,0.0,0.0,0.0,0.0,0.0,0.0,0.0,0.0,0.0,0.0,0.0,0.0,0.0,0.0,0.0,0.0,0.0,0.0,0.0,0.0,0.0,0.0,0.0,0.0,0.0,0.0,-1.2474,-1.3539,0.0,-1.4333,-1.4258,-1.3417,-1.2745,-1.1728,-1.0229,0.0,0.0,0.0,0.0,0.0,0.0,0.0,0.0,0.0,0.0,0.0,0.0,0.0,0.0,0.0,0.0,0.0,0.0,0.0,0.0,0.0,0.0,0.0,0.0,0.0,0.0,0.0,0.0,0.0,0.0,0.0,0.0,0.0,0.0,0.0,0.0,0.0,0.0,0.0,0.0,0.0,0.0,0.0,0.0,0.0,0.0,0.0,0.0,0.0,0.0,0.0,0.0,0.0,0.0,0.0,0.0,0.0,0.0,0.0,0.0,0.0,0.0,0.0,0.0,0.0,0.0,0.0,0.0,0.0,0.0,0.0,0.0,0.0,0.0,0.0,0.0,0.0,0.0,0.0,0.0,0.0,0.0,0.0,0.0,0.0,0.0,0.0,0.0,0.0,0.0,0.0,0.0,0.0,0.0,0.0,0.0,0.0,0.0,0.0,0.0,0.0,0.0,-1.0975,-1.2474,-1.3498,0.0,-1.4129,-1.4027,-1.318,-1.2474,-1.1477,-1.0004,0.0,0.0,0.0,0.0,0.0,0.0,0.0,0.0,0.0,0.0,0.0,0.0,0.0,0.0,0.0,0.0,0.0,0.0,0.0,0.0,0.0,0.0,0.0,0.0,0.0,0.0,0.0,0.0,0.0,0.0,0.0,0.0,0.0,0.0,0.0,0.0,0.0,0.0,0.0,0.0,0.0,0.0,0.0,0.0,0.0,0.0,0.0,0.0,0.0,0.0,0.0,0.0,0.0,0.0,0.0,0.0,0.0,0.0,0.0,0.0,0.0,0.0,0.0,0.0,0.0,0.0,0.0,0.0,0.0,0.0,0.0,0.0,0.0,0.0,0.0,0.0,0.0,0.0,0.0,0.0,0.0,0.0,0.0,0.0,0.0,0.0,0.0,0.0,0.0,0.0,0.0,0.0,0.0,0.0,0.0,0.0,0.0,0.0,0.0,0.0,0.0,0.0,-1.0989,-1.2467,-1.3458,-1.3607,-1.3892,-1.377,-1.3024,-1.2142,-1.1111,0.0,0.0,0.0,0.0,0.0,0.0,0.0,0.0,0.0,0.0,0.0,0.0,0.0,0.0,0.0,0.0,0.0,0.0,0.0,0.0,0.0,0.0,0.0,0.0,0.0,0.0,0.0,0.0,0.0,0.0,0.0,0.0,0.0,0.0,0.0,0.0,0.0,0.0,0.0,0.0,0.0,0.0,0.0,0.0,0.0,0.0,0.0,0.0,0.0,0.0,0.0,0.0,0.0,0.0,0.0,0.0,0.0,0.0,0.0,0.0,0.0,0.0,0.0,0.0,0.0,0.0,0.0,0.0,0.0,0.0,0.0,0.0,0.0,0.0,0.0,0.0,0.0,0.0,0.0,0.0,0.0,0.0,0.0,0.0,0.0,0.0,0.0,0.0,0.0,0.0,0.0,0.0,0.0,0.0,0.0,0.0,0.0,0.0,0.0,0.0,0.0,0.0,0.0,-1.0826,-1.223,-1.3186,-1.3444,-1.3729,-1.3654,-1.3017,-1.2427,-1.1491,-1.0011,0.0,0.0,0.0,0.0,0.0,0.0,0.0,0.0,0.0,0.0,0.0,0.0,0.0,0.0,0.0,0.0,0.0,0.0,0.0,0.0,0.0,0.0,0.0,0.0,0.0,0.0,0.0,0.0,0.0,0.0,0.0,0.0,0.0,0.0,0.0,0.0,0.0,0.0,0.0,0.0,0.0,0.0,0.0,0.0,0.0,0.0,0.0,0.0,0.0,0.0,0.0,0.0,0.0,0.0,0.0,0.0,0.0,0.0,0.0,0.0,0.0,0.0,0.0,0.0,0.0,0.0,0.0,0.0,0.0,0.0,0.0,0.0,0.0,0.0,0.0,0.0,0.0,0.0,0.0,0.0,0.0,0.0,0.0,0.0,0.0,0.0,0.0,0.0,0.0,0.0,0.0,0.0,0.0,0.0,0.0,0.0,0.0,0.0,0.0,0.0,0.0,0.0,-1.0685,-1.2128,-1.3051,-1.3288,-1.358,-1.3539,-1.301,-1.2549,-1.1674,-1.0229,0.0,0.0,0.0,0.0,0.0,0.0,0.0,0.0,0.0,0.0,0.0,0.0,0.0,0.0,0.0,0.0,0.0,0.0,0.0,0.0,0.0,0.0,0.0,0.0,0.0,0.0,0.0,0.0,0.0,0.0,0.0,0.0,0.0,0.0,0.0,0.0,0.0,0.0,0.0,0.0,0.0,0.0,0.0,0.0,0.0,0.0,0.0,0.0,0.0,0.0,0.0,0.0,0.0,0.0,0.0,0.0,0.0,0.0,0.0,0.0,0.0,0.0,0.0,0.0,0.0,0.0,0.0,0.0,0.0,0.0,0.0,0.0,0.0,0.0,0.0,0.0,0.0,0.0,0.0,0.0,0.0,0.0,0.0,0.0,0.0,0.0,0.0,0.0,0.0,0.0,0.0,0.0,0.0,0.0,0.0,0.0,0.0,0.0,0.0,0.0,0.0,0.0,-1.0664,-1.2094,-1.2976,-1.3119,-1.3403,-1.3403,-1.2956,-1.2535,-1.1714,-1.0365,0.0,0.0,0.0,0.0,0.0,0.0,0.0,0.0,0.0,0.0,0.0,0.0,0.0,0.0,0.0,0.0,0.0,0.0,0.0,0.0,0.0,0.0,0.0,0.0,0.0,0.0,0.0,0.0,0.0,0.0,0.0,0.0,0.0,0.0,0.0,0.0,0.0,0.0,0.0,0.0,0.0,0.0,0.0,0.0,0.0,0.0,0.0,0.0,0.0,0.0,0.0,0.0,0.0,0.0,0.0,0.0,0.0,0.0,0.0,0.0,-2.0802,0.0,0.0,0.0,0.0,0.0,0.0,0.0,0.0,0.0,0.0,0.0,0.0,0.0,0.0,0.0,0.0,0.0,0.0,0.0,0.0,0.0,0.0,0.0,0.0,0.0,0.0,0.0,0.0,0.0,0.0,0.0,0.0,0.0,0.0,0.0,0.0,0.0,0.0,0.0,0.0,0.0,-1.0575,-1.1843,-1.2657,-1.2807,-1.3091,-1.3085,-1.2637,-1.2413,-1.1714,-1.0365,-0.9347,0.0,0.0,0.0,0.0,0.0,0.0,0.0,0.0,0.0,0.0,0.0,0.0,0.0,0.0,0.0,0.0,0.0,0.0,0.0,0.0,0.0,0.0,0.0,0.0,0.0,0.0,0.0,0.0,0.0,0.0,0.0,0.0,0.0,0.0,0.0,0.0,0.0,0.0,0.0,0.0,0.0,0.0,0.0,0.0,0.0,0.0,0.0,0.0,0.0,0.0,0.0,0.0,0.0,0.0,0.0,0.0,0.0,0.0,0.0,0.0,-2.1991,0.0,0.0,0.0,0.0,0.0,0.0,0.0,0.0,0.0,0.0,0.0,0.0,0.0,0.0,0.0,0.0,0.0,0.0,0.0,0.0,0.0,0.0,0.0,0.0,0.0,0.0,0.0,0.0,0.0,0.0,0.0,0.0,0.0,0.0,0.0,0.0,0.0,0.0,0.0,0.0,-1.0439,-1.166,-1.2454,-1.2603,-1.2888,-1.2915,-1.2535,-1.2372,-1.1742,-1.0466,-0.9605,0.0,0.0,0.0,0.0,0.0,0.0,0.0,0.0,0.0,0.0,0.0,0.0,0.0,0.0,0.0,0.0,0.0,0.0,0.0,0.0,0.0,0.0,0.0,0.0,0.0,0.0,0.0,0.0,0.0,0.0,0.0,0.0,0.0,0.0,0.0,0.0,0.0,0.0,0.0,0.0,0.0,0.0,0.0,0.0,0.0,0.0,0.0,0.0,0.0,0.0,0.0,0.0,0.0,-2.4517,-2.517,-2.5184,-2.5785,-2.6052,-2.5999,-2.5144,-2.4396,-2.3714,0.0,0.0,0.0,0.0,0.0,0.0,0.0,0.0,0.0,0.0,0.0,0.0,0.0,0.0,0.0,0.0,0.0,0.0,0.0,0.0,0.0,0.0,0.0,0.0,0.0,-1.0412,-1.008,0.0,0.0,0.0,0.0,0.0,0.0,0.0,0.0,0.0,0.0,0.0,0.0,-1.0344,-1.1545,-1.2332,-1.2454,-1.2712,-1.2759,-1.2454,-1.2291,-1.1728,-1.0602,-0.9883,-0.8988,0.0,0.0,0.0,0.0,0.0,0.0,0.0,0.0,0.0,0.0,0.0,0.0,0.0,0.0,0.0,0.0,0.0,0.0,0.0,0.0,0.0,0.0,0.0,0.0,0.0,0.0,0.0,0.0,0.0,0.0,0.0,0.0,-0.7753,-0.8085,0.0,0.0,0.0,0.0,0.0,0.0,0.0,0.0,0.0,0.0,0.0,0.0,0.0,0.0,-2.2347,-2.3847,-2.4974,-2.5792,-2.6771,-2.7295,-2.7321,-2.7923,-2.8203,-2.8217,-2.8577,0.0,-2.5558,-2.493,0.0,0.0,0.0,0.0,0.0,0.0,0.0,0.0,0.0,0.0,0.0,0.0,0.0,0.0,0.0,0.0,0.0,0.0,0.0,0.0,0.0,0.0,-1.147,-1.1599,-1.1416,-1.1179,0.0,-1.029,-0.9408,-0.8703,-0.8309,0.0,0.0,0.0,0.0,0.0,0.0,0.0,-1.0358,-1.1545,-1.2298,-1.2318,-1.2467,-1.244,-1.2142,-1.1979,-1.1545,-1.0744,-1.0236,-0.9544,-0.8601,-0.7868,0.0,0.0,0.0,0.0,0.0,0.0,0.0,0.0,0.0,0.0,0.0,0.0,0.0,0.0,0.0,0.0,0.0,0.0,0.0,0.0,0.0,0.0,0.0,0.0,0.0,0.0,0.0,0.0,0.0,-0.7916,-0.8648,-0.8866,-0.8967,-0.9022,0.0,0.0,0.0,0.0,0.0,0.0,0.0,0.0,0.0,-2.1234,-2.3466,-2.5005,-2.5889,-2.7051,-2.7958,-2.8645,-2.9144,-2.9432,-2.9459,-2.9887,-2.9993,-2.9847,-3.0114,-2.9539,-2.8323,-2.6894,-2.5531,-2.4209,0.0,0.0,0.0,0.0,-2.1817,-2.2031,-2.2458,-2.212,0.0,0.0,0.0,0.0,0.0,0.0,0.0,0.0,0.0,0.0,0.0,0.0,0.0,-1.1945,-1.1864,-1.1721,-1.1552,-1.1158,-1.0561,0.0,-0.9089,-0.8634,-0.7997,0.0,0.0,0.0,0.0,0.0,-1.0378,-1.1321,-1.1945,-1.2026,-1.2162,-1.2169,-1.1952,-1.187,-1.1552,-1.0826,-1.0582,-1.0025,-0.9123,-0.8533,-0.7862,0.0,0.0,0.0,0.0,0.0,0.0,0.0,0.0,0.0,0.0,0.0,0.0,0.0,0.0,0.0,0.0,0.0,0.0,0.0,0.0,0.0,0.0,0.0,0.0,0.0,0.0,0.0,0.0,-0.8825,-0.9582,-0.9754,-0.9917,-1.0005,0.0,0.0,0.0,0.0,0.0,0.0,-1.7739,-2.0656,-2.3005,-2.4533,-2.6622,-2.8003,-2.8591,-2.9406,-3.0034,-3.0474,-3.0768,-3.0902,-3.0915,-3.1209,-3.1223,-3.1022,-3.1022,-3.0808,-3.0327,-2.8484,-2.7108,-2.6039,-2.4569,-2.3995,-2.3968,-2.3647,-2.3741,-2.4048,-2.4422,-2.404,-2.3152,-2.2011,0.0,-1.6317,-1.4196,0.0,0.0,0.0,0.0,-1.1043,-1.1457,-1.187,-1.2176,-1.2176,-1.2176,-1.2101,-1.185,-1.1728,-1.1375,0.0,-0.9774,-0.933,-0.8798,0.0,0.0,0.0,0.0,-0.9747,-1.046,-1.1179,-1.1674,-1.1816,-1.1932,-1.1938,-1.1789,-1.1742,-1.1497,-1.0914,-1.0765,-1.0331,-0.9585,-0.9049,-0.8397,-0.7665,0.0,0.0,0.0,0.0,0.0,0.0,0.0,0.0,0.0,0.0,0.0,0.0,0.0,0.0,0.0,0.0,0.0,0.0,0.0,0.0,0.0,0.0,0.0,0.0,0.0,0.0,0.0,0.0,0.0,-1.0752,-1.0995,0.0,0.0,0.0,0.0,-1.3248,-1.5263,-1.7669,-2.0483,-2.2919,-2.5092,-2.6957,-2.8214,-2.9232,-2.982,-3.0421,-3.0742,-3.0768,-3.1062,-3.1209,-3.1209,-3.1517,-3.1637,-3.1623,-3.1623,-3.1303,-3.0675,-2.9459,-2.8577,-2.7953,-2.6479,-2.5825,-2.5785,-2.5491,-2.5571,-2.5905,-2.6466,-2.6107,-2.5193,-2.402,-1.9964,-1.5257,-1.3706,-1.2025,0.0,0.0,-1.1443,-1.1647,-1.1952,-1.225,-1.2481,-1.2481,-1.2481,-1.244,-1.2291,-1.2026,-1.1552,0.0,-1.0337,-0.9985,-0.9303,0.0,-0.8933,-0.9159,-0.951,-1.0019,-1.0629,-1.124,-1.1674,-1.1816,-1.1837,-1.1782,-1.164,-1.1497,-1.128,-1.09,-1.067,-1.0358,-1.0094,-0.9313,-0.871,-0.8286,-0.7346,0.0,0.0,0.0,0.0,0.0,0.0,0.0,0.0,0.0,0.0,0.0,0.0,0.0,0.0,0.0,0.0,0.0,0.0,0.0,0.0,0.0,0.0,0.0,0.0,0.0,0.0,0.0,0.0,-1.1762,-1.2196,0.0,0.0,-1.2135,-1.2896,-1.4993,-1.7719,-2.0444,-2.3089,-2.6086,-2.8162,-2.9216,-2.9997,-3.0541,-3.0755,-3.1156,-3.1356,-3.1356,-3.1463,-3.1517,-3.1517,-3.1623,-3.1664,-3.1664,-3.1463,-3.1263,-3.1009,-3.0221,-2.9432,-2.8631,-2.7805,-2.7444,-2.739,-2.6827,-2.6827,-2.7081,-2.7094,-2.6538,-2.5357,-2.2374,-1.8955,-1.5743,-1.4111,-1.264,-1.164,-1.1898,-1.2074,-1.221,-1.2318,-1.2494,-1.2623,-1.2522,-1.2501,-1.2461,-1.2318,-1.2128,-1.183,-1.1314,-1.0867,-1.0446,-1.008,-0.9815,-0.9707,-0.9856,-1.0012,-1.0263,-1.067,-1.0995,-1.124,-1.1389,-1.1402,-1.1382,-1.1328,-1.1192,-1.1023,-1.0745,-1.0609,-1.0358,-1.0059,-0.9612,-0.9157,-0.871,-0.7955,-0.728,0.0,0.0,0.0,0.0,0.0,0.0,0.0,0.0,0.0,0.0,0.0,0.0,0.0,0.0,0.0,0.0,0.0,0.0,0.0,0.0,0.0,0.0,0.0,0.0,0.0,0.0,-1.2101,-1.2603,-1.3146,-1.3437,-1.3342,-1.3193,-1.4006,-1.6273,-1.942,-2.232,-2.4849,-2.8067,-3.0047,-3.0635,-3.1022,-3.1276,-3.137,-3.157,-3.1664,-3.1664,-3.1664,-3.1664,-3.1664,-3.1664,-3.161,-3.1517,-3.1316,-3.1116,-3.0902,-3.0515,-2.9953,-2.9285,-2.8791,-2.8676,-2.8537,-2.8043,-2.7923,-2.7963,-2.7337,-2.6473,-2.5056,-2.1717,-1.8793,-1.6355,-1.4867,-1.3532,-1.2461,-1.2556,-1.2657,-1.2705,-1.2603,-1.2691,-1.2752,-1.2549,-1.2501,-1.2461,-1.2318,-1.2169,-1.1986,-1.1742,-1.1287,-1.0867,-1.0616,-1.0405,-1.029,-1.0344,-1.0351,-1.046,-1.0758,-1.082,-1.1002,-1.1145,-1.1234,-1.1124,-1.1023,-1.0928,-1.0698,-1.0507,-1.0351,-1.0154,-0.9849,-0.9612,-0.9293,-0.8892,-0.8197,-0.7522,-0.677,0.0,0.0,0.0,0.0,0.0,0.0,0.0,0.0,0.0,0.0,0.0,0.0,0.0,0.0,0.0,0.0,0.0,0.0,0.0,0.0,0.0,0.0,0.0,-1.0466,-1.1681,-1.2752,-1.3349,-1.3824,-1.4102,-1.4102,-1.3973,-1.4779,-1.712,-2.028,-2.321,-2.5639,-2.8754,-3.0648,-3.1223,-3.1236,-3.1383,-3.1664,-3.1664,-3.1664,-3.1664,-3.1664,-3.165,-3.165,-3.165,-3.149,-3.1209,-3.1209,-3.0875,-3.0354,-3.0354,-3.0181,-2.9887,-2.9606,-2.9499,-2.9459,-2.9152,-2.8845,-2.8379,-2.7225,-2.5908,-2.4388,-2.2363,-1.9665,-1.7095,-1.6013,-1.4487,-1.318,-1.318,-1.3173,-1.3105,-1.2813,-1.2847,-1.2881,-1.2576,-1.2501,-1.2461,-1.2318,-1.2169,-1.2013,-1.1864,-1.1599,-1.126,-1.0819,-1.0731,-1.0677,-1.0527,-1.05,0.0,-1.0833,-1.0873,-1.0995,-1.1124,-1.1214,-1.1023,-1.0731,-1.0697,-1.0507,-1.0011,-0.989,-0.9741,-0.9605,-0.9306,-0.9076,-0.8878,-0.8065,-0.7244,-0.6538,0.0,0.0,0.0,0.0,0.0,0.0,0.0,0.0,0.0,0.0,0.0,0.0,0.0,0.0,0.0,0.0,0.0,0.0,0.0,0.0,0.0,0.0,-1.0914,-1.126,-1.2372,-1.3336,-1.3831,-1.438,-1.4767,-1.4869,-1.4841,-1.5767,-1.8139,-2.1114,-2.3914,-2.6336,-2.9335,-3.1156,-3.153,-3.1543,-3.1583,-3.1664,-3.1664,-3.1664,-3.1664,-3.145,-3.1343,-3.1343,-3.1129,-3.0996,-3.0902,-3.0688,-3.0515,-3.0341,-3.0127,-2.9993,-2.9913,-2.9833,-2.9793,-2.974,-2.9232,-2.8711,-2.8172,-2.7161,-2.5921,-2.4326,-2.1937,-1.942,-1.7112,-1.5601,-1.4318,-1.3336,-1.3336,-1.3261,-1.3132,-1.2942,-1.2847,-1.2745,-1.2549,-1.2501,-1.2461,-1.2318,-1.2169,-1.2013,-1.1864,-1.1681,-1.1484,-1.1246,-1.1029,-1.0806,-1.0826,-1.0731,0.0,-1.0772,-1.0785,-1.0758,-1.0683,-1.0677,-1.0602,-1.0419,-1.0195,-1.0012,-0.989,-0.9537,-0.9367,-0.9442,-0.9157,-0.8927,-0.8777,-0.8157,-0.7658,0.0,0.0,0.0,0.0,0.0,0.0,0.0,0.0,0.0,0.0,0.0,0.0,0.0,0.0,0.0,0.0,0.0,0.0,0.0,0.0,0.0,0.0,-1.1043,-1.1877,-1.2305,-1.3125,-1.3824,-1.4211,-1.4733,-1.5092,-1.5174,-1.5242,-1.6102,-1.8097,-2.1078,-2.3711,-2.5978,-2.9053,-3.0923,-3.1379,-3.1569,-3.1569,-3.1379,-3.107,-3.091,-3.0815,-3.0527,-3.0477,-3.0756,-3.0769,-3.0728,0.0,-3.0434,-3.0287,-3.0154,-2.986,-2.974,0.0,0.0,0.0,0.0,0.0,-2.8738,-2.8239,-2.7174,-2.5921,-2.4314,-2.2023,-1.9505,-1.7104,-1.5685,-1.4438,-1.3403,-1.3403,-1.3288,-1.3139,-1.2996,-1.2847,-1.2691,-1.2535,-1.2501,-1.2447,-1.2237,-1.2128,-1.1999,-1.1782,-1.1674,0.0,-1.1504,-1.124,-1.1016,-1.0887,-1.0819,-1.0717,-1.0717,-1.0717,-1.0683,-1.0595,-1.0527,-1.0432,-1.029,-1.0059,0.0,0.0,0.0,-0.9316,-0.9344,-0.9062,0.0,0.0,0.0,0.0,0.0,0.0,0.0,0.0,-0.6695,-0.6919,0.0,0.0,0.0,0.0,0.0,0.0,0.0,0.0,0.0,0.0,0.0,0.0,0.0,0.0,0.0,0.0,-1.1898,-1.2779,-1.3349,-1.3844,-1.4245,-1.4509,-1.4916,-1.5187,-1.5208,-1.533,-1.5997,-1.7543,-2.0298,-2.2712,-2.4875,0.0,0.0,0.0,0.0,-3.1365,-3.0769,-2.9942,-2.9507,-2.9375,-2.9098,-2.9343,-2.9898,-3.0425,-3.0555,-3.0314,-3.0314,-3.014,-2.9847,-2.9593,-2.9459,-2.9459,-2.9624,-2.9704,-2.9521,-2.8916,-2.8545,-2.8083,-2.6787,0.0,0.0,-2.2023,-1.941,-1.6926,-1.5845,-1.4514,-1.3397,-1.3376,-1.3268,-1.3119,-1.2969,-1.282,-1.2671,-1.2535,-1.2501,-1.242,-1.2128,-1.2135,-1.1972,-1.1681,-1.1619,-1.1619,-1.1619,-1.1362,-1.1118,-1.0989,-1.0826,-1.0717,-1.0717,-1.0717,-1.0711,-1.0697,0.0,0.0,-1.0263,-1.01,-0.9829,-0.9435,-0.9388,-0.9313,-0.9214,-0.9049,-0.8925,-0.8905,-0.8696,-0.8418,-0.8089,-0.811,-0.8116,-0.8103,-0.7706,-0.7726,0.0,0.0,0.0,0.0,0.0,0.0,0.0,0.0,0.0,0.0,0.0,0.0,0.0,0.0,0.0,-1.1355,-1.2366,-1.3173,-1.3532,-1.4177,-1.4631,-1.4692,-1.4984,-1.5228,-1.5357,-1.5391,-1.5986,-1.7397,-1.9198,-2.1232,-2.3364,-2.6505,0.0,-2.9638,-3.0998,-3.1178,-2.9999,-2.8671,-2.7864,-2.7673,0.0,0.0,-2.8578,-2.9637,-3.006,-3.0007,-3.0007,-2.9833,-2.9566,-2.9499,-2.9339,-2.9038,-2.8828,-2.8273,-2.7692,-2.7144,-2.6585,-2.5824,-2.4481,-2.3342,-2.2094,-1.9714,-1.7716,-1.6002,-1.492,-1.4013,0.0,-1.3254,-1.3112,-1.2969,-1.2813,-1.2657,-1.2535,-1.2508,-1.2501,-1.242,-1.2128,-1.2135,-1.1972,-1.1681,-1.1619,-1.1619,-1.1619,-1.1362,-1.122,-1.1124,-1.0894,-1.0717,-1.0717,-1.0717,-1.067,-1.0548,-1.0405,-1.0256,-1.0044,-0.9849,-0.9659,-0.9571,-0.9449,-0.9313,-0.9214,-0.9245,-0.9239,-0.9173,-0.9111,-0.894,-0.871,-0.8879,-0.8995,-0.8982,-0.8479,-0.8445,0.0,0.0,0.0,0.0,0.0,0.0,0.0,0.0,0.0,0.0,0.0,-0.9123,-0.9713,0.0,-1.1362,-1.1965,-1.2813,-1.3478,-1.3702,-1.4251,-1.4652,-1.4733,-1.5004,-1.5215,-1.5289,-1.5364,-1.5759,-1.6773,-1.818,-1.9864,-2.1712,-2.4626,-2.6676,-2.7616,-2.9152,-2.9218,-2.771,-2.6325,-2.545,-2.507,-2.4992,-2.5525,-2.6544,-2.7879,-2.8462,-2.8449,-2.8309,-2.8182,-2.8118,-2.7837,-2.7457,-2.7116,-2.6241,-2.5969,-2.6043,-2.5437,-2.4396,-2.3137,-2.2019,-2.0819,-1.9547,-1.7708,-1.6113,-1.4727,-1.4077,-1.3624,-1.337,-1.3214,-1.3071,-1.2929,-1.2773,-1.2617,-1.2501,-1.2501,-1.2501,-1.242,-1.2128,-1.2135,-1.1972,-1.1681,-1.1619,-1.1619,-1.1619,-1.1362,-1.1234,-1.1234,-1.0907,-1.0717,-1.0717,-1.0717,-1.069,-1.0616,-1.0473,-1.0324,-1.0175,-0.9822,-0.9612,-0.9612,-0.9462,-0.9381,-0.9381,-0.9381,-0.9381,-0.9381,-0.9306,-0.9232,-0.9157,-0.9232,-0.9364,-0.9374,-0.9225,-0.9232,0.0,0.0,0.0,0.0,0.0,0.0,0.0,0.0,-0.814,-0.8832,-0.9449,-1.0032,-1.0568,-1.1375,-1.2088,-1.2481,-1.318,-1.3709,-1.3738,-1.4224,-1.4557,-1.4679,-1.4957,-1.514,-1.514,-1.5276,-1.5568,-1.5969,-1.7069,-1.8293,-1.9868,-2.2335,-2.4094,-2.496,-2.6481,-2.6462,-2.4804,-2.3562,-2.2713,-2.2217,-2.239,-2.2943,-2.3962,-2.5434,-2.6162,-2.615,-2.5846,-2.5783,-2.5689,-2.5219,-2.4804,-2.4446,-2.3159,-2.3097,-2.3598,-2.3163,-2.2002,-2.0539,-1.9681,-1.8522,-1.7314,-1.6058,-1.4749,-1.3749,-1.3485,-1.3376,-1.3322,-1.3173,-1.303,-1.2881,-1.2725,-1.2596,-1.2501,-1.2501,-1.2481,-1.2386,-1.2121,-1.204,-1.1938,-1.1674,-1.1619,-1.1619,-1.1619,-1.1362,-1.1234,-1.1234,-1.0907,-1.0717,-1.0717,-1.0717,-1.0717,-1.0717,-1.0582,-1.0426,-1.0249,-0.9876,-0.9652,-0.9652,-0.9537,-0.9537,-0.9686,-0.9578,-0.9571,-0.9693,-0.9578,-0.9496,-0.9469,-0.9496,-0.9578,-0.97,-0.9842,-0.989,-0.7146,-0.7422,-0.788,-0.8099,-0.8343,-0.8581,0.0,0.0,-0.932,-0.9862,-1.0378,-1.09,-1.1233,-1.1911,-1.2488,-1.2671,-1.3329,-1.3824,-1.3838,-1.4224,-1.4516,-1.4536,-1.4808,-1.4991,-1.4991,-1.5126,-1.5262,-1.5493,-1.5629,-1.628,-1.7469,-1.92,-2.0532,-2.1573,-2.3169,-2.3341,-2.2005,-2.0561,-1.9636,-1.9404,-1.9352,-1.9891,-2.0917,-2.2382,-2.3025,-2.2994,-2.2571,-2.235,-2.2231,-2.1884,-2.1684,-2.1566,-2.0626,-1.9603,-1.875,-1.9902,-1.9718,-1.8663,-1.7701,-1.6982,-1.6223,-1.5093,-1.4266,-1.362,-1.3451,-1.3308,-1.3166,-1.3024,-1.2874,-1.2718,-1.2569,-1.2515,-1.2501,-1.2501,-1.2406,-1.2271,-1.2101,-1.1952,-1.1809,-1.1653,-1.1619,-1.1619,-1.1619,-1.1362,-1.1234,-1.1234,-1.0907,-1.0717,-1.0717,-1.0717,-1.0717,-1.0717,-1.0582,-1.0378,-1.0038,-0.9903,-0.9795,-0.9795,-0.9781,-0.9842,-0.993,-0.9923,-0.9923,-0.9936,-0.9923,-0.9849,-0.9774,-0.9849,-0.9923,-0.9943,-1.0161,-1.0154,-0.7848,-0.8235,-0.8743,0.0,-0.9273,-0.9551,-0.9788,-1.0005,-1.029,-1.0738,-1.124,-1.166,-1.1877,-1.2379,-1.2793,0.0,-1.3342,-1.3715,-1.3715,-1.3953,-1.4122,-1.4122,-1.4394,-1.4685,-1.4943,-1.5025,-1.512,-1.5269,-1.5357,-1.5725,-1.6546,-1.7865,-1.8918,-1.9483,-2.0791,-2.0785,-1.9575,-1.8632,-1.8038,-1.7608,-1.7872,-1.8431,-1.9184,-2.0279,-2.0704,-2.0552,-2.0252,-2.0009,-1.9812,-1.9728,-1.9603,-1.9516,-1.8645,-1.778,-1.7088,-1.7613,-1.7096,-1.5946,-1.5498,-1.5162,-1.4894,-1.4223,-1.3851,-1.36,-1.3444,-1.3295,-1.3146,-1.3003,-1.2847,-1.2698,-1.2542,-1.2501,-1.2501,-1.2501,-1.2393,-1.225,-1.2094,-1.1938,-1.1789,-1.1647,-1.1619,-1.1619,-1.1619,-1.1362,-1.1234,-1.1234,-1.0907,-1.0717,-1.0717,-1.0717,-1.0717,-1.0717,-1.0507,-1.0317,-1.0195,-0.9958,-0.9822,-0.9822,-0.9842,-0.9923,-0.9984,-1.0134,-1.0181,-1.0181,-1.0181,-1.0154,-1.0086,-1.0154,-1.0181,-1.0188,-1.0337,-1.0371,-0.8425,-0.8886,0.0,-0.9666,-0.9957,-1.0287,-1.0568,-1.0738,-1.0948,-1.1314,-1.1714,-1.2033,-1.2142,-1.2535,-1.2847,-1.2888,-1.3275,-1.358,-1.362,-1.3749,-1.3838,-1.3838,-1.4034,-1.4333,-1.4746,-1.4896,-1.5011,-1.512,-1.5262,-1.5533,-1.5913,-1.6774,-1.7352,-1.7514,-1.8252,-1.829,-1.7336,-1.6954,-1.658,-1.6306,-1.6673,-1.6954,-1.7421,-1.8018,-1.8192,-1.7887,-1.7697,-1.7524,-1.7359,-1.7359,-1.7359,-1.7271,-1.6569,-1.613,-1.5778,-1.582,-1.5111,-1.4224,-1.4109,-1.4021,-1.3912,-1.3695,-1.36,-1.3546,-1.3437,-1.3268,-1.3091,-1.307,-1.282,-1.2644,-1.2528,-1.2501,-1.2501,-1.2501,-1.2359,-1.2196,-1.2088,-1.1911,-1.1742,-1.164,-1.1619,-1.1606,-1.1565,-1.1341,-1.1151,-1.1111,-1.0887,-1.0717,-1.0717,-1.0717,-1.0704,-1.0663,-1.0432,-1.0263,-1.0222,-0.9971,-0.9822,-0.9822,-0.9903,-1.0004,-1.0051,-1.0256,-1.0337,-1.0337,-1.0337,-1.0317,-1.0283,-1.0317,-1.0337,-1.0344,-1.0487,-1.0555,-0.8798,0.0,-0.9836,-0.9936,-1.0415,-1.0853,-1.0867,-1.105,-1.1199,-1.1355,-1.1626,-1.1837,-1.1843,-1.221,-1.2562,-1.2712,-1.3112,-1.3458,-1.3607,-1.3749,-1.3838,-1.3838,-1.3851,-1.3973,0.0,-1.4713,-1.497,-1.4977,-1.5106,-1.5187,-1.5187,-1.5288,-1.5288,-1.5281,-1.5375,-1.5375,-1.5275,-1.5275,-1.5275,-1.5275,-1.5275,-1.5275,-1.5275,-1.5224,-1.5073,-1.4824,-1.4667,-1.4517,-1.4387,-1.4387,-1.4387,-1.4387,-1.4387,-1.4387,-1.4367,-1.4223,-1.4162,-1.4082,-1.4075,-1.3885,-1.3641,-1.3634,-1.3532,-1.3403,-1.3403,-1.32,-1.305,-1.2963,-1.2739,-1.2508,-1.2501,-1.2501,-1.2501,-1.2501,-1.2277,-1.2067,-1.206,-1.183,-1.1626,-1.1619,-1.1619,-1.1572,-1.1423,-1.1267,-1.1118,-1.0907,-1.0819,-1.0717,-1.0717,-1.0717,-1.0663,-1.0514,-1.0371,-1.0222,-1.0004,-0.9849,-0.9822,-0.9822,-0.9903,-1.0114,-1.027,-1.0412,-1.0487,-1.0487,-1.0487,-1.0419,-1.0283,-1.0419,-1.0487,-1.0487,-1.0643,-1.0711,-0.911,0.0,-1.0209,-1.0496,-1.0954,-1.1396,-1.1396,-1.1586,-1.1721,-1.1572,-1.1619,-1.1687,-1.1687,-1.1891,-1.2142,-1.24,-1.2813,-1.3159,-1.3308,-1.3458,-1.3546,-1.3546,-1.3641,0.0,0.0,0.0,0.0,-1.4801,-1.4957,-1.5038,-1.5038,-1.5133,-1.5181,-1.5181,-1.5181,-1.5181,-1.5181,-1.5181,-1.5181,-1.5181,-1.5086,-1.4991,-1.4882,-1.4733,-1.4638,-1.4577,-1.4434,-1.4346,-1.4299,-1.4299,-1.4299,-1.4299,-1.4299,-1.4238,-1.4143,-1.4089,-1.3946,-1.3777,-1.3777,-1.3715,-1.3614,-1.3512,-1.3444,-1.3383,-1.3281,-1.3112,-1.2942,-1.2834,-1.2657,-1.2501,-1.2501,-1.2501,-1.2481,-1.2386,-1.221,-1.2033,-1.1932,-1.1755,-1.1619,-1.1619,-1.1619,-1.1572,-1.1416,-1.1267,-1.1077,-1.0833,-1.0751,-1.0717,-1.0717,-1.0717,-1.0704,-1.0649,-1.0426,-1.0256,-1.0209,-0.9964,-0.9863,-0.9903,-1.012,-1.027,-1.0412,-1.0561,-1.0643,-1.0643,-1.0643,-1.0622,-1.0575,-1.0622,-1.0643,-1.0643,-1.0697,-1.0717,-0.9496,-1.0059,-1.0602,-1.0941,-1.1328,-1.1619,-1.1619,-1.1721,-1.1755,-1.1504,-1.1369,-1.1301,-1.1301,-1.1457,-1.1708,-1.2067,-1.2549,-1.2949,-1.3146,-1.3302,-1.3403,-1.3403,-1.3485,0.0,0.0,0.0,0.0,-1.4557,-1.4821,-1.497,-1.497,-1.5106,-1.5181,-1.5181,-1.5181,-1.5181,-1.5181,-1.5181,-1.516,-1.5106,-1.4957,-1.4835,-1.4733,-1.4584,-1.4509,-1.4502,-1.436,-1.4299,-1.4299,-1.4299,-1.4299,-1.4292,-1.4238,-1.4156,-1.4061,-1.3953,-1.379,-1.3627,-1.3627,-1.3593,-1.3532,-1.3431,-1.3363,-1.3302,-1.32,-1.3037,-1.2861,-1.2759,-1.2617,-1.2501,-1.2501,-1.2501,-1.2467,-1.2325,-1.2176,-1.202,-1.1864,-1.1721,-1.1619,-1.1619,-1.1619,-1.1572,-1.1416,-1.1219,-1.1002,-1.0758,-1.0717,-1.0717,-1.0717,-1.0717,-1.0697,-1.0643,-1.0466,-1.031,-1.0209,-1.0066,-1.0005,-0.9984,-1.0243,-1.0399,-1.0487,-1.0636,-1.0717,-1.0717,-1.0717,-1.0717,-1.0717,-1.0717,-1.0717,-1.0717,-1.0717,-1.0717,-0.9896,-1.0456,-1.0934,-1.1151,-1.1409,-1.1626,-1.1613,-1.1497,-1.1341,-1.1234,-1.088,-1.0663,0.0,0.0,-1.1246,-1.1721,-1.2311,-1.2813,-1.3119,-1.3302,-1.3403,0.0,0.0,0.0,0.0,0.0,0.0,-1.4245,0.0,-1.4936,-1.4943,-1.5079,-1.516,-1.516,-1.516,-1.516,-1.516,-1.516,-1.5086,-1.4943,-1.4801,-1.4726,-1.4713,-1.457,-1.4502,-1.4496,-1.436,-1.4299,-1.4299,-1.4299,-1.4292,-1.4272,-1.4129,-1.4061,-1.4014,-1.3736,-1.3627,-1.3614,-1.3614,-1.3519,-1.3397,-1.339,-1.3288,-1.3166,-1.3152,-1.2956,-1.2725,-1.2718,-1.2617,-1.2501,-1.2501,-1.2501,-1.2467,-1.2318,-1.2169,-1.202,-1.1857,-1.1714,-1.1619,-1.1619,-1.1613,-1.1558,-1.1416,-1.1145,-1.0833,-1.0751,-1.0724,-1.0717,-1.0717,-1.0717,-1.0663,-1.0521,-1.0493,-1.0378,-1.0031,-1.0202,-1.0222,-1.0017,-1.0337,-1.0493,-1.05,-1.0643,-1.0717,-1.0717,-1.0717,-1.0717,-1.0717,-1.0717,-1.0717,-1.0717,-1.0717,-1.0717,-1.0399,-1.0907,-1.1314,-1.1463,-1.164,-1.1721,-1.1497,-1.1416,-1.1253,-1.0765,-1.0249,-0.9924,0.0,0.0,0.0,-1.1206,-1.1932,0.0,-1.2956,-1.3234,0.0,-1.3403,0.0,-1.3417,-1.3458,-1.3559,0.0,0.0,-1.4278,-1.4516,-1.4624,-1.4774,-1.4855,-1.4855,-1.4855,-1.4855,-1.4855,-1.4855,-1.478,-1.4631,-1.459,-1.4516,-1.4414,-1.4373,-1.4353,-1.4353,-1.4319,-1.4299,-1.4299,-1.4299,-1.4231,-1.4129,-1.4089,-1.3939,-1.3736,-1.3654,-1.3559,-1.3458,-1.3458,-1.3437,-1.3383,-1.3268,-1.3207,-1.3132,-1.2908,-1.2793,-1.2705,-1.2589,-1.2528,-1.2501,-1.2501,-1.2501,-1.2433,-1.2182,-1.2088,-1.1993,-1.1728,-1.1647,-1.1619,-1.1619,-1.1531,-1.1436,-1.1396,-1.1145,-1.0867,-1.0826,-1.0725,-1.0717,-1.0717,-1.0717,-1.0704,-1.0663,-1.0561,-1.046,-1.0385,-1.0317,-1.031,-1.0378,-1.0446,-1.0541,-1.0656,-1.0697,-1.0717,-1.0717,-1.0717,-1.0717,-1.0717,-1.0717,-1.0717,-1.0717,-1.0717,-1.0717,-1.0785,-1.1199,-1.1511,-1.1599,-1.1626,-1.1579,-1.1341,-1.109,-1.0751,-1.0215,-0.9632,0.0,-0.932,0.0,0.0,0.0,0.0,0.0,-1.2786,-1.3112,-1.3322,0.0,-1.3403,0.0,-1.3492,-1.358,-1.3715,0.0,-1.4163,-1.436,-1.4502,-1.4658,-1.474,-1.474,-1.474,-1.474,-1.474,-1.4672,-1.4597,-1.4509,-1.4448,-1.438,-1.4299,-1.4299,-1.4299,-1.4299,0.0,-1.4299,-1.4299,-1.4299,-1.4211,-1.4061,-1.3994,-1.3831,-1.362,-1.3553,-1.3471,-1.3403,-1.3403,-1.3403,-1.3376,-1.322,-1.3132,-1.3037,-1.28,-1.2684,-1.261,-1.2528,-1.2501,-1.2501,-1.2501,-1.2501,-1.2427,-1.2135,-1.2135,-1.1979,-1.1681,-1.1619,-1.1619,-1.1619,-1.1552,-1.147,-1.1402,-1.1253,-1.1097,-1.09,-1.0806,-1.0799,-1.0731,-1.0717,-1.0717,-1.0717,-1.0643,-1.0568,-1.05,-1.048,-1.048,-1.0493,-1.0555,-1.0629,-1.0717,-1.0717,-1.0717,-1.0717,-1.0717,-1.0717,-1.0717,-1.0717,-1.0717,-1.0717,-1.0717,-1.0717,-1.1111,-1.1416,-1.164,-1.1626,-1.1504,-1.1335,-1.1124,-1.0602,-1.0025,-0.9557,0.0,-0.8547,-0.8581,-0.894,-0.949,-1.0276,0.0,-1.1986,-1.2589,-1.2963,-1.322,-1.3356,-1.3403,-1.3485,-1.3614,-1.3648,-1.377,-1.4048,-1.4197,-1.4333,-1.4475,-1.4611,-1.4679,-1.4679,-1.4679,-1.4679,-1.4679,-1.455,-1.4482,-1.4482,-1.436,-1.4299,-1.4299,-1.4299,-1.4299,-1.4299,0.0,0.0,-1.4299,-1.4278,-1.4177,-1.4027,-1.3871,-1.3722,-1.3587,-1.3451,-1.3403,-1.3403,-1.3403,-1.3403,-1.337,-1.32,-1.3064,-1.2929,-1.2752,-1.261,-1.2501,-1.2501,-1.2501,-1.2501,-1.2501,-1.2501,-1.2427,-1.2135,-1.2135,-1.1979,-1.1681,-1.1619,-1.1619,-1.1619,-1.1619,-1.1579,-1.1443,-1.1402,-1.1307,-1.0975,-1.0921,-1.0921,-1.0772,-1.0731,-1.0717,-1.0717,-1.0717,-1.0663,-1.0534,-1.0643,-1.0663,-1.0527,-1.0649,-1.0717,-1.0717,-1.0717,-1.0717,-1.0717,-1.0717,-1.0717,-1.0717,-1.0717,-1.0717,-1.0717,-1.0717,-1.0717,-1.1274,-1.1565,-1.1769,-1.1647,-1.1504,-1.1253,-1.0731,-1.0053,0.0,0.0,-0.8106,-0.7678,-0.7923,-0.8241,-0.8784,-0.9774,0.0,0.0,0.0,0.0,-1.3186,0.0,0.0,0.0,0.0,0.0,0.0,0.0,0.0,0.0,-1.4326,-1.436,-1.4373,-1.4373,-1.4373,-1.4373,-1.4373,-1.4346,-1.434,-1.434,-1.4312,-1.4299,-1.4299,-1.4299,-1.4299,-1.4299,0.0,0.0,-1.4292,-1.4163,-1.4021,-1.3865,-1.3722,-1.3573,-1.3437,-1.341,-1.3403,-1.3403,-1.3403,-1.3403,-1.3356,-1.3085,-1.2983,-1.2908,-1.263,-1.2522,-1.2501,-1.2501,-1.2501,-1.2501,-1.2501,-1.2501,-1.2427,-1.2135,-1.2135,-1.1979,-1.1681,-1.1619,-1.1619,-1.1619,-1.1619,-1.1613,-1.1586,-1.1477,-1.1375,-1.1321,-1.1206,-1.1077,-1.086,-1.0799,-1.0717,-1.0717,-1.0717,-1.0711,-1.0683,-1.0704,-1.0711,-1.0683,-1.0704,-1.0717,-1.0717,-1.0717,-1.0717,-1.0717,-1.0717,-1.0717,-1.0717,-1.0717,-1.0717,-1.0717,-1.0717,-1.0717,-1.1518,-1.1721,-1.1796,-1.1653,-1.1443,-1.1097,-1.0412,0.0,0.0,0.0,-0.7604,-0.7204,-0.7375,0.0,0.0,0.0,0.0,0.0,0.0,0.0,0.0,0.0,0.0,0.0,0.0,0.0,0.0,0.0,0.0,0.0,-1.4299,-1.4299,-1.4299,-1.4299,-1.4299,-1.4299,-1.4299,-1.4299,-1.4299,-1.4299,-1.4299,-1.4299,-1.4299,-1.4299,-1.4299,-1.4299,-1.4299,0.0,-1.4285,-1.4136,-1.398,-1.3824,-1.3682,-1.3539,-1.3403,-1.3403,-1.3403,-1.3403,-1.3403,-1.3403,-1.3349,-1.3057,-1.2963,-1.2901,-1.2596,-1.2501,-1.2501,-1.2501,-1.2501,-1.2501,-1.2501,-1.2501,-1.2447,-1.223,-1.206,-1.1884,-1.1667,-1.1619,-1.1619,-1.1619,-1.1619,-1.1619,-1.1619,-1.1558,-1.1484,-1.1402,-1.1328,-1.1199,-1.0907,-1.082,-1.0806,-1.0731,-1.0717,-1.0717,-1.0717,-1.0717,-1.0717,-1.0717,-1.0717,-1.0717,-1.0717,-1.0717,-1.0717,-1.0717,-1.0717,-1.0717,-1.0717,-1.0717,-1.0717,-1.0724,-1.0806,-1.0772,-1.1721,-1.1877,-1.1877,-1.1674,-1.1369,-1.0914,-1.0071,-0.9211,0.0,0.0,-0.7197,-0.6831,-0.693,0.0,-0.774,0.0,0.0,0.0,0.0,0.0,0.0,0.0,0.0,0.0,0.0,0.0,0.0,0.0,0.0,0.0,-1.4299,-1.4299,-1.4299,-1.4299,-1.4299,-1.4299,-1.4299,-1.4299,-1.4299,-1.4299,-1.4299,-1.4299,-1.4299,-1.4299,-1.4299,-1.4299,-1.4299,0.0,0.0,-1.4089,-1.3933,-1.3783,-1.3634,-1.3505,-1.3403,-1.3403,-1.3403,-1.3403,-1.3403,-1.3403,-1.3349,-1.3057,-1.2963,-1.2901,-1.2596,-1.2501,-1.2501,-1.2501,-1.2501,-1.2501,-1.2501,-1.2501,-1.2461,-1.2284,-1.2033,-1.1789,-1.1647,-1.1619,-1.1619,-1.1619,-1.1619,-1.1619,-1.1619,-1.1619,-1.1579,-1.1457,-1.1443,-1.1335,-1.1029,-1.0927,-1.0928,-1.0738,-1.0717,-1.0717,-1.0717,-1.0717,-1.0717,-1.0717,-1.0717,-1.0717,-1.0717,-1.0717,-1.0738,-1.0765,-1.0772,-1.0785,-1.0819,-1.0819,-1.0819,-1.0819,-1.0941,-1.0927,-1.1748,-1.2033,-1.2149,-1.1728,-1.1294,-1.0671,-0.9849,0.0,0.0,-0.7253,-0.6729,-0.6409,-0.6545,-0.6783,-0.7193,-0.7948,-0.8866,-0.9761,0.0,0.0,0.0,0.0,0.0,0.0,0.0,0.0,0.0,0.0,0.0,0.0,0.0,-1.4299,-1.4299,-1.4299,-1.4299,-1.4299,-1.4299,-1.4299,-1.4299,-1.4299,-1.4299,-1.4299,-1.4299,-1.4299,-1.4299,-1.4299,-1.4299,0.0,0.0,-1.3926,-1.3777,-1.3634,-1.3485,-1.341,-1.3403,-1.3403,-1.3403,-1.3403,-1.3403,-1.3403,-1.3349,-1.3057,-1.2963,-1.2901,-1.2596,-1.2501,-1.2501,-1.2501,-1.2501,-1.2501,-1.2501,-1.2501,-1.2433,-1.2149,-1.1952,-1.1789,-1.1647,-1.1619,-1.1619,-1.1619,-1.1619,-1.1619,-1.1619,-1.1619,-1.1613,-1.1599,-1.1599,-1.1491,-1.1179,-1.1145,-1.1036,-1.0751,-1.0717,-1.0717,-1.0717,-1.0717,-1.0717,-1.0717,-1.0717,-1.0717,-1.0717,-1.0717,-1.0785,-1.086,-1.086,-1.0989,-1.1124,-1.1124,-1.1124,-1.1124,-1.1138,-1.1145,-1.1572,-1.1857,-1.1932,-1.1572,-1.1145,-1.0575,-0.968,0.0,-0.7685,-0.7186,-0.6668,-0.634,-0.6484,-0.6647,-0.7007,-0.7665,-0.8377,-0.9184,-1.0181,0.0,0.0,0.0,0.0,0.0,0.0,0.0,0.0,0.0,0.0,0.0,0.0,-1.4299,-1.4299,-1.4299,-1.4299,-1.4299,-1.4299,-1.4299,-1.4299,-1.4299,-1.4299,-1.4299,-1.4299,-1.4204,-1.4163,-1.4156,-1.4061,0.0,0.0,-1.3777,-1.3682,-1.3614,-1.3458,-1.3403,-1.3403,-1.3403,-1.3403,-1.3403,-1.3403,-1.3403,-1.3349,-1.3057,-1.2963,-1.2901,-1.2596,-1.2501,-1.2501,-1.2501,-1.2501,-1.2501,-1.2501,-1.2501,-1.2427,-1.2135,-1.2013,-1.1904,-1.1674,-1.1619,-1.1619,-1.1619,-1.1619,-1.1619,-1.1619,-1.1619,-1.1619,-1.1619,-1.1619,-1.1511,-1.1199,-1.1234,-1.105,-1.0751,-1.0717,-1.0717,-1.0717,-1.0717,-1.0717,-1.0717,-1.0717,-1.0717,-1.0717,-1.0806,-1.082,-1.088,-1.1036,-1.1104,-1.1234,-1.1234,-1.1234,-1.1234,-1.126,-1.1301,-1.1335,-1.1653,-1.1748,-1.1409,-1.0955,-1.0358,0.0,-0.8438,-0.7563,-0.7119,-0.6641,-0.6327,-0.6429,-0.6532,-0.6803,-0.7319,-0.7896,-0.8621,-0.9585,0.0,0.0,0.0,0.0,0.0,0.0,0.0,0.0,0.0,0.0,0.0,0.0,-1.419,-1.4204,-1.4299,-1.4299,-1.4299,-1.4299,-1.4299,-1.4278,-1.4231,-1.4231,-1.4211,-1.4163,-1.4055,-1.4007,-1.3994,0.0,0.0,0.0,-1.3668,-1.36,-1.3553,-1.3444,-1.3403,-1.3403,-1.3403,-1.3403,-1.3403,-1.3403,-1.337,-1.3295,-1.3044,-1.2929,-1.2847,-1.2583,-1.2501,-1.2501,-1.2501,-1.2501,-1.2501,-1.2501,-1.2467,-1.2372,-1.2121,-1.2026,-1.1925,-1.1674,-1.1619,-1.1619,-1.1619,-1.1619,-1.1619,-1.1619,-1.1619,-1.1619,-1.1619,-1.1619,-1.1511,-1.1199,-1.1234,-1.105,-1.0751,-1.0717,-1.0717,-1.0717,-1.0717,-1.0717,-1.0717,-1.0765,-1.0785,-1.0785,-1.0934,-1.1036,-1.1077,-1.1179,-1.1253,-1.1301,-1.1301,-1.1301,-1.1301,-1.1409,-1.1457,-1.1111,-1.1491,-1.1721,-1.1274,-1.0724,-1.0053,0.0,-0.8133,-0.7292,-0.6993,-0.6573,-0.63,-0.63,-0.6416,-0.6573,-0.6842,-0.7434,-0.8085,-0.879,0.0,0.0,0.0,0.0,0.0,0.0,0.0,0.0,0.0,0.0,0.0,0.0,-1.3933,-1.3987,-1.4292,-1.4299,-1.4299,-1.4299,-1.4299,-1.4224,-1.4075,-1.4075,-1.3994,-1.3844,-1.3759,-1.3844,0.0,0.0,0.0,0.0,-1.3627,-1.3539,-1.3403,-1.3403,-1.3403,-1.3403,-1.3403,-1.3403,-1.3403,-1.3403,-1.3302,-1.3152,-1.301,-1.2861,-1.2705,-1.2549,-1.2501,-1.2501,-1.2501,-1.2501,-1.2501,-1.2501,-1.24,-1.225,-1.2101,-1.1945,-1.1796,-1.1653,-1.1619,-1.1619,-1.1619,-1.1619,-1.1619,-1.1619,-1.1619,-1.1619,-1.1619,-1.1619,-1.1511,-1.1199,-1.1234,-1.105,-1.0751,-1.0717,-1.0717,-1.0717,-1.0717,-1.0717,-1.0717,-1.0793,-1.088,-1.088,-1.1084,-1.1233,-1.1382,-1.1389,-1.1463,-1.1613,-1.1613,-1.1613,-1.1613,-1.1613,-1.1619,-1.0249,-1.0656,-1.086,-1.0622,-1.0188,-0.9639,-0.894,-0.8052,-0.7285,-0.695,-0.6573,-0.63,-0.63,-0.6504,-0.6695,-0.6856,-0.7428,-0.8072,0.0,0.0,0.0,0.0,0.0,0.0,0.0,0.0,0.0,0.0,0.0,0.0,0.0,-1.3865,-1.3885,-1.3987,-1.3987,-1.3987,-1.3987,-1.3987,-1.396,-1.3912,-1.3912,-1.3885,-1.3838,-1.3743,0.0,0.0,0.0,0.0,0.0,-1.3471,-1.3444,-1.3403,-1.3403,-1.3403,-1.3403,-1.3403,-1.3403,-1.3383,-1.3281,-1.3214,-1.3132,-1.2881,-1.2766,-1.2705,-1.2549,-1.2501,-1.2501,-1.2501,-1.2501,-1.2501,-1.2501,-1.2393,-1.225,-1.2101,-1.1945,-1.1789,-1.1647,-1.1619,-1.1619,-1.1619,-1.1619,-1.1619,-1.1619,-1.1619,-1.1619,-1.1619,-1.1619,-1.1545,-1.1348,-1.1321,-1.1246,-1.1043,-1.1023,-1.0941,-1.0738,-1.0752,-1.0806,-1.0806,-1.1016,-1.1097,-1.1097,-1.124,-1.1341,-1.1389,-1.1497,-1.1572,-1.1619,-1.1619,-1.1619,-1.1619,-1.1619,-1.1619,-0.9363,-0.989,-1.0114,-0.9903,-0.9557,-0.911,-0.8506,-0.7767,-0.7136,-0.6892,-0.6532,-0.63,-0.63,-0.6497,-0.6661,-0.6817,-0.7292,-0.7909,0.0,0.0,0.0,0.0,0.0,0.0,0.0,0.0,0.0,0.0,0.0,0.0,0.0,0.0,-1.3675,-1.3675,-1.3783,-1.3838,-1.3838,-1.3838,-1.3732,-1.3763,-1.3763,-1.3729,-1.3675,-1.3587,0.0,0.0,0.0,0.0,0.0,-1.3403,-1.3403,-1.3403,-1.3403,-1.3403,-1.3403,-1.3403,-1.3403,-1.3376,-1.3227,-1.3139,-1.3051,-1.2807,-1.2691,-1.2623,-1.2528,-1.2501,-1.2501,-1.2501,-1.2501,-1.2501,-1.2501,-1.2352,-1.2182,-1.2088,-1.1904,-1.1728,-1.164,-1.1619,-1.1619,-1.1619,-1.1619,-1.1619,-1.1619,-1.1619,-1.1619,-1.1619,-1.1619,-1.1565,-1.1409,-1.1389,-1.1335,-1.1179,-1.1234,-1.109,-1.09,-1.0975,-1.1029,-1.1029,-1.1165,-1.1246,-1.1246,-1.1396,-1.1477,-1.1477,-1.1572,-1.1619,-1.1619,-1.1619,-1.1619,-1.1619,-1.1619,-1.1619,0.0,-0.9164,-0.9462,-0.9234,-0.8893,-0.852,-0.7916,-0.7339,0.0,-0.6715,-0.6497,-0.6306,-0.6313,-0.6429,-0.6539,-0.6709,-0.7109,0.0,0.0,0.0,0.0,0.0,0.0,0.0,0.0,0.0,0.0,0.0,0.0,0.0,0.0,0.0,-1.3403,-1.3403,-1.3668,-1.381,-1.381,-1.381,-1.3743,-1.3614,-1.3614,-1.3539,-1.3403,-1.3403,0.0,0.0,0.0,0.0,0.0,-1.3403,-1.3403,-1.3403,-1.3403,-1.3403,-1.3403,-1.3403,-1.3403,-1.3376,-1.3214,-1.3071,-1.2935,-1.2766,-1.2617,-1.2501,-1.2501,-1.2501,-1.2501,-1.2501,-1.2501,-1.2501,-1.2501,-1.2291,-1.2074,-1.206,-1.1843,-1.1633,-1.1619,-1.1619,-1.1619,-1.1619,-1.1619,-1.1619,-1.1619,-1.1619,-1.1619,-1.1619,-1.1619,-1.1565,-1.1423,-1.1409,-1.1355,-1.1212,-1.1261,-1.1261,-1.1261,-1.1185,-1.1179,-1.1179,-1.1321,-1.1409,-1.1409,-1.1545,-1.1619,-1.1619,-1.1619,-1.1619,-1.1619,-1.1619,-1.1619,-1.1619,-1.1619,-1.1619,-0.7388,0.0,-0.873,-0.8655,-0.8506,-0.8214,0.0,-0.719,-0.6851,-0.658,-0.6422,-0.6334,-0.6443,-0.6546,-0.6729,-0.695,-0.7414,0.0,0.0,0.0,0.0,0.0,0.0,0.0,0.0,0.0,0.0,0.0,0.0,0.0,0.0,0.0,-1.3403,-1.3403,-1.3464,-1.3505,-1.3505,-1.3505,-1.3485,-1.3458,-1.3458,-1.3437,-1.3403,-1.3403,0.0,0.0,0.0,0.0,-1.3403,-1.3403,-1.3403,-1.3403,-1.3403,-1.3403,-1.3403,-1.3403,-1.3403,-1.3363,-1.3105,-1.307,-1.2915,-1.2644,-1.2528,-1.2501,-1.2501,-1.2501,-1.2501,-1.2501,-1.2501,-1.2501,-1.2501,-1.2372,-1.221,-1.2088,-1.1918,-1.1748,-1.164,-1.1619,-1.1619,-1.1619,-1.1619,-1.1619,-1.1619,-1.1619,-1.1619,-1.1619,-1.1619,-1.1606,-1.1572,-1.1565,-1.1552,-1.1518,-1.1511,-1.1511,-1.1511,-1.1402,-1.1335,-1.1335,-1.1484,-1.1565,-1.1565,-1.1599,-1.1619,-1.1619,-1.1619,-1.1619,-1.1619,-1.1619,-1.1619,-1.1619,-1.1619,-1.1619,-0.6916,-0.755,-0.8058,-0.7991,-0.7965,-0.7787,-0.7272,-0.6932,-0.6675,-0.6545,-0.6402,-0.634,-0.6484,-0.6654,-0.6926,-0.7292,-0.7726,0.0,0.0,0.0,0.0,0.0,0.0,0.0,0.0,0.0,0.0,0.0,0.0,0.0,0.0,0.0,-1.3403,-1.3403,-1.3403,-1.3403,-1.3403,-1.3403,-1.3403,-1.3403,-1.3403,-1.3403,-1.3403,-1.3403,-1.3403,0.0,0.0,0.0,-1.3403,-1.3403,-1.3403,-1.3403,-1.3403,-1.3403,-1.3403,-1.3403,-1.3356,-1.3261,-1.3037,-1.2868,-1.2725,-1.2556,-1.2501,-1.2501,-1.2501,-1.2501,-1.2501,-1.2501,-1.2501,-1.2501,-1.2501,-1.2393,-1.2271,-1.2189,-1.1993,-1.1809,-1.1735,-1.1667,-1.1619,-1.1619,-1.1619,-1.1619,-1.1619,-1.1619,-1.1619,-1.1619,-1.1619,-1.1619,-1.1619,-1.1619,-1.1619,-1.1619,-1.1619,-1.1619,-1.1619,-1.1545,-1.1497,-1.1497,-1.1572,-1.1619,-1.1619,-1.1619,-1.1619,-1.1619,-1.1619,-1.1619,-1.1619,-1.1619,-1.1476,-1.1332,-1.1181,-1.0966,-0.6837,-0.7258,-0.757,-0.7441,-0.7441,-0.738,-0.6997,-0.6763,-0.6559,0.0,0.0,-0.6422,-0.6613,-0.6837,0.0,0.0,0.0,0.0,0.0,0.0,0.0,0.0,0.0,0.0,0.0,0.0,0.0,0.0,0.0,0.0,0.0,0.0,0.0,-1.3403,-1.3403,-1.3403,-1.3403,-1.3403,-1.3403,-1.3403,-1.3403,-1.3403,-1.3403,-1.3403,-1.3403,0.0,0.0,0.0,-1.3403,-1.3403,-1.3403,-1.3403,-1.3403,-1.3403,-1.3397,-1.3376,-1.3281,-1.3152,-1.2983,-1.2739,-1.2501,-1.2501,-1.2501,-1.2501,-1.2501,-1.2501,-1.2501,-1.2501,-1.2501,-1.2501,-1.2501,-1.2413,-1.2318,-1.2298,-1.2088,-1.1898,-1.187,-1.1755,-1.1653,-1.1653,-1.1633,-1.1619,-1.1619,-1.1619,-1.1619,-1.1619,-1.1619,-1.1619,-1.1619,-1.1619,-1.1619,-1.1619,-1.1619,-1.1619,-1.1619,-1.1619,-1.1619,-1.1619,-1.1619,-1.1619,-1.1619,-1.1619,-1.1619,-1.1619,-1.1619,-1.1619,-1.1619,-1.1619,-1.1404,-1.09,-1.0455,-0.9945,-0.681,-0.7258,-0.7597,-0.757,-0.7753,-0.7746,-0.7186,-0.7024,-0.6923,0.0,0.0,0.0,0.0,-0.738,0.0,0.0,0.0,0.0,0.0,0.0,0.0,0.0,0.0,0.0,0.0,0.0,0.0,0.0,0.0,0.0,0.0,0.0,0.0,-1.3403,-1.3403,-1.3403,-1.3403,-1.3403,-1.3403,-1.3403,-1.3403,-1.3403,-1.3403,-1.3403,-1.3403,0.0,0.0,-1.3403,-1.3403,-1.3403,-1.3403,-1.3403,-1.3403,-1.3403,-1.3383,-1.3254,-1.3193,-1.3132,-1.2861,-1.2651,-1.2501,-1.2501,-1.2501,-1.2501,-1.2501,-1.2501,-1.2501,-1.2501,-1.2501,-1.2501,-1.2501,-1.2488,-1.244,-1.2318,-1.2257,-1.2182,-1.2054,-1.1904,-1.1796,-1.1796,-1.1701,-1.1619,-1.1619,-1.1619,-1.1619,-1.1619,-1.1619,-1.1619,-1.1619,-1.1619,-1.1619,-1.1619,-1.1619,-1.1619,-1.1619,-1.1619,-1.1619,-1.1619,-1.1619,-1.1619,-1.1619,-1.1619,-1.1619,-1.1619,-1.1619,-1.1619,-1.1619,-1.1619,-1.1253,-1.0527,-0.9502,-0.8636,-0.6729,-0.7136,-0.7516,-0.7672,-0.7943,-0.8045,-0.7604,-0.7441,-0.7353,0.0,0.0,0.0,0.0,0.0,0.0,0.0,0.0,0.0,0.0,0.0,0.0,0.0,0.0,0.0,0.0,0.0,0.0,0.0,0.0,0.0,0.0,0.0,0.0,0.0,-1.3207,-1.32,-1.3275,-1.32,-1.32,-1.3275,-1.3363,-1.3356,-1.3281,-1.3363,-1.3403,-1.3403,0.0,-1.3403,-1.3403,-1.3403,-1.3349,-1.3275,-1.3275,-1.3227,-1.3146,-1.299,-1.2935,-1.2901,-1.2684,-1.2562,-1.2501,-1.2501,-1.2501,-1.2501,-1.2501,-1.2501,-1.2501,-1.2501,-1.2501,-1.2501,-1.2501,-1.2501,-1.2488,-1.242,-1.2345,-1.2271,-1.2203,-1.2067,-1.1932,-1.1843,-1.1775,-1.1708,-1.1633,-1.1619,-1.1619,-1.1619,-1.1619,-1.1619,-1.1619,-1.1619,-1.1619,-1.1619,-1.1619,-1.1619,-1.1619,-1.1619,-1.1619,-1.1619,-1.1619,-1.1619,-1.1619,-1.1619,-1.1476,-1.126,-1.1109,-1.0894,-1.0678,-1.0462,-0.9879,-0.8941,-0.7914,-0.697,-0.6702,-0.7054,-0.7441,-0.774,-0.8065,-0.8255,-0.8024,-0.7909,-0.7848,-0.7814,0.0,0.0,0.0,0.0,0.0,0.0,0.0,0.0,0.0,0.0,0.0,0.0,0.0,0.0,0.0,0.0,0.0,0.0,0.0,0.0,0.0,0.0,0.0,0.0,-1.3017,-1.3017,-1.3119,-1.3017,-1.303,-1.3173,-1.3261,-1.3234,-1.3125,-1.3247,-1.3315,-1.3349,-1.3349,-1.337,-1.3397,-1.3363,-1.3275,-1.3166,-1.3139,-1.3037,-1.2895,-1.2773,-1.2705,-1.2657,-1.2542,-1.2501,-1.2501,-1.2501,-1.2501,-1.2501,-1.2501,-1.2501,-1.2501,-1.2501,-1.2501,-1.2501,-1.2501,-1.2501,-1.2501,-1.2501,-1.242,-1.2338,-1.2338,-1.2223,-1.2081,-1.1959,-1.1877,-1.1796,-1.1687,-1.164,-1.1619,-1.1619,-1.1619,-1.1619,-1.1619,-1.1548,-1.1404,-1.1325,-1.1253,-1.1181,-1.1181,-1.1253,-1.1325,-1.1325,-1.1476,-1.1619,-1.1619,-1.1619,-1.1404,-1.0894,-1.0383,-0.9873,-0.9368,-0.8791,-0.7923,-0.6906,-0.6032,-0.5017,-0.6831,-0.7136,-0.7441,-0.774,-0.814,-0.8459,-0.8438,-0.8533,-0.8587,-0.8445,-0.852,0.0,0.0,0.0,0.0,0.0,0.0,0.0,0.0,0.0,0.0,0.0,0.0,0.0,0.0,0.0,0.0,0.0,0.0,0.0,0.0,0.0,0.0,0.0,0.0,-1.2969,-1.2976,-1.2969,-1.303,-1.3173,-1.3051,-1.299,-1.2976,-1.299,-1.3064,-1.3186,-1.3186,-1.3268,-1.339,-1.3247,-1.3186,-1.3159,-1.303,-1.2881,-1.2745,-1.2732,-1.2637,-1.2515,-1.2508,-1.2501,-1.2501,-1.2501,-1.2501,-1.2501,-1.2501,-1.2501,-1.2501,-1.2501,-1.2501,-1.2501,-1.2501,-1.2501,-1.2501,-1.2501,-1.2494,-1.2488,-1.2488,-1.2372,-1.2271,-1.2257,-1.2026,-1.183,-1.1816,-1.1708,-1.1619,-1.1619,-1.1619,-1.1619,-1.1619,-1.126,-1.0894,-1.0599,-1.0239,-1.0023,-1.0023,-1.0383,-1.0599,-1.0599,-1.1253,-1.1619,-1.1619,-1.1619,-1.1253,-1.0527,-0.943,-0.8492,-0.7774,-0.6608,-0.5667,-0.4869,-0.3708,-0.2692,-0.6856,-0.7031,-0.7319,-0.7712,-0.8147,-0.8554,-0.8893,-0.9089,-0.9306,-0.9494,-0.9503,-0.9519,0.0,0.0,0.0,0.0,0.0,0.0,0.0,0.0,0.0,0.0,0.0,0.0,0.0,0.0,0.0,0.0,0.0,0.0,0.0,0.0,0.0,0.0,0.0,-1.2718,-1.282,-1.2725,-1.2752,-1.2895,-1.2942,-1.2908,-1.282,-1.2915,-1.299,-1.3044,-1.3044,-1.3071,-1.3125,-1.3064,-1.2983,-1.2881,-1.2732,-1.2637,-1.2589,-1.2589,-1.2549,-1.2501,-1.2501,-1.2501,-1.2501,-1.2501,-1.2501,-1.2501,-1.2501,-1.2501,-1.2501,-1.2501,-1.2501,-1.2501,-1.2501,-1.2501,-1.2501,-1.2501,-1.2501,-1.2501,-1.2501,-1.2461,-1.2393,-1.2311,-1.2196,-1.2054,-1.1864,-1.1789,-1.1721,-1.1633,-1.1619,-1.1619,-1.1619,-1.1038,-1.0383,-0.9502,-0.8131,-0.7548,-0.8059,-0.8853,-0.9363,-0.9368,-1.0383,-1.0822,-1.0534,-1.0317,-0.9735,-0.8724,-0.777,-0.6753,-0.5818,-0.4799,-0.4,-0.3203,-0.2475,-0.1749,-0.7054,-0.7058,-0.72,-0.7699,-0.8147,-0.8635,-0.9232,-0.9598,-0.989,-1.0141,-1.027,-1.0253,-1.0206,0.0,0.0,0.0,0.0,0.0,0.0,0.0,0.0,0.0,0.0,0.0,0.0,0.0,0.0,0.0,0.0,0.0,0.0,0.0,0.0,0.0,0.0,-1.2556,-1.2657,-1.2556,-1.2556,-1.2657,-1.2766,-1.2759,-1.2664,-1.2766,-1.284,-1.2888,-1.2888,-1.2915,-1.3036,-1.2908,-1.28,-1.2651,-1.2542,-1.2501,-1.2501,-1.2501,-1.2501,-1.2501,-1.2501,-1.2501,-1.2501,-1.2501,-1.2501,-1.2501,-1.2501,-1.2501,-1.2501,-1.2501,-1.2501,-1.2501,-1.2501,-1.2501,-1.2501,-1.2501,-1.2501,-1.2501,-1.2501,-1.2501,-1.2474,-1.2379,-1.2318,-1.221,-1.1945,-1.1864,-1.1782,-1.164,-1.1476,-1.1404,-1.1253,-1.0383,-0.9147,-0.7621,-0.6029,-0.5377,-0.6174,-0.7331,-0.791,-0.7774,-0.8714,-0.9219,-0.9152,-0.8574,-0.7702,-0.6688,-0.5742,-0.4799,-0.3785,-0.2841,-0.2114,-0.1531,-0.1312,-0.0875,-0.7326,-0.7258,-0.7213,-0.7706,0.0,-0.8723,-0.9618,-1.0066,-1.0324,-1.0473,-1.0744,-1.084,-1.0758,0.0,0.0,0.0,0.0,0.0,0.0,0.0,0.0,0.0,0.0,0.0,0.0,0.0,0.0,0.0,0.0,0.0,0.0,0.0,0.0,0.0,0.0,0.0,-1.2501,-1.2501,-1.2501,-1.2501,-1.2501,-1.2501,-1.2501,-1.2501,-1.2583,-1.2725,-1.2725,-1.2813,-1.2942,-1.2793,-1.2637,-1.2501,-1.2501,-1.2501,-1.2501,-1.2501,-1.2501,-1.2501,-1.2501,-1.2501,-1.2501,-1.2501,-1.2501,-1.2501,-1.2501,-1.2501,-1.2501,-1.2501,-1.2501,-1.2501,-1.2501,-1.2501,-1.2501,-1.2501,-1.2501,-1.2501,-1.2501,-1.2501,-1.2501,-1.2501,-1.2386,-1.2244,-1.2088,-1.1932,-1.1782,-1.164,-1.126,-1.09,-1.0527,-0.908,-0.7195,-0.4947,-0.393,-0.3787,-0.4584,-0.5742,-0.6177,-0.5818,-0.6177,-0.6757,-0.7553,-0.6391,-0.5446,-0.4724,-0.349,-0.2474,-0.1677,-0.0584,0.0,0.0,0.0,0.0,-0.706,-0.735,0.0,-0.8045,0.0,0.0,0.0,-1.0297,0.0,0.0,-1.1341,-1.1246,-1.1199,0.0,0.0,0.0,0.0,0.0,0.0,0.0,0.0,0.0,0.0,0.0,0.0,0.0,0.0,0.0,0.0,0.0,0.0,0.0,0.0,0.0,0.0,0.0,-1.2501,-1.2501,-1.2501,-1.2501,-1.2501,-1.2501,-1.2501,-1.2501,-1.2528,-1.2569,-1.2569,-1.2596,-1.2637,-1.2589,-1.2542,-1.2501,-1.2501,-1.2501,-1.2501,-1.2501,-1.2501,-1.2501,-1.2501,-1.2501,-1.2501,-1.2501,-1.2501,-1.2501,-1.2501,-1.2501,-1.2501,-1.2501,-1.2501,-1.2501,-1.2501,-1.2501,-1.2501,-1.2501,-1.2501,-1.2501,-1.2501,-1.2501,-1.2501,-1.2501,-1.2467,-1.2359,-1.2108,-1.2026,-1.1945,-1.1789,-1.1186,-1.0012,-0.7952,-0.5816,-0.3967,-0.2697,-0.1677,-0.1385,-0.2186,-0.3274,-0.3853,-0.3785,-0.3853,-0.4434,-0.5525,-0.4657,-0.3785,-0.3059,-0.2403,-0.1676,-0.0948,-0.0292,0.0,0.0,0.0,0.0,-0.6842,-0.7469,0.0,-0.8565,-0.9089,-0.9754,-1.0435,0.0,0.0,0.0,0.0,-1.1619,0.0,0.0,0.0,0.0,0.0,0.0,0.0,0.0,0.0,0.0,0.0,0.0,0.0,0.0,0.0,0.0,0.0,0.0,0.0,0.0,0.0,0.0,0.0,0.0,-1.2501,-1.2501,-1.2501,-1.2501,-1.2501,-1.2501,-1.2501,-1.2501,-1.2501,-1.2501,-1.2501,-1.2501,-1.2501,-1.2501,-1.2501,-1.2501,-1.2501,-1.2501,-1.2501,-1.2501,-1.2501,-1.2501,-1.2501,-1.2501,-1.2501,-1.2501,-1.2501,-1.2501,-1.2501,-1.2501,-1.2501,-1.2501,-1.2501,-1.2501,-1.2501,-1.2501,-1.2501,-1.2501,-1.2501,-1.2501,-1.2501,-1.2501,-1.2501,-1.2501,-1.2347,-1.2099,-1.174,-1.1508,-1.1326,-1.0908,-0.9809,-0.8058,-0.5599,-0.3646,-0.2146,-0.1324,-0.0512,-0.0292,-0.0875,-0.1893,-0.2403,-0.226,-0.233,-0.2621,-0.3059,-0.2477,-0.1895,-0.1385,-0.1166,-0.0802,-0.0365,-0.0146,0.0,0.0,0.0,0.0,-0.6712,0.0,0.0,-0.9105,-0.9571,0.0,-1.1362,-1.164,-1.1701,-1.1843,0.0,0.0,0.0,0.0,0.0,0.0,0.0,0.0,0.0,0.0,0.0,0.0,0.0,0.0,0.0,0.0,0.0,0.0,0.0,0.0,0.0,0.0,0.0,0.0,0.0,0.0,-1.2501,-1.2501,-1.2501,0.0,-1.2501,-1.2501,-1.2501,-1.2501,-1.2501,-1.2501,-1.2501,-1.2501,-1.2501,-1.2501,-1.2501,-1.2501,-1.2501,-1.2501,-1.2501,-1.2501,-1.2501,-1.2501,-1.2501,-1.2501,-1.2501,-1.2501,-1.2501,-1.2501,-1.2501,-1.2501,-1.2501,-1.2501,-1.2501,-1.2501,-1.2501,-1.2501,-1.2424,-1.2424,-1.2424,-1.2501,-1.2501,-1.2501,-1.2501,-1.2501,-1.2114,-1.1644,-1.0851,-1.0445,-0.991,-0.9102,-0.7365,-0.5528,-0.3561,-0.2327,-0.1268,-0.0596,-0.0221,-0.0146,-0.0513,-0.1171,-0.139,-0.1097,-0.1388,-0.1241,-0.0584,-0.0219,0.0,0.0,0.0,0.0,0.0,0.0,0.0,0.0,0.0,0.0,-0.6239,-0.7559,0.0,0.0,-1.0195,-1.1002,-1.1504,-1.1803,-1.2013,0.0,0.0,0.0,0.0,0.0,0.0,0.0,0.0,0.0,0.0,0.0,0.0,0.0,0.0,0.0,0.0,0.0,0.0,0.0,0.0,0.0,0.0,0.0,0.0,0.0,0.0,-1.2501,-1.2501,-1.2501,-1.2501,0.0,-1.2501,-1.2501,-1.2501,-1.2501,-1.2501,-1.2501,-1.2501,-1.2501,-1.2501,-1.2501,-1.2501,-1.2501,-1.2501,-1.2501,-1.2501,-1.2501,-1.2501,-1.2501,-1.2501,-1.2501,-1.2501,-1.2501,-1.2501,-1.2501,-1.2501,-1.2501,-1.2501,-1.2501,-1.2501,-1.2501,-1.2501,-1.2269,-1.196,-1.165,-1.2037,-1.2501,-1.2501,-1.2501,-1.2501,-1.2501,-1.1882,-1.1053,-0.9807,-0.8964,-0.782,-0.6032,-0.4701,-0.3485,-0.2381,-0.1149,-0.0305,-0.0151,-0.0075,0.0,-0.015,-0.0301,-0.0299,-0.0297,-0.0296,-0.0295,-0.0146,-0.0073,0.0,0.0,0.0,0.0,0.0,0.0,0.0,0.0,0.0,0.0,-0.5847,0.0,0.0,-1.0134,0.0,-1.1348,-1.1653,-1.1843,0.0,0.0,0.0,0.0,0.0,0.0,0.0,0.0,0.0,0.0,0.0,0.0,0.0,0.0,0.0,0.0,0.0,0.0,0.0,0.0,0.0,0.0,0.0,0.0,0.0,0.0,-1.2467,-1.2467,-1.24,-1.24,-1.2366,-1.2291,-1.2366,-1.2433,-1.2501,-1.2501,-1.2501,-1.2501,-1.2501,-1.2501,-1.2501,-1.2501,-1.2501,-1.2501,-1.2501,-1.2501,-1.2501,-1.2501,-1.2501,-1.2501,-1.2501,-1.2501,-1.2501,-1.2501,-1.2501,-1.2501,-1.2501,-1.2501,-1.2501,-1.2501,-1.2501,-1.2501,-1.2501,-1.2037,-1.1411,-1.0552,-1.1023,-1.1572,-1.134,-1.134,-1.134,-1.134,-1.048,-0.9428,-0.8234,-0.6838,-0.5391,-0.3878,-0.3044,-0.219,-0.14,-0.0542,0.0,0.0,0.0,0.0,0.0,0.0,0.0,0.0,0.0,0.0,0.0,0.0,0.0,0.0,0.0,0.0,0.0,0.0,0.0,0.0,0.0,0.0,-0.5666,0.0,-0.9698,-1.0927,-1.1301,0.0,0.0,0.0,0.0,0.0,0.0,0.0,0.0,0.0,0.0,0.0,0.0,0.0,0.0,0.0,0.0,0.0,0.0,0.0,0.0,0.0,0.0,0.0,0.0,0.0,0.0,0.0,-1.2372,-1.2257,-1.2366,-1.2372,-1.225,-1.225,-1.2189,-1.206,-1.2216,-1.2352,-1.2467,-1.2488,-1.2501,-1.2501,-1.2501,-1.2501,-1.2501,-1.2501,-1.2501,-1.2501,-1.2501,-1.2501,-1.2501,-1.2501,-1.2501,-1.2501,-1.2501,-1.2501,-1.2501,-1.2501,-1.2501,-1.2501,-1.2501,-1.2424,-1.2347,-1.2347,-1.2269,-1.2192,-1.2114,-1.1417,-1.048,-0.9221,-0.9304,-0.9547,-0.9392,-0.9392,-0.9392,-0.9392,-0.8219,-0.6948,-0.6106,-0.4323,-0.279,-0.2194,-0.1805,-0.1334,-0.0628,-0.0234,0.0,0.0,0.0,0.0,0.0,0.0,0.0,0.0,0.0,0.0,0.0,0.0,0.0,0.0,0.0,0.0,0.0,0.0,0.0,0.0,0.0,0.0,0.0,0.0,-1.0297,0.0,-1.1375,0.0,0.0,0.0,0.0,0.0,0.0,0.0,0.0,0.0,0.0,0.0,0.0,0.0,0.0,0.0,0.0,0.0,0.0,0.0,0.0,0.0,0.0,0.0,0.0,0.0,0.0,-1.2108,-1.219,-1.2094,-1.2108,-1.2108,-1.2169,-1.2169,-1.2081,-1.206,-1.2216,-1.2298,-1.2325,-1.2447,-1.2501,-1.2501,-1.2501,-1.2501,-1.2501,-1.2501,-1.2501,-1.2501,-1.2501,-1.2501,-1.2501,-1.2501,-1.2501,-1.2501,-1.2501,-1.2501,-1.2501,-1.2501,-1.2501,-1.2501,-1.2501,-1.2269,-1.1882,-1.1572,-1.1184,-1.0796,-1.0408,-0.947,-0.8301,-0.7439,-0.6499,-0.5949,-0.6648,-0.6803,-0.6803,-0.6803,-0.5162,-0.3521,-0.2659,-0.1409,-0.047,-0.0314,-0.0314,-0.0236,-0.0079,0.0,0.0,0.0,0.0,0.0,0.0,0.0,0.0,0.0,0.0,0.0,0.0,0.0,0.0,0.0,0.0,0.0,0.0,0.0,0.0,0.0,0.0,0.0,-0.7033,-0.894,-1.0439,0.0,0.0,0.0,0.0,0.0,0.0,0.0,0.0,0.0,0.0,0.0,0.0,0.0,0.0,0.0,0.0,0.0,0.0,0.0,0.0,0.0,0.0,0.0,0.0,0.0,0.0,0.0,-1.1932,-1.1864,-1.1648,-1.1347,-1.1195,-1.0971,-1.0675,-1.0897,-1.1193,-1.1636,-1.1925,-1.2081,-1.2162,-1.223,-1.2345,-1.2501,-1.2501,-1.2501,-1.2501,-1.2501,-1.2501,-1.2501,-1.2501,-1.2501,-1.2501,-1.2501,-1.2501,-1.2501,-1.2501,-1.2501,-1.2501,-1.2501,-1.2501,-1.2501,-1.2501,-1.2037,-1.1417,-1.0474,-0.977,-0.8998,-0.8132,-0.7119,-0.6105,-0.5008,-0.3994,-0.3135,-0.282,-0.3916,-0.4776,-0.4229,-0.3212,-0.2195,-0.1334,-0.055,0.0,0.0,0.0,0.0,0.0,0.0,0.0,0.0,0.0,0.0,0.0,0.0,0.0,0.0,0.0,0.0,0.0,0.0,0.0,0.0,0.0,0.0,0.0,0.0,0.0,0.0,0.0,0.0,-0.7651,-0.9077,-1.0105,-1.0873,0.0,0.0,0.0,0.0,0.0,0.0,0.0,0.0,0.0,0.0,0.0,0.0,0.0,0.0,0.0,0.0,0.0,0.0,0.0,0.0,0.0,0.0,0.0,0.0,0.0,0.0,-1.1775,-1.1443,-1.0933,-1.0237,-0.9809,-0.9297,-0.8553,-0.9359,-1.0164,-1.0973,-1.1517,-1.1891,-1.2006,-1.2047,-1.2182,-1.2393,-1.2433,-1.2467,-1.2501,-1.2501,-1.2501,-1.2501,-1.2501,-1.2501,-1.2501,-1.2501,-1.2501,-1.2501,-1.2501,-1.2424,-1.2347,-1.2192,-1.2114,-1.2037,-1.1882,-1.1184,-1.0247,-0.9071,-0.8054,-0.7041,-0.5945,-0.5008,-0.407,-0.3053,-0.2195,-0.1256,-0.0236,-0.1491,-0.2667,-0.1962,-0.1648,-0.1177,-0.055,-0.0236,0.0,0.0,0.0,0.0,0.0,0.0,0.0,0.0,0.0,0.0,0.0,0.0,0.0,0.0,0.0,0.0,0.0,0.0,0.0,0.0,0.0,0.0,0.0,0.0,0.0,0.0,0.0,0.0,-0.6945,-0.7994,0.0,-0.9848,0.0,0.0,0.0,0.0,0.0,0.0,0.0,0.0,0.0,0.0,0.0,0.0,0.0,0.0,0.0,0.0,0.0,0.0,0.0,0.0,0.0,0.0,0.0,0.0,0.0,0.0,-1.1633,-1.0906,-1.0029,-0.8858,-0.8145,-0.7204,-0.6032,-0.7842,-0.9152,-0.9963,-1.1179,-1.1837,-1.185,-1.1993,-1.2149,-1.2094,-1.2237,-1.2379,-1.2501,-1.2501,-1.2501,-1.2501,-1.2501,-1.2501,-1.2501,-1.2501,-1.2501,-1.2501,-1.2501,-1.2269,-1.1882,-1.1495,-1.1029,-1.0641,-1.0253,-0.9236,-0.8067,-0.7283,-0.6108,-0.4936,-0.4153,-0.3294,-0.2511,-0.2039,-0.1334,-0.055,-0.0079,-0.0079,-0.0157,-0.0157,-0.0079,-0.0079,0.0,0.0,0.0,0.0,0.0,0.0,0.0,0.0,0.0,0.0,0.0,0.0,0.0,0.0,0.0,0.0,0.0,0.0,0.0,0.0,0.0,0.0,0.0,0.0,0.0,0.0,0.0,0.0,0.0,0.0,-0.586,-0.6894,0.0,0.0,0.0,0.0,0.0,0.0,0.0,0.0,0.0,0.0,0.0,0.0,0.0,0.0,0.0,0.0,0.0,0.0,0.0,0.0,0.0,0.0,0.0,0.0,0.0,0.0,0.0,0.0,-1.0101,-0.9157,-0.8208,-0.7259,-0.625,-0.5525,-0.509,-0.6536,-0.7625,-0.8435,-0.9635,-1.0311,-1.0601,-1.0942,-1.1237,-1.163,-1.2006,-1.223,-1.2372,-1.2467,-1.2501,-1.2501,-1.2501,-1.2501,-1.2501,-1.2501,-1.2501,-1.2501,-1.2501,-1.2037,-1.134,-1.0397,-0.9615,-0.8837,-0.7898,-0.6885,-0.5874,-0.4776,-0.376,-0.2743,-0.1647,-0.1099,-0.0863,-0.0706,-0.0471,-0.0157,0.0,0.0,0.0,0.0,0.0,0.0,0.0,0.0,0.0,0.0,0.0,0.0,0.0,0.0,0.0,0.0,0.0,0.0,0.0,0.0,0.0,0.0,0.0,0.0,0.0,0.0,0.0,0.0,0.0,0.0,0.0,0.0,0.0,0.0,0.0,0.0,-0.4708,-0.5632,0.0,0.0,0.0,0.0,0.0,0.0,0.0,0.0,0.0,0.0,0.0,0.0,0.0,0.0,0.0,0.0,0.0,0.0,0.0,0.0,0.0,0.0,0.0,0.0,0.0,0.0,0.0,0.0,-0.8136,-0.7195,-0.6105,-0.4872,-0.3712,-0.3276,-0.3494,-0.4651,-0.5597,-0.6475,-0.7557,-0.8425,-0.893,-0.9579,-1.0209,-1.0894,-1.175,-1.2149,-1.2298,-1.244,-1.2501,-1.2501,-1.2501,-1.2501,-1.2501,-1.2501,-1.2424,-1.2269,-1.2114,-1.1417,-1.0247,-0.8993,-0.7898,-0.6885,-0.5789,-0.4855,-0.3918,-0.2977,-0.2117,-0.1256,-0.0236,0.0,0.0,0.0,0.0,0.0,0.0,0.0,0.0,0.0,0.0,0.0,0.0,0.0,0.0,0.0,0.0,0.0,0.0,0.0,0.0,0.0,0.0,0.0,0.0,0.0,0.0,0.0,0.0,0.0,0.0,0.0,0.0,0.0,0.0,0.0,0.0,0.0,0.0,0.0,0.0,0.0,0.0,0.0,0.0,0.0,0.0,0.0,0.0,0.0,0.0,0.0,0.0,0.0,0.0,0.0,0.0,0.0,0.0,0.0,0.0,0.0,0.0,0.0,0.0,0.0,0.0,0.0,0.0,0.0,0.0,-0.5736,-0.5736,-0.5011,-0.371,-0.175,-0.0584,-0.0365,-0.1166,-0.2328,-0.3272,-0.4073,-0.5159,-0.617,-0.697,-0.8126,-0.9069,-0.9891,-1.1408,-1.2067,-1.2215,-1.244,-1.2501,-1.2501,-1.2501,-1.2501,-1.2501,-1.2501,-1.2269,-1.1805,-1.1417,-1.0169,-0.8535,-0.7205,-0.5955,-0.4779,-0.392,-0.3058,-0.2354,-0.1961,-0.1256,-0.0471,-0.0079,0.0,0.0,0.0,0.0,0.0,0.0,0.0,0.0,0.0,0.0,0.0,0.0,0.0,0.0,0.0,0.0,0.0,0.0,0.0,0.0,0.0,0.0,0.0,0.0,0.0,0.0,0.0,0.0,0.0,0.0,0.0,0.0,0.0,0.0,0.0,0.0,0.0,0.0,0.0,0.0,0.0,-0.1952,0.0,0.0,0.0,0.0,0.0,0.0,0.0,0.0,0.0,0.0,0.0,0.0,0.0,0.0,0.0,0.0,0.0,0.0,0.0,0.0,0.0,0.0,0.0,0.0,0.0,0.0,0.0,-0.4148,-0.4148,-0.4148,-0.313,-0.204,-0.0948,-0.0292,-0.0219,-0.0729,-0.1603,-0.2258,-0.2841,-0.3712,-0.4581,-0.538,-0.6536,-0.7485,-0.8295,-0.9612,-1.0271,-1.0555,-1.1932,-1.2501,-1.2501,-1.2501,-1.2501,-1.2501,-1.2501,-1.2037,-1.134,-1.0314,-0.8837,-0.7049,-0.4852,-0.3525,-0.251,-0.1412,-0.0863,-0.0707,-0.0549,-0.0314,-0.0157,0.0,0.0,0.0,0.0,0.0,0.0,0.0,0.0,0.0,0.0,0.0,0.0,0.0,0.0,0.0,0.0,0.0,0.0,0.0,0.0,0.0,0.0,0.0,0.0,0.0,0.0,0.0,0.0,0.0,0.0,0.0,0.0,0.0,0.0,0.0,0.0,0.0,0.0,0.0,0.0,0.0,0.0,-0.1121,-0.1462,-0.1991,0.0,0.0,0.0,0.0,0.0,0.0,0.0,0.0,0.0,0.0,0.0,0.0,0.0,0.0,0.0,0.0,0.0,0.0,0.0,0.0,0.0,0.0,0.0,0.0,0.0,-0.2008,-0.2012,-0.2023,-0.1374,-0.0798,-0.0365,-0.0146,-0.0146,-0.0365,-0.0802,-0.1094,-0.1312,-0.1822,-0.2477,-0.3276,-0.4434,-0.5377,-0.6185,-0.7512,-0.81,-0.8244,-0.9442,-1.05,-1.1495,-1.1495,-1.1495,-1.1495,-1.1495,-1.0791,-0.9781,-0.8759,-0.7123,-0.5248,-0.329,-0.2038,-0.1177,-0.0314,0.0,0.0,0.0,0.0,0.0,0.0,0.0,0.0,0.0,0.0,0.0,0.0,0.0,0.0,0.0,0.0,0.0,0.0,0.0,0.0,0.0,0.0,0.0,0.0,0.0,0.0,0.0,0.0,0.0,0.0,0.0,0.0,0.0,0.0,0.0,0.0,0.0,0.0,0.0,0.0,0.0,0.0,0.0,0.0,0.0,0.0,0.0,-0.0733,-0.0941,-0.1191,-0.1668,0.0,0.0,-0.2106,-0.2253,0.0,0.0,0.0,0.0,0.0,0.0,0.0,0.0,0.0,0.0,0.0,0.0,0.0,0.0,0.0,0.0,0.0,0.0,-0.1136,-0.007,0.0,0.0,0.0,0.0,0.0,0.0,0.0,0.0,0.0,0.0,0.0,0.0,0.0,-0.0365,-0.1166,-0.2256,-0.3199,-0.4005,-0.5217,-0.576,-0.5779,-0.5922,-0.7415,-0.9609,-0.962,-0.9625,-0.9625,-0.9625,-0.8847,-0.7599,-0.6736,-0.517,-0.3372,-0.2118,-0.1177,-0.0471,-0.0079,0.0,0.0,0.0,0.0,0.0,0.0,0.0,0.0,0.0,0.0,0.0,0.0,0.0,0.0,0.0,0.0,0.0,0.0,0.0,0.0,0.0,0.0,0.0,0.0,0.0,0.0,0.0,0.0,0.0,0.0,0.0,0.0,0.0,0.0,0.0,0.0,0.0,0.0,0.0,0.0,0.0,0.0,0.0,0.0,0.0,0.0,0.0,-0.0172,-0.0215,-0.0256,-0.0372,0.0,0.0,0.0,-0.0506,0.0,0.0,0.0,0.0,0.0,0.0,0.0,0.0,0.0,0.0,0.0,0.0,0.0,0.0,0.0,0.0,0.0,0.0,-0.0563,-0.007,0.0,0.0,0.0,0.0,0.0,0.0,0.0,0.0,0.0,0.0,0.0,0.0,0.0,-0.0219,-0.0729,-0.1531,-0.2186,-0.2697,-0.3577,-0.404,-0.4085,-0.4148,-0.5267,-0.7018,-0.7011,-0.7037,-0.7037,-0.7037,-0.6417,-0.5405,-0.4227,-0.3133,-0.2039,-0.0785,-0.0236,-0.0079,0.0,0.0,0.0,0.0,0.0,0.0,0.0,0.0,0.0,0.0,0.0,0.0,0.0,0.0,0.0,0.0,0.0,0.0,0.0,0.0,0.0,0.0,0.0,0.0,0.0,0.0,0.0,0.0,0.0,0.0,0.0,0.0,0.0,0.0,0.0,0.0,0.0,0.0,0.0,0.0,0.0,0.0,0.0,0.0,0.0,0.0,0.0,0.0,0.0,0.0,0.0,0.0,0.0,0.0,0.0,0.0,0.0,0.0,0.0,0.0,0.0,0.0,0.0,0.0,0.0,0.0,0.0,0.0,0.0,0.0,0.0,0.0,0.0,0.0,-0.0208,0.0,0.0,0.0,0.0,0.0,0.0,0.0,0.0,0.0,0.0,0.0,0.0,0.0,0.0,-0.0073,-0.0292,-0.0657,-0.0948,-0.1167,-0.1604,-0.1756,-0.1769,-0.1802,-0.2352,-0.3284,-0.4587,-0.5089,-0.5089,-0.5089,-0.4464,-0.3605,-0.282,-0.1961,-0.1099,-0.0236,0.0,0.0,0.0,0.0,0.0,0.0,0.0,0.0,0.0,0.0,0.0,0.0,0.0,0.0,0.0,0.0,0.0,0.0,0.0,0.0,0.0,0.0,0.0,0.0,0.0,0.0,0.0,0.0,0.0,0.0,0.0,0.0,0.0,0.0,0.0,0.0,0.0,0.0,0.0,0.0,0.0,0.0,0.0,0.0,0.0,0.0,0.0,0.0,0.0,0.0,0.0,0.0,0.0,0.0,0.0,0.0,0.0,0.0,0.0,0.0,0.0,0.0,0.0,0.0,0.0,0.0,0.0,0.0,0.0,0.0,0.0,0.0,0.0,0.0,0.0,0.0,0.0,0.0,0.0,0.0,0.0,0.0,0.0,0.0,0.0,0.0,0.0,0.0,0.0,0.0,0.0,0.0,0.0,0.0,0.0,0.0,0.0,0.0,0.0,0.0,0.0,-0.0228,-0.2254,-0.3058,-0.3058,-0.3058,-0.2588,-0.1962,-0.1648,-0.1099,-0.0393,-0.0079,0.0,0.0,0.0,0.0,0.0,0.0,0.0,0.0,0.0,0.0,0.0,0.0,0.0,0.0,0.0,0.0,0.0,0.0,0.0,0.0,0.0,0.0,0.0,0.0,0.0,0.0,0.0,0.0,0.0,0.0,0.0,0.0,0.0,0.0,0.0,0.0,0.0,0.0,0.0,0.0,0.0,0.0,0.0,0.0,0.0,0.0,0.0,0.0,0.0,0.0,0.0,0.0,0.0,0.0,0.0,0.0,0.0,0.0,0.0,0.0,0.0,0.0,0.0,0.0,0.0,0.0,0.0,0.0,0.0,0.0,0.0,0.0,0.0,0.0,0.0,0.0,0.0,0.0,0.0,0.0,0.0,0.0,0.0,0.0,0.0,0.0,0.0,0.0,0.0,0.0,0.0,0.0,0.0,0.0,0.0,0.0,0.0,0.0,0.0,0.0,0.0,0.0,-0.0311,-0.0393,-0.0393,-0.0393,-0.0393,-0.0314,-0.0236,-0.0157,-0.0079,0.0,0.0,0.0,0.0,0.0,0.0,0.0,0.0,0.0,0.0,0.0,0.0,0.0,0.0,0.0,0.0,0.0,0.0,0.0,0.0,0.0,0.0,0.0,0.0,0.0,0.0,0.0,0.0,0.0,0.0,0.0,0.0,0.0,0.0,0.0,0.0,0.0,0.0,0.0,0.0,0.0,0.0,0.0,0.0,0.0,0.0,0.0,0.0,0.0,0.0,0.0,0.0,0.0,0.0,0.0,0.0,0.0,0.0,0.0,0.0,0.0,0.0,0.0,0.0,0.0,0.0,0.0,0.0,0.0,0.0,0.0,0.0,0.0,0.0,0.0,0.0,0.0,0.0,0.0,0.0,0.0,0.0,0.0,0.0,0.0,0.0,0.0,0.0,0.0,0.0,0.0,0.0,0.0,0.0,0.0,0.0,0.0,0.0,0.0,0.0,0.0,0.0,0.0,0.0,0.0,0.0,0.0,0.0,0.0,0.0,0.0,0.0,0.0,0.0,0.0,0.0,0.0,0.0,0.0,0.0,0.0,0.0,0.0,0.0,0.0,0.0,0.0,0.0,0.0,0.0,0.0,0.0,0.0,0.0,0.0,0.0,0.0,0.0,0.0,0.0,0.0,0.0,0.0,0.0,0.0,0.0,0.0,0.0,0.0,0.0,0.0,0.0,0.0,0.0,0.0,0.0,0.0,0.0,0.0,0.0,0.0,0.0,0.0,0.0,0.0,0.0,0.0,0.0,0.0,0.0,0.0,0.0,0.0,0.0,0.0,0.0,0.0,0.0,0.0,0.0,0.0,0.0,0.0,0.0,0.0,0.0,0.0,0.0,0.0,0.0,0.0,0.0,0.0,0.0,0.0,0.0,0.0,0.0,0.0,0.0,0.0,0.0,0.0,0.0,0.0,0.0,0.0,0.0,0.0,0.0,0.0,0.0,0.0,0.0,0.0,0.0,0.0,0.0,0.0,0.0,0.0,0.0,0.0,0.0,0.0,0.0,0.0,0.0,0.0,0.0,0.0,0.0,0.0,0.0,0.0,0.0,0.0,0.0,0.0,0.0,0.0,0.0,0.0,0.0,0.0,0.0,0.0,0.0,0.0,0.0,0.0,0.0,0.0,0.0,0.0,0.0,0.0,0.0,0.0,0.0,0.0,0.0,0.0,0.0,0.0,0.0,0.0,0.0,0.0,0.0,0.0,0.0,0.0,0.0,0.0,0.0,0.0,0.0,0.0,0.0,0.0,0.0,0.0,0.0,0.0,0.0,0.0,0.0,0.0,0.0,0.0,0.0,0.0,0.0,0.0,0.0,0.0,0.0,0.0,0.0,0.0,0.0,0.0,0.0,0.0,0.0,0.0,0.0,0.0,0.0,0.0,0.0,0.0,0.0,0.0,0.0,0.0,0.0,0.0,0.0,0.0,0.0,0.0,0.0,0.0,0.0,0.0,0.0,0.0,0.0,0.0,0.0,0.0,0.0,0.0,0.0,0.0,0.0,0.0,0.0,0.0,0.0,0.0,0.0,0.0,0.0,0.0,0.0,0.0,0.0,0.0,0.0,0.0,0.0,0.0,0.0,0.0,0.0,0.0,0.0,0.0,0.0,0.0,0.0,0.0,0.0,0.0,0.0,0.0,0.0,0.0,0.0,0.0,0.0,0.0,0.0,0.0,0.0,0.0,0.0,0.0,0.0,0.0,0.0,0.0,0.0,0.0,0.0,0.0,0.0,0.0,0.0,0.0,0.0,0.0,0.0,0.0,0.0,0.0,0.0,0.0,0.0,0.0,0.0,0.0,0.0,0.0,0.0,0.0,0.0,0.0,0.0,0.0,0.0,0.0,0.0,0.0,0.0,0.0,0.0,0.0,0.0,0.0,0.0,0.0,0.0,0.0,0.0,0.0,0.0,0.0,0.0,0.0,0.0,0.0,0.0,0.0,0.0,0.0,0.0,0.0,0.0,0.0,0.0,0.0,0.0,0.0,0.0,0.0,0.0,0.0,0.0,0.0,0.0,0.0,0.0,0.0,0.0,0.0,0.0,0.0,0.0,0.0,0.0,0.0,0.0,0.0,0.0,0.0,0.0,0.0,0.0,0.0,0.0,0.0,0.0,0.0,0.0,0.0,0.0,0.0,0.0,0.0,0.0,0.0,0.0,0.0,0.0,0.0,0.0,0.0,0.0,0.0,0.0,0.0,0.0,0.0,0.0,0.0,0.0,0.0,0.0,0.0,0.0,0.0,0.0,0.0,0.0,0.0,0.0,0.0,0.0,0.0,0.0,0.0,0.0,0.0,0.0,0.0,0.0,0.0,0.0,0.0,0.0,0.0,0.0,0.0,0.0,0.0,0.0,0.0,0.0,0.0,0.0,0.0,0.0,0.0,0.0,0.0,0.0,0.0,0.0,0.0,0.0,0.0,0.0,0.0,0.0,0.0,0.0,0.0,0.0,0.0,0.0,0.0,0.0,0.0,0.0,0.0,0.0,0.0,0.0,0.0,0.0,0.0,0.0,0.0,0.0,0.0,0.0,0.0,0.0,0.0,0.0,0.0,0.0,0.0,0.0,0.0,0.0,0.0,0.0,0.0,0.0,0.0,0.0,0.0,0.0,0.0,0.0,0.0,0.0,0.0,0.0,0.0,0.0,0.0,0.0,0.0,0.0,0.0,0.0,0.0,0.0,0.0,0.0,0.0,0.0,0.0,0.0,0.0]}]]